[[{"header":{"parameterUnit":"m.s-1","parameterCategory":1,"la1":31.0,"la2":29.5877,"lo1":-88.7671,"lo2":-86.6584,"dy":0.0162,"dx":0.0185,"nx":115,"ny":88,"refTime":"2024-10-08T12:00:00:Z","depth":0,"parameterNumber":2,"parameterNumberName":"U-component_of_WINDS"},"data":[0.0,0.0,0.0,0.0,0.0,0.0,0.0,0.0,0.0,0.0,0.0,0.0,0.0,0.0,0.0,0.0,0.0,0.0,0.0,0.0,0.0,0.0,0.0,0.0,0.0,0.0,0.0,0.0,0.0,0.0,0.0,0.0,0.0,0.0,0.0,0.0,0.0,0.0,0.0,0.0,0.0,0.0,0.0,0.0,0.0,0.0,0.0,0.0,0.0,0.0,0.0,0.0,0.0,0.0,0.0,0.0,0.0,0.0,0.0,0.0,0.0,0.0,0.0,0.0,0.0,0.0,0.0,0.0,0.0,0.0,0.0,0.0,0.0,0.0,0.0,0.0,0.0,0.0,0.0,0.0,0.0,0.0,0.0,0.0,0.0,0.0,0.0,0.0,0.0,0.0,0.0,0.0,0.0,0.0,0.0,0.0,0.0,0.0,0.0,0.0,0.0,0.0,0.0,0.0,0.0,0.0,0.0,0.0,0.0,0.0,0.0,0.0,0.0,0.0,0.0,0.0,0.0,0.0,0.0,0.0,0.0,0.0,0.0,0.0,0.0,0.0,0.0,0.0,0.0,0.0,0.0,0.0,0.0,0.0,0.0,0.0,0.0,0.0,0.0,0.0,0.0,0.0,0.0,0.0,0.0,0.0,0.0,0.0,0.0,0.0,0.0,0.0,0.0,0.0,0.0,0.0,0.0,0.0,0.0,0.0,0.0,0.0,0.0,0.0,0.0,0.0,0.0,0.0,0.0,0.0,0.0,0.0,0.0,0.0,0.0,0.0,0.0,0.0,0.0,0.0,0.0,0.0,0.0,0.0,0.0,0.0,0.0,0.0,0.0,0.0,0.0,0.0,0.0,0.0,0.0,0.0,0.0,0.0,0.0,0.0,0.0,0.0,0.0,0.0,0.0,0.0,0.0,0.0,0.0,0.0,0.0,0.0,0.0,0.0,0.0,0.0,0.0,0.0,0.0,0.0,0.0,0.0,0.0,0.0,0.0,0.0,0.0,0.0,0.0,0.0,0.0,0.0,0.0,0.0,0.0,0.0,0.0,0.0,0.0,0.0,0.0,0.0,0.0,0.0,0.0,0.0,0.0,0.0,0.0,0.0,0.0,0.0,0.0,0.0,0.0,0.0,0.0,0.0,0.0,0.0,0.0,0.0,0.0,0.0,0.0,0.0,0.0,0.0,0.0,0.0,0.0,0.0,0.0,0.0,0.0,0.0,0.0,0.0,0.0,0.0,0.0,0.0,0.0,0.0,0.0,0.0,0.0,0.0,0.0,0.0,0.0,0.0,0.0,0.0,0.0,0.0,0.0,0.0,0.0,0.0,0.0,0.0,0.0,0.0,0.0,0.0,0.0,0.0,0.0,0.0,0.0,0.0,0.0,0.0,0.0,0.0,0.0,0.0,0.0,0.0,0.0,0.0,0.0,0.0,0.0,0.0,0.0,0.0,0.0,0.0,0.0,0.0,0.0,0.0,0.0,0.0,0.0,0.0,0.0,0.0,0.0,0.0,0.0,0.0,0.0,0.0,0.0,0.0,0.0,0.0,0.0,0.0,0.0,0.0,0.0,0.0,0.0,0.0,0.0,0.0,0.0,0.0,0.0,0.0,0.0,0.0,0.0,0.0,0.0,0.0,0.0,0.0,0.0,0.0,0.0,0.0,0.0,0.0,0.0,0.0,0.0,0.0,0.0,0.0,0.0,0.0,0.0,0.0,0.0,0.0,0.0,0.0,0.0,0.0,0.0,0.0,0.0,0.0,0.0,0.0,0.0,0.0,0.0,0.0,0.0,0.0,0.0,0.0,0.0,0.0,0.0,0.0,0.0,0.0,0.0,0.0,0.0,0.0,0.0,0.0,0.0,0.0,0.0,0.0,0.0,0.0,0.0,0.0,0.0,0.0,0.0,0.0,0.0,0.0,0.0,0.0,0.0,0.0,0.0,0.0,0.0,0.0,0.0,0.0,0.0,0.0,0.0,0.0,0.0,0.0,0.0,0.0,0.0,0.0,0.0,0.0,0.0,0.0,0.0,0.0,0.0,0.0,0.0,0.0,0.0,0.0,0.0,0.0,0.0,0.0,0.0,0.0,0.0,0.0,0.0,0.0,0.0,0.0,0.0,0.0,0.0,0.0,0.0,0.0,0.0,0.0,0.0,0.0,0.0,0.0,0.0,0.0,0.0,0.0,0.0,0.0,0.0,0.0,0.0,0.0,0.0,0.0,0.0,0.0,0.0,0.0,0.0,0.0,0.0,0.0,0.0,0.0,0.0,0.0,0.0,0.0,0.0,0.0,0.0,0.0,0.0,0.0,0.0,0.0,0.0,0.0,0.0,0.0,0.0,0.0,0.0,0.0,0.0,0.0,0.0,0.0,0.0,0.0,0.0,0.0,0.0,0.0,0.0,0.0,0.0,0.0,0.0,0.0,0.0,0.0,0.0,0.0,0.0,0.0,0.0,0.0,0.0,0.0,0.0,0.0,0.0,0.0,0.0,0.0,0.0,0.0,0.0,0.0,0.0,0.0,0.0,0.0,0.0,0.0,0.0,0.0,0.0,0.0,0.0,0.0,0.0,0.0,0.0,0.0,0.0,0.0,0.0,0.0,0.0,0.0,0.0,0.0,0.0,0.0,0.0,0.0,0.0,0.0,0.0,0.0,0.0,0.0,0.0,0.0,0.0,0.0,0.0,0.0,0.0,0.0,0.0,0.0,0.0,0.0,0.0,0.0,0.0,0.0,0.0,0.0,0.0,0.0,0.0,0.0,0.0,0.0,0.0,0.0,0.0,0.0,0.0,0.0,0.0,0.0,0.0,0.0,0.0,0.0,0.0,0.0,0.0,0.0,0.0,0.0,0.0,0.0,0.0,0.0,0.0,0.0,0.0,0.0,0.0,0.0,0.0,0.0,0.0,0.0,0.0,0.0,0.0,0.0,0.0,0.0,0.0,0.0,0.0,0.0,0.0,0.0,0.0,0.0,0.0,0.0,0.0,0.0,0.0,0.0,0.0,0.0,0.0,0.0,0.0,0.0,0.0,0.0,0.0,0.0,0.0,0.0,0.0,0.0,0.0,0.0,0.0,0.0,0.0,0.0,0.0,0.0,0.0,0.0,0.0,0.0,0.0,0.0,0.0,0.0,0.0,0.0,0.0,0.0,0.0,0.0,0.0,0.0,0.0,0.0,0.0,0.0,0.0,0.0,0.0,0.0,0.0,0.0,0.0,0.0,0.0,0.0,0.0,0.0,0.0,0.0,0.0,0.0,0.0,0.0,0.0,0.0,0.0,0.0,0.0,0.0,0.0,0.0,0.0,0.0,0.0,0.0,0.0,0.0,0.0,0.0,0.0,0.0,0.0,0.0,0.0,0.0,0.0,0.0,0.0,0.0,0.0,0.0,0.0,0.0,0.0,0.0,0.0,0.0,0.0,0.0,0.0,0.0,0.0,0.0,0.0,0.0,0.0,0.0,0.0,0.0,0.0,0.0,0.0,0.0,0.0,0.0,0.0,0.0,0.0,0.0,0.0,0.0,0.0,0.0,0.0,0.0,0.0,0.0,0.0,0.0,0.0,0.0,0.0,0.0,0.0,0.0,0.0,0.0,0.0,0.0,0.0,0.0,0.0,0.0,0.0,0.0,0.0,0.0,0.0,0.0,0.0,0.0,0.0,0.0,0.0,0.0,0.0,0.0,0.0,0.0,0.0,0.0,0.0,0.0,0.0,0.0,0.0,0.0,0.0,0.0,0.0,0.0,0.0,0.0,0.0,0.0,0.0,0.0,0.0,0.0,0.0,0.0,0.0,0.0,0.0,0.0,0.0,0.0,0.0,0.0,0.0,0.0,0.0,0.0,0.0,0.0,0.0,0.0,0.0,0.0,0.0,0.0,0.0,0.0,0.0,0.0,0.0,0.0,0.0,0.0,0.0,0.0,0.0,0.0,0.0,0.0,0.0,0.0,0.0,0.0,0.0,0.0,0.0,0.0,0.0,0.0,0.0,0.0,0.0,0.0,0.0,0.0,0.0,0.0,0.0,0.0,0.0,0.0,0.0,0.0,0.0,0.0,0.0,0.0,0.0,0.0,0.0,0.0,0.0,0.0,0.0,0.0,0.0,0.0,0.0,0.0,0.0,0.0,0.0,0.0,0.0,0.0,0.0,0.0,0.0,0.0,0.0,0.0,0.0,0.0,0.0,0.0,0.0,0.0,0.0,0.0,0.0,0.0,0.0,0.0,0.0,0.0,0.0,0.0,0.0,0.0,0.0,0.0,0.0,0.0,0.0,0.0,1.8059,0.0,0.0,0.0,0.0,0.0,0.0,0.0,0.0,0.0,0.0,0.0,0.0,0.0,0.0,0.0,0.0,0.0,0.0,0.0,0.0,0.0,0.0,0.0,0.0,0.0,0.0,0.0,0.0,0.0,0.0,0.0,0.0,0.0,0.0,0.0,0.0,0.0,0.0,0.0,0.0,0.0,0.0,0.0,0.0,0.0,0.0,0.0,0.0,0.0,0.0,0.0,0.0,0.0,0.0,0.0,0.0,0.0,0.0,0.0,0.0,0.0,0.0,0.0,0.0,0.0,0.0,0.0,0.0,0.0,0.0,0.0,0.0,0.0,0.0,0.0,0.0,0.0,0.0,0.0,0.0,0.0,0.0,0.0,0.0,0.0,0.0,0.0,0.0,0.0,0.0,0.0,0.0,0.0,0.0,0.0,0.0,0.0,0.0,0.0,0.0,0.0,0.0,0.0,0.0,0.0,0.0,0.0,0.0,0.0,0.0,2.1057,2.1287,2.072,1.9894,1.8846,0.0,0.0,0.0,0.0,0.0,0.0,0.0,0.0,0.0,0.0,0.0,0.0,0.0,0.0,0.0,0.0,0.0,0.0,0.0,0.0,0.0,0.0,0.0,0.0,0.0,0.0,0.0,0.0,0.0,0.0,0.0,0.0,0.0,0.0,0.0,0.0,0.0,0.0,0.0,0.0,0.0,0.0,0.0,0.0,0.0,0.0,0.0,0.0,0.0,0.0,0.0,0.0,0.0,0.0,0.0,0.0,0.0,0.0,0.0,0.0,0.0,0.0,0.0,0.0,0.0,0.0,0.0,0.0,0.0,0.0,0.0,0.0,0.0,0.0,0.0,0.0,0.0,0.0,0.0,0.0,0.0,0.0,0.0,0.0,0.0,0.0,0.0,0.0,0.0,0.0,0.0,0.0,0.0,0.0,0.0,0.0,0.0,0.0,0.0,0.0,0.0,0.0,0.0,0.0,0.0,0.0,0.0,0.0,0.0,0.0,0.0,0.0,2.1697,2.0756,1.9294,0.0,0.0,0.0,0.0,0.0,0.0,0.0,0.0,0.0,0.0,0.0,0.0,0.0,0.0,0.0,0.0,0.0,0.0,0.0,0.0,0.0,0.0,0.0,0.0,0.0,0.0,0.0,0.0,0.0,0.0,0.0,0.0,0.0,0.0,0.0,0.0,0.0,0.0,0.0,0.0,0.0,0.0,0.0,0.0,0.0,0.0,0.0,0.0,0.0,0.0,0.0,0.0,0.0,0.0,0.0,0.0,0.0,0.0,0.0,0.0,0.0,0.0,0.0,0.0,0.0,0.0,0.0,0.0,0.0,0.0,0.0,0.0,0.0,0.0,0.0,0.0,0.0,0.0,0.0,0.0,0.0,0.0,0.0,0.0,0.0,0.0,0.0,0.0,0.0,0.0,0.0,0.0,0.0,0.0,0.0,0.0,0.0,0.0,0.0,0.0,0.0,0.0,0.0,0.0,0.0,0.0,0.0,0.0,0.0,0.0,2.1915,2.226,2.1898,0.0,1.8877,0.0,0.0,0.0,0.0,0.0,0.0,0.0,0.0,0.0,0.0,0.0,0.0,0.0,0.0,0.0,0.0,0.0,0.0,0.0,0.0,0.0,0.0,0.0,0.0,0.0,0.0,0.0,0.0,0.0,0.0,0.0,0.0,0.0,0.0,0.0,0.0,0.0,0.0,0.0,0.0,0.0,0.0,0.0,0.0,0.0,0.0,0.0,0.0,0.0,0.0,0.0,0.0,0.0,0.0,0.0,0.0,0.0,0.0,0.0,0.0,0.0,0.0,0.0,0.0,0.0,0.0,0.0,0.0,0.0,0.0,0.0,0.0,0.0,0.0,0.0,0.0,0.0,0.0,0.0,0.0,0.0,0.0,0.0,0.0,0.0,0.0,0.0,0.0,0.0,0.0,0.0,0.0,0.0,0.0,0.0,0.0,0.0,0.0,0.0,0.0,0.0,0.0,0.0,0.0,0.0,0.0,0.0,0.0,0.0,0.0,2.2359,2.3233,2.2027,2.079,0.0,0.0,0.0,0.0,0.0,0.0,0.0,0.0,0.0,0.0,0.0,0.0,0.0,0.0,0.0,0.0,0.0,0.0,0.0,0.0,0.0,0.0,0.0,0.0,0.0,0.0,0.0,0.0,0.0,0.0,0.0,0.0,0.0,0.0,0.0,0.0,0.0,0.0,0.0,0.0,0.0,0.0,0.0,0.0,0.0,0.0,0.0,0.0,0.0,0.0,0.0,0.0,0.0,0.0,0.0,0.0,0.0,0.0,0.0,0.0,0.0,0.0,0.0,0.0,0.0,0.0,0.0,0.0,0.0,0.0,0.0,0.0,0.0,0.0,0.0,0.0,0.0,0.0,0.0,0.0,0.0,0.0,0.0,0.0,0.0,0.0,0.0,0.0,0.0,0.0,0.0,0.0,0.0,0.0,0.0,0.0,0.0,0.0,0.0,0.0,0.0,0.0,0.0,0.0,0.0,0.0,0.0,0.0,0.0,0.0,2.2079,2.2489,2.3324,2.1913,2.0691,1.9783,0.0,0.0,0.0,0.0,0.0,0.0,0.0,0.0,0.0,0.0,0.0,0.0,0.0,0.0,0.0,0.0,0.0,0.0,0.0,0.0,0.0,0.0,0.0,0.0,0.0,0.0,0.0,0.0,0.0,0.0,0.0,0.0,0.0,0.0,0.0,0.0,0.0,0.0,0.0,0.0,0.0,0.0,0.0,0.0,0.0,0.0,0.0,0.0,0.0,0.0,0.0,0.0,0.0,0.0,0.0,0.0,0.0,0.0,0.0,0.0,0.0,0.0,0.0,0.0,0.0,0.0,0.0,0.0,0.0,0.0,0.0,0.0,0.0,0.0,0.0,0.0,0.0,0.0,0.0,0.0,0.0,0.0,0.0,0.0,0.0,0.0,0.0,0.0,0.0,0.0,0.0,0.0,0.0,0.0,0.0,0.0,0.0,0.0,0.0,0.0,0.0,0.0,0.0,0.0,0.0,0.0,0.0,0.0,0.0,2.1704,2.2054,2.238,2.1567,2.0332,0.0,0.0,0.0,0.0,0.0,0.0,0.0,0.0,0.0,0.0,0.0,0.0,0.0,0.0,0.0,0.0,0.0,0.0,0.0,0.0,0.0,0.0,0.0,0.0,0.0,0.0,0.0,0.0,0.0,0.0,0.0,0.0,0.0,0.0,0.0,0.0,0.0,0.0,0.0,0.0,0.0,0.0,0.0,0.0,0.0,0.0,0.0,0.0,0.0,0.0,0.0,0.0,0.0,0.0,0.0,0.0,0.0,0.0,0.0,0.0,0.0,0.0,0.0,0.0,0.0,0.0,0.0,0.0,0.0,0.0,0.0,0.0,0.0,0.0,0.0,0.0,0.0,0.0,0.0,0.0,0.0,0.0,0.0,0.0,0.0,0.0,0.0,0.0,0.0,0.0,0.0,0.0,0.0,0.0,0.0,0.0,0.0,0.0,0.0,0.0,0.0,0.0,0.0,0.0,0.0,0.0,0.0,0.0,0.0,2.142,2.1947,2.2387,2.2684,2.1591,2.0388,0.0,0.0,0.0,0.0,0.0,0.0,0.0,0.0,0.0,0.0,0.0,0.0,0.0,0.0,0.0,0.0,0.0,0.0,0.0,0.0,0.0,0.0,0.0,0.0,0.0,0.0,0.0,0.0,0.0,0.0,0.0,0.0,0.0,0.0,0.0,0.0,0.0,0.0,0.0,0.0,0.0,0.0,0.0,0.0,0.0,0.0,0.0,0.0,0.0,0.0,0.0,0.0,0.0,0.0,0.0,0.0,0.0,0.0,0.0,0.0,0.0,0.0,0.0,0.0,0.0,0.0,0.0,0.0,0.0,0.0,0.0,0.0,0.0,0.0,0.0,0.0,0.0,0.0,0.0,0.0,0.0,0.0,0.0,0.0,0.0,0.0,0.0,0.0,0.0,0.0,0.0,0.0,0.0,0.0,0.0,0.0,0.0,0.0,0.0,0.0,0.0,0.0,0.0,0.0,0.0,0.0,0.0,0.0,0.0,2.1707,0.0,2.2482,0.0,2.1669,2.0388,0.0,0.0,0.0,0.0,0.0,0.0,0.0,0.0,0.0,0.0,0.0,0.0,0.0,0.0,0.0,0.0,0.0,0.0,0.0,0.0,0.0,0.0,0.0,0.0,0.0,0.0,0.0,0.0,0.0,0.0,0.0,0.0,0.0,0.0,0.0,0.0,0.0,0.0,0.0,0.0,0.0,0.0,0.0,0.0,0.0,0.0,0.0,0.0,0.0,0.0,0.0,0.0,0.0,0.0,0.0,0.0,0.0,0.0,0.0,0.0,0.0,0.0,0.0,0.0,0.0,0.0,0.0,0.0,0.0,0.0,0.0,0.0,0.0,0.0,0.0,0.0,0.0,0.0,0.0,0.0,0.0,0.0,0.0,0.0,0.0,0.0,0.0,0.0,0.0,0.0,0.0,0.0,0.0,0.0,0.0,0.0,0.0,0.0,0.0,0.0,0.0,0.0,0.0,0.0,0.0,0.0,0.0,0.0,2.0881,2.2113,2.2293,2.2276,2.2018,2.1718,2.0319,0.0,0.0,0.0,0.0,0.0,0.0,0.0,0.0,0.0,0.0,0.0,0.0,0.0,0.0,0.0,0.0,0.0,0.0,0.0,0.0,0.0,0.0,0.0,0.0,0.0,0.0,0.0,0.0,0.0,0.0,0.0,0.0,0.0,0.0,0.0,0.0,0.0,0.0,0.0,0.0,0.0,0.0,0.0,0.0,0.0,0.0,0.0,0.0,0.0,0.0,0.0,0.0,0.0,0.0,0.0,0.0,0.0,0.0,0.0,0.0,0.0,0.0,0.0,0.0,0.0,0.0,0.0,0.0,0.0,0.0,0.0,0.0,0.0,0.0,0.0,0.0,0.0,0.0,0.0,0.0,0.0,0.0,0.0,0.0,0.0,0.0,0.0,0.0,0.0,0.0,0.0,0.0,0.0,0.0,0.0,0.0,0.0,0.0,0.0,0.0,0.0,0.0,0.0,0.0,0.0,0.0,0.0,0.0,0.0,2.1968,2.204,2.2149,2.2287,2.1463,2.0207,0.0,0.0,0.0,0.0,0.0,0.0,0.0,0.0,0.0,0.0,0.0,0.0,0.0,0.0,0.0,0.0,0.0,0.0,0.0,0.0,0.0,0.0,0.0,0.0,0.0,0.0,0.0,0.0,0.0,0.0,0.0,0.0,0.0,0.0,0.0,0.0,0.0,0.0,0.0,0.0,0.0,0.0,0.0,0.0,0.0,0.0,0.0,0.0,0.0,0.0,0.0,0.0,0.0,0.0,0.0,0.0,0.0,0.0,0.0,0.0,0.0,0.0,0.0,0.0,0.0,0.0,0.0,0.0,0.0,0.0,0.0,0.0,0.0,0.0,0.0,0.0,0.0,0.0,0.0,0.0,0.0,0.0,0.0,0.0,0.0,0.0,0.0,0.0,0.0,0.0,0.0,0.0,0.0,0.0,0.0,0.0,0.0,0.0,0.0,0.0,0.0,0.0,0.0,0.0,0.0,0.0,0.0,0.0,0.0,2.231,2.2485,2.2588,2.2723,2.1895,2.0617,1.8903,0.0,0.0,0.0,0.0,0.0,0.0,0.0,0.0,0.0,0.0,0.0,0.0,0.0,0.0,0.0,0.0,0.0,0.0,0.0,0.0,0.0,0.0,0.0,0.0,0.0,0.0,0.0,0.0,0.0,0.0,0.0,0.0,0.0,0.0,0.0,0.0,0.0,0.0,0.0,0.0,0.0,0.0,0.0,0.0,0.0,0.0,0.0,0.0,0.0,0.0,0.0,0.0,0.0,0.0,0.0,0.0,0.0,0.0,0.0,0.0,0.0,0.0,0.0,0.0,0.0,0.0,0.0,0.0,0.0,0.0,0.0,0.0,0.0,0.0,0.0,0.0,0.0,0.0,0.0,0.0,0.0,0.0,0.0,0.0,0.0,0.0,0.0,0.0,0.0,0.0,0.0,0.0,0.0,0.0,0.0,0.0,0.0,0.0,0.0,0.0,0.0,0.0,0.0,0.0,0.0,0.0,0.0,0.0,2.3153,2.3514,2.3555,2.3195,2.2848,2.1438,0.0,0.0,0.0,0.0,0.0,0.0,0.0,0.0,0.0,0.0,0.0,0.0,0.0,0.0,0.0,0.0,0.0,0.0,0.0,0.0,0.0,0.0,0.0,0.0,0.0,0.0,0.0,0.0,0.0,0.0,0.0,0.0,0.0,0.0,0.0,0.0,0.0,0.0,0.0,0.0,0.0,0.0,0.0,0.0,0.0,0.0,0.0,0.0,0.0,0.0,0.0,0.0,0.0,0.0,0.0,0.0,0.0,0.0,0.0,0.0,0.0,0.0,0.0,0.0,0.0,0.0,0.0,0.0,0.0,0.0,0.0,0.0,0.0,0.0,0.0,0.0,0.0,0.0,0.0,0.0,0.0,0.0,0.0,0.0,0.0,0.0,0.0,0.0,0.0,0.0,0.0,0.0,0.0,0.0,0.0,0.0,0.0,0.0,0.0,0.0,0.0,0.0,0.0,0.0,0.0,0.0,0.0,0.0,0.0,2.377,2.4644,2.4807,2.4206,2.3082,2.1768,0.0,0.0,0.0,0.0,0.0,0.0,0.0,0.0,0.0,0.0,0.0,0.0,0.0,0.0,0.0,0.0,0.0,0.0,0.0,0.0,0.0,0.0,0.0,0.0,0.0,0.0,0.0,0.0,0.0,0.0,0.0,0.0,0.0,0.0,0.0,0.0,0.0,0.0,0.0,0.0,0.0,0.0,0.0,0.0,0.0,0.0,0.0,0.0,0.0,0.0,0.0,0.0,0.0,0.0,0.0,0.0,0.0,0.0,0.0,0.0,0.0,0.0,0.0,0.0,0.0,0.0,0.0,0.0,0.0,0.0,0.0,0.0,0.0,0.0,0.0,0.0,0.0,0.0,0.0,0.0,0.0,0.0,0.0,0.0,0.0,0.0,0.0,0.0,0.0,0.0,0.0,0.0,0.0,0.0,0.0,0.0,0.0,0.0,0.0,0.0,0.0,0.0,0.0,0.0,0.0,0.0,0.0,0.0,2.3871,2.4665,2.5527,2.5787,2.5411,2.3838,2.2383,0.0,0.0,0.0,0.0,0.0,0.0,0.0,0.0,0.0,0.0,0.0,0.0,0.0,0.0,0.0,0.0,0.0,0.0,0.0,0.0,0.0,0.0,0.0,0.0,0.0,0.0,0.0,0.0,0.0,0.0,0.0,0.0,0.0,0.0,0.0,0.0,0.0,0.0,0.0,0.0,0.0,0.0,0.0,0.0,0.0,0.0,0.0,0.0,0.0,0.0,0.0,0.0,0.0,0.0,0.0,0.0,0.0,0.0,0.0,0.0,0.0,0.0,0.0,0.0,0.0,0.0,0.0,0.0,0.0,0.0,0.0,0.0,0.0,0.0,0.0,0.0,0.0,0.0,0.0,0.0,0.0,0.0,0.0,0.0,0.0,0.0,0.0,0.0,0.0,0.0,0.0,0.0,0.0,0.0,0.0,0.0,0.0,0.0,0.0,0.0,0.0,0.0,0.0,0.0,0.0,0.0,0.0,0.0,2.4632,2.5594,2.6197,2.6473,2.632,2.4703,2.3134,0.0,0.0,0.0,0.0,0.0,0.0,0.0,0.0,0.0,0.0,0.0,0.0,0.0,0.0,0.0,0.0,0.0,0.0,0.0,0.0,0.0,0.0,0.0,0.0,0.0,0.0,0.0,0.0,0.0,0.0,0.0,0.0,0.0,0.0,0.0,0.0,0.0,0.0,0.0,0.0,0.0,0.0,0.0,0.0,0.0,0.0,0.0,0.0,0.0,0.0,0.0,0.0,0.0,0.0,0.0,0.0,0.0,0.0,0.0,0.0,0.0,0.0,0.0,0.0,0.0,0.0,0.0,0.0,0.0,0.0,0.0,0.0,0.0,0.0,0.0,0.0,0.0,0.0,0.0,0.0,0.0,0.0,0.0,0.0,0.0,0.0,0.0,0.0,0.0,0.0,0.0,0.0,0.0,0.0,0.0,0.0,0.0,0.0,0.0,0.0,0.0,0.0,0.0,0.0,0.0,0.0,0.0,0.0,2.536,2.5586,2.6197,2.619,2.5555,2.4393,2.3358,0.0,0.0,0.0,0.0,0.0,0.0,0.0,0.0,0.0,0.0,0.0,0.0,0.0,0.0,0.0,0.0,0.0,0.0,0.0,0.0,0.0,0.0,0.0,0.0,0.0,0.0,0.0,0.0,0.0,0.0,0.0,0.0,0.0,0.0,0.0,0.0,0.0,0.0,0.0,0.0,0.0,0.0,0.0,0.0,0.0,0.0,0.0,0.0,2.8448,0.0,0.0,0.0,0.0,0.0,0.0,0.0,0.0,0.0,0.0,0.0,0.0,0.0,0.0,0.0,0.0,0.0,0.0,0.0,0.0,0.0,0.0,0.0,0.0,0.0,0.0,0.0,0.0,0.0,0.0,0.0,0.0,0.0,0.0,0.0,0.0,0.0,0.0,0.0,0.0,0.0,0.0,0.0,0.0,0.0,0.0,0.0,0.0,0.0,0.0,0.0,0.0,0.0,0.0,0.0,0.0,0.0,0.0,0.0,2.572,2.6038,2.6323,2.631,2.5861,2.4898,2.3766,0.0,0.0,0.0,0.0,0.0,0.0,0.0,0.0,0.0,0.0,0.0,0.0,0.0,0.0,0.0,0.0,0.0,0.0,0.0,0.0,0.0,0.0,0.0,0.0,0.0,0.0,0.0,0.0,0.0,0.0,0.0,0.0,0.0,0.0,0.0,0.0,0.0,0.0,0.0,0.0,0.0,0.0,0.0,0.0,0.0,0.0,0.0,0.0,0.0,0.0,0.0,0.0,0.0,0.0,0.0,0.0,0.0,0.0,0.0,0.0,0.0,0.0,0.0,0.0,0.0,0.0,0.0,0.0,0.0,0.0,0.0,0.0,0.0,0.0,0.0,0.0,0.0,0.0,0.0,0.0,0.0,0.0,0.0,0.0,0.0,0.0,0.0,0.0,0.0,0.0,0.0,0.0,0.0,0.0,0.0,0.0,0.0,0.0,0.0,0.0,0.0,0.0,0.0,0.0,0.0,0.0,0.0,2.541,2.5979,2.6483,2.6499,2.6456,2.631,2.5439,2.4024,2.2043,0.0,0.0,0.0,0.0,0.0,0.0,0.0,0.0,0.0,0.0,0.0,0.0,0.0,0.0,0.0,0.0,0.0,0.0,0.0,0.0,0.0,0.0,0.0,0.0,0.0,0.0,0.0,0.0,0.0,0.0,0.0,0.0,0.0,0.0,0.0,0.0,0.0,0.0,2.6868,2.7871,0.0,0.0,0.0,0.0,0.0,0.0,0.0,0.0,2.9506,0.0,0.0,0.0,0.0,0.0,0.0,0.0,0.0,0.0,0.0,0.0,0.0,0.0,0.0,0.0,0.0,0.0,0.0,0.0,0.0,0.0,0.0,0.0,0.0,0.0,0.0,0.0,0.0,0.0,0.0,0.0,0.0,0.0,0.0,0.0,0.0,0.0,0.0,0.0,0.0,0.0,0.0,0.0,0.0,0.0,0.0,0.0,0.0,0.0,0.0,0.0,0.0,0.0,0.0,0.0,0.0,2.4791,2.582,2.6407,2.6499,2.6499,2.6181,2.552,2.4736,2.3466,2.1618,0.0,0.0,0.0,0.0,0.0,0.0,0.0,0.0,0.0,0.0,0.0,0.0,0.0,0.0,0.0,0.0,0.0,0.0,0.0,0.0,0.0,0.0,0.0,0.0,0.0,0.0,0.0,0.0,0.0,0.0,0.0,0.0,0.0,0.0,0.0,0.0,0.0,0.0,0.0,2.8717,2.8952,0.0,0.0,0.0,0.0,0.0,0.0,0.0,0.0,2.9853,0.0,0.0,0.0,0.0,0.0,0.0,0.0,0.0,0.0,0.0,0.0,0.0,0.0,0.0,0.0,0.0,0.0,0.0,0.0,0.0,0.0,0.0,0.0,0.0,0.0,0.0,0.0,0.0,0.0,0.0,0.0,0.0,0.0,0.0,0.0,0.0,0.0,0.0,0.0,0.0,0.0,0.0,0.0,0.0,0.0,0.0,0.0,0.0,0.0,0.0,0.0,0.0,0.0,0.0,0.0,2.4783,2.5904,2.6499,2.6499,2.6499,2.6293,2.5938,2.5105,2.3825,0.0,0.0,0.0,0.0,0.0,0.0,0.0,0.0,0.0,0.0,0.0,0.0,0.0,0.0,0.0,0.0,0.0,0.0,0.0,0.0,0.0,0.0,0.0,0.0,0.0,0.0,0.0,0.0,0.0,0.0,0.0,0.0,0.0,0.0,0.0,0.0,0.0,0.0,0.0,0.0,2.9038,2.9194,2.9248,0.0,0.0,0.0,0.0,0.0,0.0,2.9469,2.9779,0.0,0.0,0.0,0.0,0.0,0.0,0.0,0.0,0.0,0.0,0.0,0.0,0.0,0.0,0.0,0.0,0.0,0.0,0.0,0.0,0.0,0.0,0.0,0.0,0.0,0.0,0.0,0.0,0.0,0.0,0.0,0.0,0.0,0.0,0.0,0.0,0.0,0.0,0.0,0.0,0.0,0.0,0.0,0.0,0.0,0.0,0.0,0.0,0.0,0.0,0.0,0.0,0.0,0.0,0.0,2.4816,2.603,2.6617,2.6499,2.6499,2.6499,2.6465,2.545,2.4114,0.0,0.0,0.0,0.0,0.0,0.0,0.0,0.0,0.0,0.0,0.0,0.0,0.0,0.0,0.0,0.0,0.0,0.0,0.0,0.0,0.0,0.0,0.0,0.0,0.0,0.0,0.0,0.0,0.0,0.0,0.0,0.0,0.0,0.0,0.0,0.0,0.0,0.0,0.0,0.0,0.0,2.9188,2.9876,2.9689,0.0,0.0,0.0,0.0,2.9111,2.9669,0.0,0.0,0.0,0.0,0.0,0.0,0.0,0.0,0.0,0.0,0.0,0.0,0.0,0.0,0.0,0.0,0.0,0.0,0.0,0.0,0.0,0.0,0.0,0.0,0.0,0.0,0.0,0.0,0.0,0.0,0.0,0.0,0.0,0.0,0.0,0.0,0.0,0.0,0.0,0.0,0.0,0.0,0.0,0.0,0.0,0.0,0.0,0.0,0.0,0.0,0.0,0.0,0.0,0.0,0.0,0.0,2.4833,2.6364,2.6977,2.6533,2.6499,2.6499,2.6474,2.502,2.3442,0.0,0.0,0.0,0.0,0.0,0.0,0.0,0.0,0.0,0.0,0.0,0.0,0.0,0.0,0.0,0.0,0.0,0.0,0.0,0.0,0.0,0.0,0.0,0.0,0.0,0.0,0.0,0.0,0.0,0.0,0.0,0.0,0.0,0.0,0.0,0.0,0.0,0.0,0.0,0.0,0.0,2.8944,2.9483,2.9523,2.9404,0.0,0.0,2.9865,2.9708,3.0542,0.0,0.0,0.0,0.0,0.0,0.0,0.0,0.0,0.0,0.0,0.0,0.0,0.0,0.0,0.0,0.0,0.0,0.0,0.0,0.0,0.0,0.0,0.0,0.0,0.0,0.0,0.0,0.0,0.0,0.0,0.0,0.0,0.0,0.0,0.0,0.0,0.0,0.0,0.0,0.0,0.0,0.0,0.0,0.0,0.0,0.0,0.0,0.0,0.0,0.0,0.0,0.0,0.0,0.0,0.0,2.428,2.4833,2.644,2.7035,2.6533,2.6499,2.6499,2.6474,2.4829,2.3256,0.0,0.0,0.0,0.0,0.0,0.0,0.0,0.0,0.0,0.0,0.0,0.0,0.0,0.0,0.0,0.0,0.0,0.0,0.0,0.0,0.0,0.0,0.0,0.0,0.0,0.0,0.0,0.0,0.0,0.0,0.0,0.0,0.0,0.0,0.0,0.0,0.0,0.0,0.0,0.0,0.0,0.0,2.9965,3.0082,0.0,0.0,0.0,3.042,3.0678,0.0,0.0,0.0,0.0,0.0,0.0,0.0,0.0,0.0,0.0,0.0,0.0,0.0,0.0,0.0,0.0,0.0,0.0,0.0,0.0,0.0,0.0,0.0,0.0,0.0,0.0,0.0,0.0,0.0,0.0,0.0,0.0,0.0,0.0,0.0,0.0,0.0,0.0,0.0,0.0,0.0,0.0,0.0,0.0,0.0,0.0,0.0,0.0,0.0,0.0,0.0,0.0,0.0,0.0,0.0,0.0,0.0,2.5017,2.6649,2.7236,2.6717,2.6583,2.6499,2.6465,2.4829,0.0,0.0,0.0,0.0,0.0,0.0,0.0,0.0,0.0,0.0,0.0,0.0,0.0,0.0,0.0,0.0,0.0,0.0,0.0,0.0,0.0,0.0,0.0,0.0,0.0,0.0,0.0,1.8976,0.0,0.0,0.0,0.0,0.0,0.0,0.0,0.0,0.0,0.0,0.0,0.0,0.0,0.0,3.0135,3.0598,3.075,3.0859,0.0,0.0,3.1039,3.116,3.1235,3.1035,0.0,0.0,0.0,0.0,0.0,0.0,0.0,0.0,0.0,0.0,0.0,0.0,0.0,0.0,0.0,0.0,0.0,0.0,0.0,0.0,0.0,0.0,0.0,0.0,0.0,0.0,0.0,0.0,0.0,0.0,0.0,0.0,0.0,0.0,0.0,0.0,0.0,0.0,0.0,0.0,0.0,0.0,0.0,0.0,0.0,0.0,0.0,0.0,0.0,0.0,0.0,0.0,0.0,0.0,0.0,2.5586,2.7202,2.7779,2.7261,2.6751,2.6499,2.6474,2.5037,2.345,0.0,0.0,0.0,0.0,0.0,0.0,0.0,0.0,0.0,0.0,0.0,0.0,0.0,0.0,0.0,0.0,0.0,0.0,0.0,0.0,0.0,0.0,0.0,0.0,0.0,0.0,0.0,0.0,0.0,0.0,0.0,0.0,0.0,0.0,0.0,0.0,0.0,0.0,0.0,0.0,0.0,3.0185,3.1186,3.1331,3.1346,0.0,0.0,3.1777,3.0824,3.1959,3.2225,3.0216,0.0,0.0,0.0,0.0,0.0,0.0,0.0,0.0,0.0,0.0,0.0,0.0,0.0,0.0,0.0,0.0,0.0,0.0,0.0,0.0,0.0,0.0,0.0,0.0,0.0,0.0,0.0,0.0,0.0,0.0,0.0,0.0,0.0,0.0,0.0,0.0,0.0,0.0,0.0,0.0,0.0,0.0,0.0,0.0,0.0,0.0,0.0,0.0,0.0,0.0,0.0,0.0,0.0,2.5586,2.6172,2.7453,2.7846,2.7311,2.6767,2.6499,2.6499,2.4936,2.3513,0.0,0.0,0.0,0.0,0.0,0.0,0.0,0.0,0.0,0.0,0.0,0.0,0.0,0.0,0.0,0.0,0.0,0.0,0.0,0.0,0.0,0.0,0.0,0.0,0.0,0.0,0.0,0.0,2.3053,2.3929,2.4566,0.0,0.0,0.0,0.0,0.0,0.0,0.0,0.0,0.0,0.0,3.1848,3.1878,3.22,0.0,0.0,3.2315,3.219,3.2139,3.2365,3.2254,3.1411,3.1483,0.0,0.0,0.0,0.0,0.0,0.0,0.0,0.0,0.0,0.0,0.0,0.0,0.0,0.0,0.0,0.0,0.0,0.0,0.0,0.0,0.0,0.0,0.0,0.0,0.0,0.0,0.0,0.0,0.0,0.0,0.0,0.0,0.0,0.0,0.0,0.0,0.0,0.0,0.0,0.0,0.0,0.0,0.0,0.0,0.0,0.0,0.0,0.0,0.0,0.0,0.0,0.0,2.5979,2.6734,2.7629,2.793,2.7537,2.6842,2.6499,2.6448,2.4983,2.37,0.0,0.0,0.0,0.0,0.0,0.0,0.0,0.0,0.0,0.0,0.0,0.0,0.0,0.0,0.0,0.0,0.0,0.0,0.0,0.0,0.0,0.0,0.0,0.0,0.0,0.0,0.0,0.0,2.4147,2.4916,2.5988,0.0,0.0,0.0,0.0,0.0,0.0,0.0,0.0,0.0,0.0,3.3244,3.2982,3.3319,3.3581,3.3581,3.3219,3.2982,3.309,3.2857,3.2627,3.2349,0.0,0.0,0.0,0.0,0.0,0.0,0.0,0.0,0.0,0.0,0.0,0.0,0.0,0.0,0.0,0.0,0.0,0.0,0.0,0.0,0.0,0.0,0.0,0.0,0.0,0.0,0.0,0.0,0.0,0.0,0.0,0.0,0.0,0.0,0.0,0.0,0.0,0.0,0.0,0.0,0.0,0.0,0.0,0.0,0.0,0.0,0.0,0.0,0.0,0.0,0.0,0.0,0.0,2.6163,2.7261,2.7846,2.8097,2.8037,2.7043,2.6508,2.6457,2.5207,2.4019,2.302,0.0,0.0,0.0,0.0,0.0,0.0,0.0,0.0,0.0,0.0,0.0,0.0,0.0,0.0,0.0,0.0,0.0,0.0,0.0,0.0,0.0,0.0,0.0,0.0,0.0,0.0,2.4716,2.5259,2.6013,0.0,0.0,0.0,0.0,0.0,0.0,0.0,0.0,0.0,0.0,3.3531,3.4087,3.4552,3.4653,3.4653,3.4653,3.4628,3.4262,3.3291,3.3531,3.3571,0.0,0.0,0.0,0.0,0.0,0.0,0.0,0.0,0.0,0.0,0.0,0.0,0.0,0.0,0.0,0.0,0.0,0.0,0.0,0.0,0.0,0.0,0.0,0.0,0.0,0.0,0.0,2.1789,2.1139,0.0,0.0,0.0,0.0,0.0,0.0,0.0,0.0,0.0,0.0,0.0,2.4506,2.453,0.0,0.0,0.0,0.0,0.0,0.0,0.0,0.0,0.0,0.0,0.0,0.0,2.7101,2.7821,2.8355,2.8455,2.8097,2.7403,2.686,2.6499,2.5549,2.4394,2.3026,0.0,0.0,0.0,0.0,0.0,0.0,0.0,0.0,0.0,0.0,0.0,0.0,0.0,0.0,0.0,0.0,0.0,0.0,0.0,0.0,0.0,0.0,0.0,0.0,0.0,2.5293,0.0,0.0,0.0,0.0,0.0,0.0,0.0,0.0,0.0,0.0,0.0,3.2813,3.3531,3.4413,3.5029,3.5207,3.5244,3.5244,0.0,0.0,0.0,0.0,0.0,0.0,0.0,0.0,0.0,0.0,0.0,0.0,0.0,0.0,3.8045,3.6933,3.6724,3.6713,3.6724,0.0,0.0,0.0,0.0,0.0,0.0,0.0,0.0,0.0,0.0,0.0,0.0,0.0,0.0,0.0,0.0,2.2935,0.0,0.0,0.0,0.0,0.0,0.0,0.0,0.0,2.5453,2.6063,2.6685,2.6695,2.6685,0.0,2.6493,2.5798,0.0,0.0,0.0,0.0,0.0,0.0,0.0,0.0,2.7855,2.8389,2.8932,2.8856,2.8113,2.757,2.7043,2.6516,2.5728,2.4638,2.3229,2.235,2.1333,0.0,0.0,0.0,0.0,0.0,0.0,0.0,0.0,0.0,0.0,0.0,0.0,0.0,0.0,0.0,0.0,0.0,0.0,0.0,0.0,0.0,0.0,0.0,2.6624,0.0,0.0,0.0,0.0,0.0,0.0,0.0,0.0,0.0,3.234,3.3079,3.3933,3.4661,3.5378,3.5894,3.6058,0.0,0.0,0.0,0.0,0.0,0.0,0.0,3.5798,3.643,3.6903,3.746,3.8398,3.9148,3.9905,4.0632,0.0,0.0,3.9352,3.9064,3.9064,3.909,3.9364,3.9665,3.9886,4.0226,4.0671,0.0,0.0,0.0,0.0,0.0,0.0,0.0,0.0,2.5411,2.4867,0.0,2.4401,0.0,0.0,0.0,0.0,0.0,0.0,0.0,0.0,2.8488,2.9292,2.9292,2.9268,2.9316,2.9292,2.8713,2.8473,2.8388,2.6819,0.0,0.0,0.0,0.0,0.0,0.0,2.8405,2.8922,2.9528,2.9277,2.8163,2.7604,2.7042,2.6439,2.5676,2.4717,2.3656,2.3369,2.2634,2.1383,2.0989,0.0,0.0,0.0,0.0,0.0,0.0,0.0,0.0,0.0,0.0,0.0,0.0,0.0,0.0,0.0,0.0,0.0,0.0,0.0,0.0,2.7805,0.0,0.0,0.0,0.0,0.0,0.0,0.0,0.0,0.0,0.0,3.4123,3.4488,3.5191,3.6281,0.0,0.0,0.0,0.0,3.7399,3.7889,3.799,3.7789,3.7274,3.7223,3.7333,3.7649,0.0,0.0,4.103,4.1769,4.2122,4.2213,4.2579,4.267,4.1599,4.1325,4.1285,4.1311,4.1338,4.1585,4.2081,4.2225,4.2408,2.8065,0.0,0.0,0.0,0.0,2.7565,2.7791,2.8128,2.7753,2.7214,2.6565,2.6306,0.0,0.0,0.0,0.0,0.0,0.0,2.7743,2.8609,2.91,2.9519,2.9869,2.988,2.988,2.9848,2.8999,2.8949,2.9574,2.8576,2.7835,2.7456,0.0,0.0,0.0,0.0,2.9387,2.9588,3.0071,2.981,2.8671,2.8138,2.716,2.5676,2.4859,2.472,2.5331,2.4192,2.3716,2.3989,2.2322,0.0,0.0,0.0,0.0,0.0,0.0,0.0,0.0,0.0,0.0,0.0,0.0,0.0,0.0,0.0,0.0,0.0,0.0,0.0,2.7711,2.7996,2.8423,0.0,0.0,0.0,0.0,0.0,0.0,0.0,0.0,0.0,3.6784,3.6609,3.6734,0.0,0.0,3.7588,3.7764,3.7764,3.7839,3.7952,0.0,0.0,0.0,3.8128,3.8629,3.9271,4.0223,4.1116,4.1827,4.1889,4.2041,4.2638,4.3044,4.3359,4.3636,4.3049,4.2553,4.2527,4.284,4.3193,4.3402,4.3716,4.4003,3.0024,2.8969,2.9076,2.9124,2.9124,2.9137,2.9316,2.9591,2.9268,2.8825,2.8344,2.8224,2.7565,2.6589,2.6781,0.0,0.0,0.0,2.9134,2.9917,2.9516,2.9833,3.0676,3.0321,3.0343,3.07,3.0138,3.0148,3.0722,3.0107,2.9726,2.9562,0.0,0.0,2.9895,3.0266,3.0442,3.0442,3.0557,3.0061,2.8922,2.8389,2.7444,2.6166,2.5832,2.581,2.603,2.5203,2.4771,2.4823,2.3315,2.2066,0.0,0.0,0.0,0.0,0.0,0.0,0.0,0.0,0.0,0.0,0.0,2.236,2.3278,0.0,0.0,0.0,2.6657,2.7586,2.9252,2.9594,0.0,0.0,0.0,0.0,0.0,0.0,0.0,3.5705,3.6972,3.7989,3.8303,3.8278,3.824,3.8354,3.8165,3.809,3.8316,0.0,3.8454,3.8642,3.8655,3.8668,3.8693,3.8982,3.9473,4.0286,4.1338,4.2156,4.2462,4.2534,4.2801,4.3367,4.3648,4.394,4.4588,4.412,4.3689,4.3676,4.3951,4.4212,4.4212,4.4473,4.4721,3.1417,3.0925,3.0433,3.0216,3.0216,3.0216,3.0227,3.0216,3.0168,2.9869,2.946,2.9904,2.9567,2.8657,2.9196,0.0,0.0,3.0,3.0481,3.0917,2.9999,3.0333,3.1638,3.0733,3.0801,3.1693,3.1616,3.164,3.1669,3.1276,3.125,3.1514,3.136,3.1336,3.1461,3.1472,3.1472,3.1461,3.0924,3.0076,2.8913,2.8358,2.7778,2.7181,2.7585,2.7232,2.6111,2.6142,2.5733,2.4686,2.4179,2.3302,2.1944,0.0,0.0,0.0,0.0,0.0,0.0,0.0,0.0,0.0,0.0,0.0,0.0,0.0,0.0,0.0,2.8446,0.0,3.1457,3.2079,0.0,0.0,0.0,3.5104,3.5595,3.6672,3.7399,3.7399,0.0,0.0,0.0,0.0,3.9572,3.9044,3.8479,3.8341,3.8881,3.8969,3.9132,3.9572,3.9672,3.9685,3.9609,3.9747,4.0165,4.0969,4.1934,4.2686,4.2956,4.3368,4.385,4.4164,4.4258,4.4367,4.4641,4.4643,4.4721,4.4643,4.4669,4.4695,4.4669,4.4695,4.4721,3.1645,3.1489,3.1369,3.131,3.1332,3.1321,3.1321,3.1273,3.0877,3.0625,3.0505,3.0227,2.9952,2.977,3.0275,3.0516,3.0529,3.1069,3.1393,3.1502,3.1247,3.1341,3.1695,3.145,3.145,3.1651,3.0913,3.0958,3.1627,3.0852,3.0925,3.1866,3.2419,3.2449,3.2043,3.2003,3.2003,3.2014,3.1476,3.0447,2.8954,2.8229,2.729,2.6014,2.5597,2.5684,2.6343,2.5771,2.6099,2.7401,2.6437,2.5342,2.4249,2.3414,0.0,0.0,0.0,0.0,0.0,0.0,0.0,0.0,0.0,2.4746,2.6195,0.0,2.8665,0.0,3.0038,3.1486,3.3154,3.3775,0.0,0.0,3.6281,3.6659,3.6784,3.8165,3.9094,3.9094,4.0061,4.0575,4.0174,4.0249,4.0099,3.9584,3.9383,3.9346,3.9484,3.9496,3.9559,3.9685,3.971,3.971,3.9747,4.0412,4.117,4.2059,4.2594,4.2982,4.3259,4.3236,4.3376,4.3872,4.3996,4.4162,4.46,4.4721,4.4721,4.4721,4.4721,4.4721,4.4721,4.4721,4.4721,3.1717,3.1717,3.1717,3.1717,3.1717,3.1717,3.1717,3.1682,3.1393,3.1249,3.1238,3.0925,3.0815,3.0829,3.1128,3.1238,3.1297,3.1562,3.1717,3.1684,3.1238,3.1283,3.1649,3.125,3.1391,3.2034,3.1493,3.1634,3.2348,3.1871,3.195,3.271,3.316,3.3193,3.28,3.2653,3.2591,3.2591,3.1798,3.0824,2.969,2.9257,2.8368,2.7,2.6687,2.6556,2.6596,2.6353,2.6623,2.7413,2.6745,2.5979,2.513,2.4302,2.3326,0.0,0.0,0.0,0.0,0.0,0.0,0.0,0.0,0.0,0.0,0.0,3.1094,0.0,3.2571,0.0,3.5554,3.6006,3.6722,3.8077,3.8504,3.8755,3.8981,3.9848,4.0399,4.0412,4.0951,4.1088,4.0588,4.0499,4.0312,3.9785,3.971,3.971,3.971,3.971,3.971,3.971,3.971,3.971,3.971,4.06,4.1443,4.1944,4.2569,4.307,4.3184,4.3126,4.3168,4.3584,4.3681,4.386,4.4382,4.4505,4.4532,4.472,4.493,4.4982,4.4773,4.489,4.5113,3.1887,3.1899,3.1899,3.1923,3.1899,3.1923,3.1826,3.1717,3.1717,3.1717,3.1717,3.1717,3.173,3.1802,3.1802,3.1815,3.1887,3.1899,3.1899,3.1843,3.0978,3.108,3.1854,3.1012,3.1303,3.2575,3.2587,3.2863,3.3296,3.3296,3.3389,3.355,3.3619,3.3627,3.3565,3.3389,3.3215,3.2989,3.1999,3.1235,3.0713,3.0688,3.0068,2.8782,2.8954,2.8379,2.6933,2.7328,2.7277,2.6597,2.6612,2.6342,2.5685,2.4979,2.4295,0.0,2.3339,0.0,0.0,0.0,0.0,0.0,0.0,0.0,0.0,3.1222,3.3532,3.5344,3.5166,3.587,3.8116,3.8379,3.9006,4.0399,4.0613,4.0775,4.1239,4.1378,4.1428,4.1428,4.1478,4.1327,4.0839,4.0713,4.0526,4.0099,3.9998,4.0023,3.9923,3.9823,3.971,3.971,3.9785,3.9873,3.9948,4.0738,4.1453,4.1567,4.2322,4.2975,4.3014,4.3014,4.3112,4.3337,4.3434,4.3653,4.4267,4.4442,4.4564,4.4954,4.5414,4.5505,4.506,4.5335,4.5687,3.2983,3.2983,3.2971,3.2994,3.2983,3.3007,3.25,3.1717,3.1717,3.1717,3.1717,3.1717,3.1924,3.2333,3.2357,3.2574,3.2983,3.3007,3.2983,3.3007,3.2799,3.281,3.296,3.281,3.2858,3.3151,3.3151,3.32,3.3296,3.3296,3.3319,3.3365,3.3747,3.3914,3.393,0.0,0.0,0.0,3.2164,3.1788,3.126,3.1235,3.0576,2.9221,2.9076,0.0,2.7666,2.7962,2.8231,2.8399,2.874,0.0,0.0,0.0,0.0,0.0,0.0,0.0,0.0,0.0,0.0,0.0,2.9556,3.0573,3.1879,3.277,3.3877,3.536,3.5993,3.7328,3.9781,4.0424,4.08,4.1102,4.1138,4.1188,4.1314,4.1731,4.2034,4.2034,4.2411,4.2473,4.1947,4.1884,4.1644,4.1026,4.1001,4.0988,4.0976,4.0275,3.976,3.9722,4.0086,4.035,4.035,4.1292,4.197,4.211,4.2523,4.295,4.3,4.3,4.3098,4.3376,4.3406,4.3767,4.4785,4.5053,4.5226,4.5999,4.6252,4.6133,4.5557,4.5924,4.633,3.3296,0.0,3.3296,3.3296,0.0,3.3296,3.2994,3.2478,3.2489,3.2489,3.2455,3.1895,3.2107,3.2876,3.231,3.251,3.3296,3.3296,3.3296,3.3296,3.3296,3.3296,3.3296,3.3296,3.344,3.3657,3.3669,3.3777,3.4018,3.4042,3.4054,3.4042,3.4279,3.4393,3.4391,3.4603,3.4151,3.3068,3.2767,3.2365,3.1813,3.1798,3.128,3.0223,0.0,0.0,0.0,0.0,0.0,0.0,0.0,0.0,0.0,0.0,0.0,2.7014,2.7278,2.7381,2.7272,2.8876,3.0126,3.0729,3.2869,3.4245,3.4341,3.4911,3.5765,3.6905,3.8193,3.9278,4.0074,4.1121,4.1856,4.2094,4.2144,4.2144,4.2169,4.2397,4.2601,4.2626,4.2838,4.2788,4.2274,4.2199,4.1959,4.1403,4.1289,4.1314,4.1264,4.0851,4.0512,4.0512,4.0675,4.0862,4.0964,4.1594,4.2213,4.2263,4.2637,4.295,4.3,4.3,4.312,4.3473,4.3512,4.3841,4.5054,4.5304,4.5474,4.6272,4.6722,4.6799,4.6497,4.6694,4.6877,3.3573,3.3573,3.356,3.3573,3.3549,3.356,3.356,3.356,0.0,0.0,0.0,3.2312,3.2465,3.3323,3.2429,3.2582,3.3549,3.3573,3.3573,3.3549,3.3549,3.3573,3.3573,3.3573,3.3789,3.4138,3.4126,3.4354,3.4775,3.4799,3.4799,3.4799,3.4848,3.4908,3.5004,3.49,3.4628,3.4187,3.3646,3.3144,3.2656,3.2656,3.2306,3.1603,3.1401,3.1059,3.0565,2.9609,2.9086,2.915,2.8262,2.7795,2.7955,2.7744,2.7666,2.781,2.8089,2.8278,2.8424,2.9963,3.1282,3.2188,3.534,3.6729,3.5444,3.6545,3.7465,3.7973,3.9809,4.0714,4.0101,4.1429,4.2526,4.2964,4.3,4.2975,4.2975,4.3,4.2989,4.3,4.2975,4.2838,4.2425,4.2389,4.2185,4.1742,4.1704,4.1654,4.1665,4.1464,4.1188,4.1188,4.1327,4.1466,4.1542,4.197,4.2324,4.24,4.2813,4.3126,4.314,4.3126,4.3352,4.3879,4.3742,4.4243,4.5383,4.5684,4.5811,4.6628,4.7153,4.7478,4.7478,4.7478,4.7478,3.4583,3.4583,3.4583,3.4583,3.4595,3.4583,3.4607,3.4523,3.3669,3.3296,3.3273,3.3133,3.3372,3.3898,3.3744,3.3995,3.4583,3.4583,3.4583,0.0,3.4583,3.4595,3.4583,3.4583,3.4631,3.4679,3.4703,3.4727,3.4787,3.4787,3.4799,3.4823,3.5017,3.5379,3.5771,3.5555,3.5332,3.5269,3.4753,3.4438,3.4352,3.434,3.4076,3.3516,3.3291,3.2396,3.0825,3.0831,3.0224,2.8795,2.8906,2.9052,2.9066,2.9302,2.9484,2.9531,3.0704,3.1006,3.0004,3.1052,3.169,3.1718,3.3405,3.4245,3.3795,3.6141,3.7278,3.6369,3.8487,4.0116,4.0851,4.2083,4.2889,4.2975,4.3,4.3,4.3,4.3,4.3,4.3,4.3,4.2975,4.29,4.2889,4.2889,4.2774,4.276,4.2886,4.3023,4.2206,4.1389,4.1378,4.1756,4.2034,4.2096,4.2537,4.2827,4.2889,4.3302,4.3639,4.3689,4.3689,4.389,4.4403,4.4327,4.4778,4.6009,4.6506,4.6916,4.7647,4.7937,4.8015,4.8004,4.8041,4.8068,3.4799,3.4799,3.4799,3.4799,3.4799,3.4799,3.4799,3.4751,3.4306,3.4114,3.4066,3.3516,3.367,3.4342,3.3822,3.4025,3.4799,3.4799,3.4799,3.4799,3.4799,3.4799,3.4799,3.4799,3.4967,3.5208,3.4943,3.4931,3.5196,3.4931,3.486,3.5017,3.544,3.5752,3.5966,3.6002,3.6132,3.6396,3.5292,3.4692,3.4692,3.4692,3.4577,3.4327,3.41,3.3299,3.1874,3.1191,3.0322,2.9126,2.8667,2.8624,2.9052,2.9262,2.9567,3.0015,3.0675,3.103,3.0918,3.2203,3.2945,3.2872,3.4351,3.4643,3.3145,3.6493,3.8134,3.7087,3.9603,4.1219,4.0923,4.215,4.3,4.3,4.3,4.3,4.3,4.3,4.3,4.3,4.3,4.3101,4.3402,4.3438,4.3564,4.379,4.3865,4.3966,4.4202,4.3625,4.2944,4.2733,4.2886,4.29,4.2713,4.2813,4.3115,4.3377,4.3614,4.3915,4.4127,4.4227,4.4493,4.4949,4.5034,4.5521,4.6616,4.6958,4.7421,4.7957,4.8187,4.8187,4.8213,4.8448,4.8553,3.4799,3.4799,3.4799,3.4799,3.4799,3.4799,3.4799,3.4799,3.4799,3.4799,3.4689,3.3918,3.4029,3.4677,3.3918,3.4017,3.4714,3.4799,3.4799,3.4799,3.4799,3.4799,3.4799,3.4799,3.5015,3.5328,3.4991,3.5015,3.5328,3.4991,3.492,3.5138,3.5644,3.5896,3.5908,3.6306,3.6688,3.7001,3.5892,3.534,3.5419,3.5142,3.4929,3.4792,3.4257,3.3445,3.2283,3.115,3.022,2.9505,2.8574,2.8394,2.9004,2.9146,2.9537,3.0254,3.043,3.0971,3.2014,3.3019,3.3828,3.4231,3.5203,3.5138,3.4067,3.6933,3.8495,3.7694,4.0438,4.2136,4.0861,4.1941,4.3051,4.3151,4.3176,4.3277,4.3352,4.3352,4.3338,4.3338,4.3338,4.3553,4.3865,4.3991,4.4113,4.4439,4.469,4.4805,4.4805,4.488,4.4754,4.4342,4.4066,4.374,4.3302,4.3201,4.3363,4.3765,4.3915,4.4227,4.4629,4.4805,4.5031,4.5531,4.5733,4.6108,4.6968,4.7381,4.7667,4.8108,4.8187,4.8239,4.8448,4.9076,4.9285,3.4799,3.4799,3.4799,3.4799,3.4799,3.4799,3.4799,3.4799,3.4799,3.4799,3.4762,3.4689,3.4677,3.4787,3.4665,3.4689,3.4799,3.4799,3.4799,3.4799,3.4799,3.4799,3.4823,3.4823,3.4811,3.4943,3.4895,3.4943,3.5076,3.4895,3.4847,3.4896,3.538,3.5656,3.573,3.6354,3.676,3.6848,3.6912,3.7196,3.7566,3.6389,3.5521,3.5143,3.3824,3.2425,3.1122,3.076,3.0295,2.95,2.9317,2.9297,2.9528,2.9863,3.0293,3.0815,3.1191,3.2108,3.3592,3.3275,3.3603,3.4959,3.4333,3.4421,3.5509,3.7282,3.7311,3.6347,3.9633,4.1568,3.9817,4.1596,4.3148,4.3589,4.3664,4.3901,4.4278,4.4439,4.4453,4.4439,4.4313,4.4478,4.4503,4.4579,4.4589,4.4765,4.5156,4.5397,4.5447,4.5723,4.5809,4.5347,4.492,4.4353,4.389,4.374,4.3815,4.389,4.4227,4.4729,4.5196,4.5462,4.5573,4.5933,4.6321,4.6616,4.7067,4.7655,4.8131,4.8306,4.837,4.8437,4.8986,4.9808,5.02,3.4799,3.4799,3.4799,3.4799,3.4799,3.4799,3.4799,3.4799,3.4799,3.4799,3.4799,3.4799,3.4799,3.4799,3.4799,3.4799,3.4799,3.4799,3.4799,3.4799,3.4799,3.4979,3.5256,3.528,3.5568,3.6146,3.5893,3.5917,3.6099,3.5753,3.5513,3.5502,3.5599,3.5608,3.5645,3.5926,3.6258,3.6566,3.6678,3.6998,3.7419,3.6638,3.6071,3.5817,3.4849,3.352,3.2021,3.1659,3.0937,2.9664,2.951,2.9651,2.995,3.0371,3.0932,3.1636,3.2535,3.3355,3.404,3.3974,3.4126,3.4635,3.4848,3.5248,3.5899,3.7991,3.8609,3.7783,4.0491,4.2372,4.1639,4.2375,4.3226,4.3689,4.379,4.4041,4.4514,4.4589,4.4589,4.4589,4.4589,4.478,4.5095,4.5422,4.5583,4.5608,4.5834,4.5949,4.5984,4.616,4.62,4.601,4.5733,4.5231,4.4503,4.4252,4.4403,4.4719,4.4985,4.5361,4.5788,4.6168,4.6314,4.6321,4.6745,4.7026,4.7143,4.8058,4.875,4.8777,4.9102,4.9389,4.9991,5.0472,5.0707,3.5003,3.5015,3.5027,3.5099,3.5232,3.5232,3.5244,3.5232,3.5232,3.5159,3.5015,3.5015,3.4919,3.4799,3.4799,3.4799,3.4823,3.5087,3.5232,3.5292,3.5532,3.5893,3.6242,3.6254,3.6675,3.7241,3.688,3.6786,3.7007,3.6544,3.633,3.6491,3.6444,3.6468,3.6604,3.6727,3.6912,3.7083,3.7131,3.7301,3.7447,3.7054,3.6449,3.5584,3.443,3.316,3.188,3.1702,3.1085,2.9833,2.976,3.0014,3.0547,3.0996,3.171,3.2667,3.3668,3.4432,3.477,3.5097,3.5347,3.546,3.6,3.6482,3.7293,3.8737,3.9692,4.0007,4.185,4.3128,4.2736,4.3004,4.3489,4.4141,4.4267,4.4493,4.5006,4.5081,4.5106,4.5066,4.5181,4.5206,4.5633,4.601,4.621,4.6235,4.6261,4.6311,4.6311,4.6286,4.6286,4.6311,4.6286,4.5899,4.507,4.4869,4.5095,4.5271,4.5462,4.5638,4.616,4.6501,4.6721,4.6556,4.7187,4.7567,4.7523,4.8306,4.9232,4.9416,4.974,5.0226,5.0551,5.0864,5.1152,3.558,3.558,3.5556,3.5832,3.6302,3.629,3.6314,3.6242,3.6278,3.6013,3.5604,3.558,3.5292,3.4895,3.4919,3.4811,3.4955,3.5869,3.6302,3.6374,3.7276,3.7819,3.7904,3.7891,3.7891,3.7926,3.7554,3.7176,3.6958,3.6827,3.7187,3.7919,3.8061,3.8525,3.8858,3.9228,3.941,3.8553,3.8723,3.8695,3.8031,3.7895,3.6451,3.3993,3.1733,3.0777,3.0145,3.0218,3.0322,3.0204,3.0229,3.0586,3.1352,3.191,3.2761,3.388,3.4414,3.5239,3.6292,3.6474,3.7037,3.8165,3.7227,3.773,3.9798,3.949,4.001,4.21,4.3081,4.3291,4.2588,4.3251,4.4177,4.5135,4.5361,4.5573,4.6085,4.611,4.621,4.6135,4.606,4.606,4.621,4.6286,4.6336,4.6326,4.6311,4.6311,4.6311,4.6311,4.6311,4.6311,4.6261,4.6125,4.5587,4.5462,4.5487,4.5612,4.5738,4.5713,4.6024,4.6356,4.6521,4.6786,4.7255,4.7622,4.7829,4.8414,4.9341,4.9845,5.0368,5.0812,5.0969,5.1282,5.1507,3.6109,3.6109,3.6109,3.623,3.6386,3.6411,3.6411,3.6411,3.6411,3.6314,3.6133,3.6109,3.5989,3.5808,3.5821,3.5629,3.546,3.6771,3.7252,3.7036,3.7674,3.8179,3.8489,3.8503,3.8527,3.8513,3.8671,3.8495,3.8069,3.7746,3.7702,3.7976,3.8129,3.8292,3.8487,3.8657,3.8591,3.8351,3.8427,3.831,3.7995,3.7324,3.6335,3.5277,3.4881,3.4409,3.384,3.2912,3.2211,3.182,3.1602,3.1616,3.2027,3.3141,3.4118,3.4844,3.5312,3.5846,3.6403,3.6149,3.655,3.7868,3.7206,3.7952,4.0321,4.0496,4.1017,4.316,4.3715,4.3779,4.4196,4.4311,4.4644,4.5296,4.5512,4.5723,4.6225,4.6587,4.6672,4.6386,4.6311,4.6311,4.6436,4.6597,4.6647,4.6411,4.6587,4.6612,4.6386,4.6311,4.6311,4.6311,4.6286,4.625,4.61,4.6024,4.6024,4.6024,4.6075,4.6075,4.6261,4.6466,4.6671,4.713,4.7541,4.8167,4.8591,4.9347,5.0128,5.0681,5.1178,5.1167,5.1324,5.1481,5.157,3.6651,3.6651,3.6651,3.6771,3.6928,3.6916,3.6928,3.6916,3.6916,3.6819,3.6699,3.6638,3.6579,3.6507,3.6771,3.6614,3.6278,3.7434,3.7795,3.7554,3.8203,3.8719,3.8994,3.9066,3.9042,3.9066,3.9235,3.9107,3.8696,3.8299,3.8293,3.8544,3.8701,3.8908,3.9054,3.921,3.9231,3.8981,3.8905,3.8744,3.8268,3.7746,3.7153,3.6911,3.7527,3.7006,3.5199,3.3817,3.2961,3.2586,3.244,3.2589,3.3082,3.4235,3.5117,3.5547,3.5823,3.6169,3.6448,3.6362,3.6814,3.7922,3.7994,3.9011,4.1431,4.1476,4.2462,4.3937,4.4529,4.4719,4.5236,4.5282,4.5332,4.5673,4.5748,4.5914,4.6261,4.6612,4.6712,4.6662,4.6788,4.6838,4.6838,4.7139,4.7164,4.6838,4.7023,4.6898,4.6637,4.6386,4.6311,4.6311,4.6311,4.6286,4.6286,4.6376,4.6286,4.6276,4.6351,4.6361,4.6431,4.6617,4.7009,4.7469,4.8128,4.8861,4.9601,5.0334,5.0922,5.1492,5.1518,5.1439,5.1518,5.157,5.1596,3.7217,3.7217,3.7204,3.7458,3.7819,3.7843,3.7939,3.7867,3.7891,3.7602,3.7241,3.7193,3.6964,3.6747,3.7434,3.7626,3.7337,3.7746,3.8011,3.8083,3.9008,3.9489,3.9537,3.9513,3.9547,3.9585,3.9077,3.8755,3.8631,3.862,3.8947,3.9643,4.0104,4.0465,4.118,4.1363,4.139,4.0765,4.0536,4.0075,3.907,3.9259,3.8937,3.8049,3.875,3.733,3.3294,3.2766,3.2734,3.2627,3.2756,3.3434,3.4473,3.5098,3.553,3.5879,3.6013,3.6214,3.6586,3.738,3.8036,3.8921,3.9711,4.0643,4.2407,4.2704,4.3212,4.4552,4.5106,4.5462,4.5587,4.5899,4.6175,4.6301,4.621,4.6235,4.6286,4.6311,4.6537,4.7089,4.7475,4.7857,4.7883,4.7883,4.7817,4.7666,4.7516,4.7249,4.7099,4.6722,4.6386,4.6336,4.6336,4.6311,4.6486,4.6662,4.6562,4.6486,4.6562,4.6612,4.6657,4.6809,4.742,4.7978,4.8901,4.9623,5.031,5.0964,5.1069,5.1465,5.1518,5.1596,5.1596,5.1596,5.1596,3.7746,3.7746,3.7746,3.7856,3.7987,3.8,3.8,3.8,3.8,3.7904,3.777,3.7746,3.765,3.7578,3.788,3.7891,3.777,3.7952,3.8203,3.8647,3.9259,3.9609,3.9633,3.9609,3.9788,4.0004,3.9609,3.9506,3.972,3.9747,3.9947,4.0259,4.0722,4.1062,4.1245,4.1386,4.1305,4.1127,4.1065,4.0839,4.0489,4.0595,4.031,3.9552,3.8611,3.7045,3.5443,3.5236,3.5353,3.5564,3.4689,3.457,3.5354,3.5452,3.5605,3.602,3.6677,3.696,3.6998,3.7637,3.8814,3.993,3.9718,4.0999,4.3783,4.3504,4.38,4.534,4.5648,4.5612,4.5999,4.62,4.6336,4.6311,4.6311,4.6311,4.6386,4.6637,4.729,4.8049,4.8058,4.7933,4.8008,4.8209,4.8375,4.8083,4.8083,4.8124,4.7707,4.7214,4.6873,4.6848,4.6597,4.6411,4.6562,4.6813,4.6863,4.6838,4.6888,4.6838,4.6884,4.7268,4.7866,4.8646,4.9558,5.0291,5.1007,5.1335,5.1413,5.1465,5.157,5.1596,5.1596,5.1596,5.1596,3.8,3.8,3.8,3.8,3.8,3.8,3.804,3.8133,3.8133,3.8185,3.8265,3.8172,3.8157,3.8119,3.804,3.8131,3.8276,3.8286,3.8695,3.9235,3.9235,3.9499,3.9874,4.0114,4.0345,4.0585,4.0355,4.0355,4.0667,4.0691,4.0705,4.0778,4.1235,4.1514,4.1538,4.1706,4.1716,4.1548,4.149,4.1379,4.112,4.0673,4.01,3.9365,3.8171,3.7334,3.6933,3.7277,3.7167,3.6503,3.58,3.5838,3.5983,3.6062,3.635,3.6864,3.7054,3.7326,3.7947,3.835,3.9088,4.0412,4.0536,4.1568,4.4296,4.4142,4.5011,4.617,4.6336,4.6311,4.6803,4.6888,4.6903,4.6903,4.6512,4.6436,4.6587,4.7089,4.7757,4.8451,4.8652,4.8535,4.8636,4.8761,4.8978,4.8661,4.8677,4.8743,4.8209,4.7741,4.749,4.7265,4.7139,4.6913,4.6712,4.6888,4.7179,4.7214,4.7239,4.7139,4.7054,4.7748,4.8426,4.9333,5.0255,5.0674,5.1282,5.1465,5.157,5.1596,5.1596,5.1596,5.1596,5.1596,5.1596,3.8024,3.7987,3.8013,3.8027,3.804,3.804,3.8207,3.8441,3.85,3.8655,3.8789,3.8801,3.8651,3.8527,3.8491,3.864,3.8846,3.9082,3.9568,3.9989,3.9782,3.9768,4.0417,4.0922,4.1177,4.1211,4.1302,4.1326,4.1466,4.1485,4.134,4.1533,4.1905,4.2073,4.215,4.2554,4.2452,4.2091,4.2043,4.1803,4.136,4.0261,3.9308,3.8643,3.8402,3.8133,3.8082,3.8438,3.7666,3.5574,3.6567,3.6861,3.636,3.6802,3.7522,3.8183,3.7364,3.8129,3.9221,3.9888,4.0176,4.1103,4.2588,4.4035,4.4803,4.5774,4.6365,4.7058,4.7099,4.7274,4.7666,4.7782,4.7782,4.7757,4.7064,4.6813,4.7174,4.7666,4.8234,4.8802,4.928,4.9565,4.9439,4.949,4.949,4.9414,4.9129,4.8928,4.8752,4.8335,4.7807,4.7657,4.7657,4.7415,4.7189,4.734,4.7581,4.7581,4.7666,4.7732,4.7749,4.8438,4.9234,5.0157,5.069,5.1111,5.1387,5.1518,5.1596,5.1596,5.1596,5.1596,5.1596,5.1596,5.1596,3.8372,3.8038,3.8199,3.8289,3.8278,3.8302,3.8584,3.8989,3.9212,3.9444,3.9677,4.0029,4.0006,3.9937,3.9848,3.9943,4.0133,4.0465,4.0709,4.1052,4.1261,4.1053,4.1128,4.1538,4.1841,4.1904,4.2393,4.2656,4.2695,4.2842,4.2974,4.3032,4.287,4.2884,4.2908,4.2884,4.2732,4.2612,4.2573,4.2539,4.2345,4.1962,4.1727,4.1509,4.0762,4.0211,3.9697,3.8473,3.7638,3.7008,3.7674,3.7517,3.6262,3.6797,3.7595,3.8371,3.9706,4.0332,4.0563,4.1994,4.3207,4.3756,4.4325,4.5381,4.6842,4.7224,4.7541,4.7691,4.7691,4.7757,4.7908,4.7958,4.7958,4.7883,4.7666,4.7682,4.8134,4.8476,4.8777,4.9305,4.949,4.9565,4.959,4.959,4.959,4.9565,4.9464,4.933,4.9179,4.8928,4.8385,4.8259,4.8184,4.7933,4.7767,4.7908,4.7983,4.7933,4.8149,4.8548,4.8813,4.939,5.0243,5.1122,5.1137,5.1424,5.1492,5.1596,5.1596,5.1596,5.1596,5.1596,5.1596,5.1596,5.1596,3.9193,3.9064,3.9211,3.9278,3.9278,3.9278,3.9663,4.0158,4.0158,4.046,4.0838,4.0818,4.0922,4.0975,4.0879,4.1095,4.1527,4.1847,4.2089,4.2328,4.2454,4.2417,4.2428,4.2812,4.3078,4.3186,4.3632,4.3747,4.3696,4.3877,4.3928,4.3877,4.3772,4.3741,4.3871,4.359,4.3379,4.3301,4.3177,4.3102,4.3087,4.2505,4.2308,4.2134,4.1414,4.062,4.0123,3.9151,3.8333,3.7872,3.7835,3.7567,3.6924,3.7317,3.8386,3.9837,4.1247,4.1827,4.2873,4.4281,4.5103,4.5507,4.5855,4.6763,4.7605,4.7908,4.7933,4.825,4.8275,4.84,4.8586,4.8611,4.8611,4.8661,4.8611,4.8677,4.8818,4.8768,4.9053,4.9414,4.959,4.959,4.959,4.959,4.959,4.959,4.959,4.954,4.9515,4.928,4.9003,4.8802,4.8777,4.8611,4.846,4.856,4.8661,4.8611,4.8705,4.9115,4.96,5.012,5.0687,5.1294,5.1502,5.1596,5.1596,5.1596,5.1596,5.1596,5.1596,5.1596,5.1596,5.1596,5.1596,4.0269,4.0493,4.052,4.0534,4.0485,4.0548,4.084,4.1464,4.1183,4.1422,4.1888,4.1441,4.1566,4.182,4.1668,4.2009,4.2823,4.2856,4.3193,4.3318,4.331,4.3149,4.3476,4.3703,4.4024,4.4278,4.4643,4.4558,4.4375,4.4359,4.4436,4.4462,4.4427,4.4484,4.4493,4.435,4.4212,4.3962,4.3784,4.3708,4.3562,4.2841,4.247,4.2278,4.1011,4.0626,4.0578,4.03,3.978,3.8313,3.7777,3.7772,3.7943,3.8303,4.0068,4.2221,4.2566,4.351,4.5315,4.5926,4.6278,4.6541,4.7388,4.8043,4.8184,4.8269,4.8435,4.8827,4.8894,4.9053,4.9339,4.9515,4.9464,4.9389,4.949,4.933,4.9019,4.8894,4.9095,4.9506,4.959,4.959,4.959,4.959,4.959,4.959,4.959,4.959,4.959,4.9464,4.9238,4.9028,4.9129,4.9339,4.9254,4.9229,4.9314,4.9339,4.9407,4.9719,5.0124,5.06,5.0948,5.1314,5.1518,5.1596,5.1596,5.1596,5.1596,5.1596,5.1596,5.1596,5.1596,5.1596,5.1596,4.0829,4.0507,4.0722,4.0817,4.083,4.083,4.118,4.1729,4.1829,4.2078,4.2431,4.2651,4.2703,4.2713,4.2604,4.2779,4.3087,4.3412,4.3705,4.3665,4.3273,4.3355,4.3603,4.3654,4.3663,4.3962,4.4225,4.4477,4.4683,4.4656,4.5019,4.5232,4.474,4.4708,4.4739,4.4442,4.4283,4.4262,4.4376,4.4371,4.4327,4.3923,4.3542,4.3366,4.1875,4.1814,4.247,4.1707,4.0919,4.0634,4.0018,3.9124,3.869,4.0121,4.1784,4.3068,4.4976,4.6092,4.6608,4.747,4.8149,4.8085,4.8367,4.8802,4.9213,4.9188,4.9264,4.9414,4.9439,4.9439,4.9565,4.959,4.959,4.959,4.959,4.954,4.9455,4.9389,4.9464,4.954,4.959,4.959,4.959,4.959,4.959,4.959,4.959,4.959,4.959,4.959,4.9464,4.9238,4.9339,4.949,4.9464,4.9414,4.949,4.9687,4.9847,5.004,5.0471,5.0873,5.1204,5.1408,5.1549,5.1596,5.1596,5.1596,5.1596,5.1596,5.1596,5.1596,5.1596,5.1596,5.1727,4.1778,4.1696,4.1808,4.1888,4.1902,4.1902,4.2188,4.2585,4.2544,4.2757,4.3045,4.3184,4.3247,4.3363,4.3377,4.3463,4.3689,4.374,4.379,4.3633,4.3147,4.3022,4.3278,4.315,4.3114,4.36,4.3679,4.389,4.3973,4.4151,4.4199,4.4574,4.4383,4.4526,4.4718,4.4333,4.4284,4.4427,4.4208,4.4102,4.421,4.3999,4.4248,4.4316,4.35,4.3485,4.3985,4.2372,4.1417,4.1118,4.105,4.077,4.0121,4.1167,4.2605,4.4858,4.6123,4.7724,4.8101,4.8673,4.9147,4.9204,4.9364,4.9506,4.969,4.9791,4.9816,4.9665,4.959,4.959,4.959,4.959,4.959,4.959,4.959,4.959,4.959,4.959,4.959,4.959,4.959,4.959,4.959,4.959,4.959,4.959,4.959,4.959,4.959,4.959,4.959,4.949,4.954,4.959,4.959,4.9565,4.954,4.9767,5.0024,5.0232,5.0525,5.0968,5.1393,5.1502,5.1596,5.1596,5.1596,5.1596,5.1622,5.1622,5.1622,5.1622,5.1701,5.191,5.204,4.2737,4.3,4.3,4.3,4.3,4.2975,4.3162,4.3489,4.3201,4.3145,4.3539,4.3176,4.3223,4.3553,4.3603,4.394,4.4066,4.389,4.3578,4.346,4.3004,4.2882,4.2975,4.2821,4.2821,4.3442,4.3329,4.3169,4.3227,4.3153,4.359,4.3482,4.3595,4.4067,4.4447,4.4176,4.4003,4.4427,4.3973,4.3629,4.3811,4.3659,4.4141,4.4843,4.4688,4.4453,4.4269,4.3067,4.183,4.1094,4.1749,4.2513,4.2958,4.2842,4.3467,4.7291,4.7793,4.8616,4.9486,4.9851,4.9933,4.9866,5.0101,5.0126,4.995,4.9941,4.9875,4.9741,4.959,4.959,4.959,4.959,4.959,4.959,4.959,4.959,4.959,4.959,4.959,4.959,4.959,4.959,4.959,4.959,4.959,4.959,4.959,4.959,4.959,4.9615,4.964,4.959,4.959,4.959,4.959,4.959,4.959,4.9719,5.0056,5.0337,5.0534,5.0794,5.1157,5.1502,5.1596,5.1596,5.1596,5.1596,5.1622,5.1622,5.1701,5.1753,5.1962,5.2223,5.2422,4.2958,4.3,4.3,4.3,4.3,4.3,4.3065,4.3115,4.3051,4.3051,4.3126,4.3065,4.3065,4.3151,4.3126,4.3212,4.3352,4.3277,4.3201,4.3201,4.2928,4.2958,4.2916,4.2734,4.2658,4.2712,4.29,4.3191,4.335,4.3463,4.3366,4.382,4.3767,4.385,4.3979,4.3772,4.3806,4.4255,4.3993,4.385,4.3929,4.4338,4.4863,4.5663,4.5321,4.4947,4.4666,4.4037,4.3418,4.327,4.3841,4.5238,4.6368,4.6388,4.7022,4.8081,4.9207,5.0016,5.067,5.0912,5.0987,5.0937,5.067,5.0402,5.0193,4.9967,4.9825,4.9674,4.959,4.959,4.959,4.959,4.959,4.959,4.959,4.959,4.959,4.959,4.959,4.959,4.959,4.959,4.959,4.959,4.959,4.959,4.959,4.959,4.959,4.964,4.9674,4.964,4.959,4.959,4.959,4.959,4.959,4.9638,4.9921,5.0292,5.0474,5.0598,5.0883,5.1689,5.1805,5.1596,5.1596,5.1622,5.1831,5.2014,5.1988,5.1936,5.2406,5.2841,5.2929,4.3251,4.3,4.3,4.3,4.3,4.3,4.3,4.3,4.3,4.3,4.3,4.3,4.3,4.3,4.3,4.3,4.3,4.3,4.3,4.3,4.3,4.3,4.3,4.2832,4.2765,4.2804,4.2941,4.2918,4.2925,4.2907,4.312,4.3208,4.3304,4.3596,4.391,4.3734,4.3996,4.4293,4.4244,4.4259,4.4645,4.5389,4.6185,4.651,4.6372,4.6092,4.5884,4.5075,4.468,4.4784,4.5609,4.6884,4.8079,4.9061,4.9494,4.9857,5.0464,5.0971,5.1239,5.1289,5.1138,5.0845,5.0779,5.0544,5.0218,4.9967,4.9866,4.9665,4.959,4.959,4.959,4.9615,4.959,4.959,4.964,4.9665,4.964,4.964,4.969,4.9741,4.969,4.969,4.959,4.959,4.959,4.959,4.9615,4.964,4.9665,4.9866,5.0017,5.0042,5.0017,4.9941,4.9916,4.9866,4.9866,4.989,5.0026,5.0399,5.0829,5.1145,5.1771,5.2572,5.2354,5.1884,5.1648,5.1675,5.2014,5.2354,5.2328,5.2459,5.3008,5.3416,5.3504,4.3653,4.3165,4.3151,4.3115,4.3014,4.3,4.3,4.3,4.3,4.3,4.3,4.3,4.3,4.3,4.3,4.3,4.3,4.3,4.3,4.3,4.3,4.3,4.3,4.3,4.2972,4.2944,4.2972,4.2762,4.2651,4.279,4.2807,4.3116,4.3217,4.3678,4.4252,4.3974,4.4519,4.4786,4.4694,4.4704,4.5765,4.6592,4.7319,4.7817,4.7636,4.7354,4.6889,4.6155,4.5912,4.6311,4.7179,4.8294,4.9223,5.0604,5.1406,5.1423,5.1348,5.1364,5.144,5.1314,5.1138,5.0845,5.0946,5.0544,5.0218,5.0126,5.0201,4.9866,4.9791,4.9715,4.9665,4.9699,4.975,4.9866,5.0017,5.0117,5.0167,5.0218,5.0334,5.0218,4.9967,4.9816,4.9766,4.9841,4.9891,4.9766,4.9766,4.9941,5.0042,5.0444,5.0594,5.0594,5.0544,5.0393,5.0343,5.0309,5.0334,5.0385,5.0597,5.0925,5.1439,5.1946,5.2585,5.3068,5.2798,5.2354,5.204,5.2014,5.2589,5.2903,5.2772,5.306,5.3818,5.4001,5.4001,4.4202,4.3714,4.3689,4.3452,4.3051,4.3025,4.3,4.3,4.3,4.3,4.3,4.3,4.3,4.3,4.3,4.3,4.3,4.3,4.3,4.3,4.3,4.3025,4.3051,4.3,4.3251,4.3377,4.3277,4.2986,4.3133,4.3511,4.3568,4.3633,4.4044,4.4514,4.474,4.4644,4.4826,4.5407,4.5408,4.5819,4.6677,4.6865,4.7286,4.7679,4.7802,4.7534,4.711,4.6753,4.7072,4.7957,4.862,4.9886,5.1327,5.1798,5.1983,5.1875,5.1649,5.1498,5.1724,5.154,5.1214,5.0921,5.0795,5.0477,5.0327,5.0368,5.0469,5.0368,5.0318,5.0167,4.9967,5.0117,5.0226,5.0603,5.0971,5.1122,5.1122,5.0971,5.1063,5.0937,5.0761,5.0268,4.9992,5.0117,5.0193,5.0042,4.9967,5.0193,5.0469,5.0896,5.1188,5.1172,5.1122,5.0996,5.0761,5.0711,5.0736,5.0837,5.1175,5.1472,5.206,5.2572,5.2867,5.3173,5.3042,5.3164,5.3138,5.3243,5.3478,5.3452,5.3373,5.3949,5.4733,5.4733,5.4481,4.5056,4.4252,4.4252,4.3926,4.3478,4.3438,4.3277,4.3025,4.3,4.3,4.3,4.3,4.3,4.3,4.3,4.3,4.3,4.3025,4.3,4.3025,4.3051,4.3176,4.3503,4.379,4.4016,4.4331,4.4708,4.502,4.4744,4.4091,4.379,4.4016,4.4719,4.5296,4.5528,4.565,4.6185,4.6692,4.6903,4.7089,4.7409,4.7473,4.7517,4.7892,4.7908,4.7592,4.7459,4.8028,4.8541,4.938,5.016,5.1132,5.1856,5.2059,5.2,5.1574,5.1096,5.1071,5.1473,5.1389,5.1122,5.0845,5.0553,5.0402,5.0452,5.0745,5.0937,5.0937,5.0896,5.077,5.0661,5.077,5.0845,5.1197,5.19,5.1724,5.1766,5.1875,5.1825,5.1691,5.1515,5.1122,5.0795,5.0896,5.0946,5.067,5.067,5.0845,5.1096,5.1423,5.1624,5.1749,5.1674,5.1599,5.1314,5.1113,5.113,5.1305,5.1726,5.2101,5.2681,5.3148,5.348,5.3928,5.4223,5.4288,5.4288,5.3975,5.3739,5.3844,5.4001,5.4602,5.5125,5.5099,5.4942,4.5784,4.5031,4.488,4.4428,4.3815,4.379,4.3489,4.3025,4.3,4.3,4.3,4.3,4.3,4.3051,4.3151,4.3277,4.3226,4.3341,4.3277,4.3251,4.3352,4.3564,4.389,4.4353,4.502,4.5537,4.5748,4.5984,4.5784,4.5382,4.4855,4.4679,4.5799,4.6301,4.6626,4.682,4.718,4.7616,4.7732,4.7782,4.7842,4.7691,4.7726,4.7792,4.7808,4.7855,4.8314,4.905,4.9826,5.0644,5.1297,5.1882,5.1875,5.1582,5.1398,5.1071,5.0653,5.0653,5.087,5.0862,5.0711,5.0569,5.0653,5.0829,5.123,5.1473,5.1841,5.1992,5.2,5.19,5.1749,5.1825,5.2026,5.2302,5.2703,5.2369,5.2193,5.2645,5.2703,5.2352,5.2251,5.2226,5.2,5.1942,5.1766,5.1389,5.1389,5.154,5.1749,5.2026,5.2126,5.2234,5.2234,5.2159,5.2026,5.1791,5.1708,5.1816,5.2266,5.2776,5.3376,5.3832,5.4192,5.4662,5.5056,5.4968,5.468,5.4288,5.3975,5.4445,5.4863,5.502,5.5308,5.536,5.5491,4.6261,4.6135,4.5648,4.4834,4.3865,4.3801,4.3528,4.3151,4.3076,4.3076,4.309,4.3051,4.3126,4.3151,4.3514,4.374,4.3765,4.4267,4.4141,4.4052,4.4202,4.4278,4.4618,4.5146,4.5663,4.5849,4.6527,4.6687,4.6486,4.6863,4.6712,4.6963,4.7104,4.7516,4.7626,4.7513,4.7648,4.7883,4.7832,4.7792,4.7707,4.7541,4.7465,4.7716,4.7641,4.8065,4.9988,5.0278,5.0662,5.1519,5.1823,5.1724,5.1373,5.1005,5.0745,5.0603,5.0503,5.0553,5.077,5.0544,5.0167,5.0427,5.1046,5.1724,5.2209,5.2611,5.2988,5.3306,5.3231,5.313,5.308,5.3163,5.3231,5.3432,5.3658,5.3683,5.3625,5.3876,5.3826,5.3188,5.2912,5.2829,5.2686,5.2528,5.2277,5.1925,5.195,5.2101,5.2335,5.2561,5.2644,5.2719,5.2744,5.2744,5.277,5.2586,5.2386,5.2556,5.2953,5.3502,5.4086,5.4457,5.4706,5.4851,5.5099,5.5099,5.5125,5.4916,5.4916,5.536,5.5674,5.5778,5.5944,5.6127,5.6284,4.6311,4.6261,4.6075,4.5547,4.4834,4.4859,4.4518,4.4041,4.3991,4.3779,4.3528,4.3815,4.379,4.3714,4.4016,4.4303,4.4303,4.4478,4.4654,4.4869,4.5045,4.5382,4.5849,4.6451,4.717,4.7471,4.7983,4.8319,4.8435,4.8043,4.8083,4.8159,4.7933,4.7616,4.7591,4.7741,4.7883,4.7807,4.7616,4.744,4.7365,4.7299,4.735,4.7817,4.8636,4.9138,5.026,5.077,5.1172,5.1473,5.1574,5.1264,5.0887,5.0494,5.0402,5.0402,5.0427,5.0779,5.123,5.0971,5.077,5.1122,5.2,5.2854,5.3163,5.3507,5.3926,5.4177,5.4278,5.4135,5.4077,5.4102,5.4228,5.4454,5.4561,5.468,5.4629,5.4604,5.4378,5.3507,5.3356,5.3331,5.3138,5.2988,5.2711,5.246,5.2561,5.2661,5.2795,5.292,5.2945,5.2945,5.2945,5.297,5.2995,5.298,5.2989,5.3256,5.3546,5.3929,5.4326,5.4755,5.498,5.5082,5.5177,5.5282,5.5412,5.5543,5.5752,5.6013,5.6223,5.6388,5.6597,5.6859,5.6989,4.6311,4.6311,4.6311,4.5999,4.5537,4.5512,4.5171,4.4679,4.4564,4.4428,4.4066,4.4428,4.4428,4.4278,4.4604,4.4855,4.5006,4.5242,4.5522,4.5799,4.615,4.6537,4.7164,4.7732,4.82,4.8853,4.9079,4.9204,4.9038,4.8752,4.8309,4.8008,4.7908,4.7516,4.7566,4.7516,4.7741,4.7757,4.7591,4.749,4.7591,4.7666,4.7917,4.8385,4.8978,4.954,5.0218,5.0695,5.0887,5.0996,5.0946,5.072,5.0393,5.0193,5.0252,5.0402,5.0695,5.1197,5.19,5.2226,5.2017,5.2302,5.3148,5.3658,5.3934,5.4403,5.478,5.5107,5.5107,5.4981,5.4881,5.483,5.4655,5.468,5.468,5.473,5.4386,5.426,5.4084,5.3708,5.3783,5.3926,5.3851,5.3632,5.3188,5.2887,5.2737,5.277,5.282,5.2945,5.3063,5.3063,5.302,5.3088,5.3113,5.3055,5.3048,5.3358,5.3648,5.3963,5.4368,5.4814,5.5091,5.5125,5.5255,5.5491,5.5804,5.6144,5.6344,5.6527,5.6824,5.7225,5.7163,5.7399,5.7512,4.6311,4.6311,4.6311,4.5999,4.5587,4.5497,4.5221,4.4815,4.474,4.4665,4.4614,4.4715,4.4704,4.4754,4.5196,4.5497,4.5748,4.6361,4.6712,4.6702,4.7104,4.739,4.7716,4.8209,4.8652,4.8752,4.8802,4.8802,4.8777,4.8209,4.7716,4.745,4.735,4.7375,4.7726,4.735,4.7415,4.7832,4.7832,4.8083,4.8309,4.8435,4.8802,4.9154,4.9254,4.9715,5.0268,5.0645,5.0745,5.0603,5.0578,5.0327,4.9967,4.9866,5.0076,5.0553,5.1046,5.18,5.2787,5.3331,5.3557,5.3557,5.4228,5.468,5.5089,5.5365,5.5408,5.5534,5.5709,5.5591,5.5491,5.5257,5.4931,5.478,5.4773,5.4697,5.4378,5.4386,5.4336,5.4202,5.4378,5.4572,5.4522,5.4346,5.3758,5.3356,5.3038,5.292,5.2995,5.3096,5.3264,5.3507,5.3515,5.3389,5.3389,5.3113,5.3108,5.3418,5.3725,5.4047,5.4454,5.4961,5.5146,5.5186,5.5569,5.604,5.6458,5.6841,5.7102,5.739,5.7843,5.8139,5.8017,5.7913,5.8026,4.6311,4.6311,4.6311,4.6185,4.605,4.601,4.5884,4.5759,4.5708,4.5508,4.5307,4.5533,4.5482,4.5457,4.5759,4.6185,4.6537,4.6326,4.6652,4.7948,4.8008,4.8344,4.8586,4.8626,4.8777,4.8677,4.8501,4.8209,4.8184,4.7641,4.735,4.7108,4.7058,4.7214,4.729,4.7174,4.735,4.7807,4.7908,4.8008,4.8259,4.8652,4.9104,4.9615,4.969,4.9967,5.0377,5.067,5.072,5.0503,5.0477,5.0352,5.0167,5.0126,5.0569,5.123,5.185,5.2545,5.3826,5.468,5.4938,5.4881,5.5056,5.5483,5.5465,5.539,5.5516,5.5534,5.5408,5.5157,5.4856,5.4805,5.4629,5.4672,5.4647,5.4622,5.4529,5.483,5.4931,5.473,5.4798,5.4529,5.4403,5.4655,5.4285,5.3858,5.3532,5.3389,5.3389,5.3515,5.3683,5.4077,5.4177,5.3934,5.3708,5.3339,5.3217,5.3476,5.3785,5.4089,5.4547,5.5178,5.5494,5.5709,5.617,5.6641,5.7085,5.7547,5.7965,5.834,5.847,5.8653,5.8619,5.8514,5.8523,4.6311,4.6311,4.6311,4.6311,4.6311,4.6311,4.6311,4.6311,4.6286,4.61,4.5899,4.615,4.6125,4.5984,4.6336,4.6672,4.7074,4.7039,4.7346,4.8667,4.8426,4.8636,4.8903,4.8953,4.8652,4.8426,4.7983,4.7641,4.7591,4.7089,4.6823,4.6823,4.7008,4.7249,4.7365,4.749,4.7691,4.8184,4.846,4.8761,4.8987,4.9264,4.9581,4.9841,5.0017,5.0176,5.0427,5.0678,5.0946,5.0728,5.0703,5.072,5.0703,5.0845,5.1197,5.185,5.2846,5.3549,5.473,5.5541,5.5616,5.534,5.5892,5.5867,5.5541,5.539,5.5232,5.5082,5.4748,5.4504,5.4353,5.4353,5.4353,5.4328,5.4378,5.4353,5.4647,5.4931,5.5132,5.4981,5.5031,5.4687,5.4461,5.4662,5.4762,5.4386,5.4009,5.3884,5.3758,5.3758,5.3926,5.4303,5.4454,5.4127,5.3808,5.3507,5.3427,5.3533,5.3912,5.4321,5.5039,5.5701,5.5992,5.6301,5.6745,5.7259,5.7765,5.8209,5.834,5.8444,5.8479,5.8732,5.9037,5.8959,5.8732,4.6311,4.6311,4.6311,4.6311,4.6311,4.6311,4.6311,4.6311,4.6311,4.6301,4.6286,4.6261,4.6235,4.6361,4.6813,4.7023,4.7124,4.7506,4.8024,4.8501,4.8451,4.8702,4.8677,4.8601,4.8234,4.7792,4.739,4.7074,4.7023,4.6848,4.6587,4.6637,4.7189,4.7566,4.7842,4.8093,4.836,4.8786,4.9088,4.9389,4.964,4.9975,4.9992,5.0067,5.0017,5.0126,5.0377,5.0678,5.0996,5.1122,5.1314,5.1314,5.1314,5.1314,5.1649,5.2402,5.3743,5.4705,5.5232,5.5892,5.6018,5.5767,5.5949,5.5842,5.5516,5.5189,5.4813,5.4604,5.4303,5.4077,5.3884,5.3858,5.3858,5.3909,5.3959,5.416,5.4547,5.4823,5.5031,5.5157,5.5365,5.529,5.5164,5.5265,5.5114,5.4737,5.4353,5.4102,5.3934,5.3733,5.3951,5.4371,5.4421,5.4177,5.3901,5.3607,5.3688,5.3778,5.4336,5.4817,5.5555,5.6228,5.6608,5.6972,5.739,5.7808,5.8157,5.8348,5.8453,5.8505,5.8505,5.8732,5.9037,5.8784,5.8557,4.6311,4.6311,4.6311,4.6311,4.6311,4.6311,4.6311,4.6311,4.6311,4.6311,4.6311,4.6311,4.6311,4.6336,4.6476,4.6813,4.7064,4.7315,4.7666,4.7983,4.8184,4.8159,4.8058,4.7857,4.7541,4.7239,4.6873,4.6622,4.6687,4.6612,4.6873,4.6998,4.7732,4.825,4.8535,4.8887,4.9129,4.9305,4.9515,4.969,4.9841,4.99,4.9916,4.9916,5.0117,5.0252,5.0528,5.1205,5.1599,5.18,5.1875,5.1875,5.1875,5.19,5.2201,5.3306,5.4612,5.5717,5.5566,5.5892,5.6018,5.5691,5.5591,5.5609,5.5257,5.4737,5.4235,5.4009,5.3884,5.3683,5.3758,5.3833,5.4009,5.4235,5.431,5.4511,5.4856,5.5107,5.5333,5.544,5.5666,5.5717,5.5641,5.5534,5.534,5.4988,5.4687,5.4429,5.4127,5.3926,5.3976,5.4421,5.4522,5.4328,5.4052,5.3758,5.39,5.4083,5.4728,5.5365,5.6054,5.6669,5.7199,5.7617,5.7861,5.8131,5.84,5.8505,5.8505,5.8505,5.8531,5.8758,5.8889,5.8679,5.8583,4.6311,4.6311,4.6311,4.6311,4.6311,4.6311,4.6311,4.6311,4.6311,4.6311,4.6311,4.6311,4.6411,4.6687,4.6888,4.7164,4.7425,4.7516,4.7716,4.7817,4.7691,4.7616,4.744,4.7265,4.7039,4.6763,4.6587,4.6486,4.6662,4.7114,4.74,4.749,4.8416,4.8718,4.8903,4.9204,4.949,4.9565,4.959,4.959,4.959,4.9615,4.969,4.9925,5.0302,5.0553,5.1046,5.1858,5.2109,5.236,5.2427,5.241,5.241,5.2435,5.2929,5.3884,5.4386,5.5164,5.5308,5.5383,5.5358,5.5132,5.4863,5.4687,5.4536,5.4135,5.3758,5.3457,5.3389,5.3389,5.3658,5.3976,5.4403,5.483,5.4931,5.5006,5.5282,5.5559,5.5666,5.5767,5.5867,5.5924,5.5874,5.5767,5.5666,5.5516,5.5265,5.4956,5.4529,5.4084,5.4177,5.4454,5.4572,5.4547,5.4253,5.4102,5.4326,5.4698,5.5398,5.6023,5.6621,5.7188,5.7825,5.8078,5.8261,5.8427,5.8505,5.8505,5.8505,5.8505,5.8505,5.8653,5.8732,5.8653,5.8653,4.6311,4.6311,4.6311,4.6311,4.6311,4.6311,4.6311,4.6311,4.6311,4.6311,4.6311,4.6311,4.6587,4.6963,4.7214,4.7431,4.7541,4.7566,4.7465,4.7767,4.74,4.7199,4.7064,4.7014,4.6737,4.6436,4.6361,4.6512,4.7074,4.7516,4.7792,4.7983,4.8626,4.8953,4.9079,4.938,4.959,4.959,4.959,4.959,4.959,4.9665,4.9841,5.0277,5.0578,5.0921,5.1749,5.2209,5.2385,5.2711,5.287,5.2845,5.2962,5.2988,5.3632,5.4052,5.4328,5.4629,5.4956,5.5006,5.473,5.4429,5.4052,5.3984,5.3909,5.3683,5.3339,5.3264,5.3239,5.3632,5.3951,5.4587,5.5157,5.5483,5.5616,5.5666,5.5767,5.5942,5.5942,5.6018,5.6043,5.6093,5.6093,5.5968,5.5942,5.5968,5.5691,5.5308,5.4981,5.4436,5.4429,5.4579,5.4597,5.4672,5.4697,5.4622,5.4876,5.5345,5.5967,5.6603,5.7128,5.7759,5.8435,5.8453,5.84,5.8453,5.8505,5.8505,5.8505,5.8505,5.8505,5.8505,5.8505,5.8531,5.8557,4.6311,4.6311,4.6311,4.6311,4.6311,4.6311,4.6311,4.6311,4.6311,4.6311,4.6311,4.6336,4.6597,4.7074,4.6913,4.7039,4.7299,4.7375,4.7048,4.7039,4.6898,4.6823,4.6572,4.6587,4.6451,4.6361,4.6386,4.6687,4.7199,4.7691,4.8225,4.8617,4.9079,4.9314,4.9314,4.959,4.959,4.959,4.959,4.959,4.959,4.9665,4.9841,5.0377,5.0779,5.1348,5.2051,5.2511,5.2686,5.2887,5.2895,5.3096,5.3464,5.349,5.3858,5.4378,5.4353,5.4429,5.4529,5.4529,5.4278,5.3984,5.3758,5.3733,5.3607,5.3289,5.3163,5.3163,5.3432,5.3909,5.4429,5.5164,5.5792,5.6043,5.6226,5.6226,5.62,5.6219,5.6219,5.6219,5.6219,5.6219,5.6219,5.6219,5.6219,5.5993,5.5659,5.5358,5.5257,5.4906,5.4755,5.4848,5.4647,5.4697,5.4898,5.5189,5.5455,5.5755,5.6328,5.699,5.7661,5.808,5.8505,5.8505,5.8479,5.8505,5.8505,5.8505,5.8505,5.8505,5.8505,5.8505,5.8505,5.8505,5.8505,4.6311,4.6311,4.6311,4.6311,4.6311,4.6311,4.6311,4.6311,4.6311,4.6311,4.6311,4.6336,4.6612,4.7048,4.6772,4.6722,4.7074,4.7083,4.6823,4.6612,4.6537,4.6512,4.6386,4.6311,4.6311,4.6336,4.6863,4.7265,4.7541,4.8294,4.8978,4.9154,4.949,4.959,4.959,4.959,4.959,4.959,4.9615,4.9615,4.9665,4.9825,5.0026,5.0553,5.1155,5.1724,5.2101,5.2586,5.282,5.2995,5.3121,5.3339,5.359,5.3658,5.4002,5.4202,5.4177,5.3951,5.4052,5.4002,5.3783,5.3507,5.3339,5.3289,5.3607,5.3364,5.3532,5.3632,5.431,5.483,5.5031,5.5616,5.5917,5.6168,5.6244,5.6226,5.6219,5.6219,5.6219,5.6219,5.6219,5.6219,5.6219,5.6219,5.6219,5.6194,5.581,5.5735,5.5609,5.5433,5.5282,5.5157,5.5031,5.52,5.5559,5.5815,5.6038,5.6394,5.6744,5.7393,5.8026,5.8266,5.8505,5.8505,5.8505,5.8505,5.8505,5.8505,5.8505,5.8505,5.8505,5.8505,5.8505,5.8505,5.8505,4.6311,4.6311,4.6311,4.6311,4.6311,4.6311,4.6311,4.6311,4.6311,4.6311,4.6311,4.6311,4.6637,4.6963,4.6998,4.7048,4.7023,4.6898,4.6612,4.6411,4.6336,4.6361,4.6361,4.6311,4.6386,4.6687,4.7174,4.7641,4.8058,4.8752,4.9229,4.9515,4.959,4.959,4.959,4.9615,4.9615,4.9715,4.9741,4.969,4.9866,5.0151,5.0377,5.0854,5.1473,5.2051,5.231,5.2561,5.287,5.2995,5.3239,5.3565,5.3658,5.3708,5.3876,5.4027,5.3565,5.3439,5.3457,5.3289,5.3096,5.2945,5.2895,5.3071,5.3414,5.3683,5.3808,5.4285,5.4988,5.529,5.5509,5.5867,5.6143,5.6219,5.6244,5.6244,5.6219,5.6219,5.6219,5.6219,5.6219,5.6219,5.6219,5.6219,5.6219,5.6219,5.6219,5.6219,5.6143,5.5942,5.5785,5.5691,5.5591,5.5842,5.6184,5.6334,5.6486,5.6962,5.7338,5.7921,5.8363,5.8452,5.8505,5.8505,5.8505,5.8505,5.8505,5.8505,5.8505,5.8505,5.8505,5.8505,5.8505,5.8505,5.8505,4.6311,4.6311,4.6311,4.6311,4.6311,4.6311,4.6311,4.6311,4.6311,4.6311,4.6311,4.6336,4.6612,4.7074,4.6612,4.6612,4.6898,4.6697,4.6512,4.6311,4.6311,4.6311,4.6336,4.6411,4.6612,4.6963,4.735,4.7767,4.8375,4.8827,4.9204,4.9565,4.959,4.959,4.959,4.964,4.9766,4.9916,4.9891,4.9816,5.0176,5.0452,5.0678,5.1172,5.1749,5.2302,5.2661,5.282,5.287,5.2945,5.3113,5.3632,5.3808,5.3708,5.3658,5.3733,5.3264,5.3071,5.302,5.297,5.2895,5.2895,5.2945,5.3121,5.3515,5.3976,5.4228,5.4705,5.5157,5.5157,5.5408,5.6168,5.6552,5.6319,5.6219,5.6219,5.6219,5.6219,5.6219,5.6219,5.6219,5.6219,5.6219,5.6219,5.6219,5.6219,5.6219,5.6219,5.6219,5.6219,5.6219,5.6143,5.6025,5.6337,5.6594,5.6678,5.6881,5.7382,5.7802,5.8141,5.8381,5.8469,5.8505,5.8505,5.8505,5.8505,5.8505,5.8505,5.8505,5.8505,5.8505,5.8505,5.8505,5.8505,5.8505]},{"header":{"parameterUnit":"m.s-1","parameterCategory":1,"la1":31.0,"la2":29.5877,"lo1":-88.7671,"lo2":-86.6584,"dy":0.0162,"dx":0.0185,"nx":115,"ny":88,"refTime":"2024-10-08T12:00:00:Z","depth":0,"parameterNumber":3,"parameterNumberName":"V-component_of_WINDS"},"data":[0.0,0.0,0.0,0.0,0.0,0.0,0.0,0.0,0.0,0.0,0.0,0.0,0.0,0.0,0.0,0.0,0.0,0.0,0.0,0.0,0.0,0.0,0.0,0.0,0.0,0.0,0.0,0.0,0.0,0.0,0.0,0.0,0.0,0.0,0.0,0.0,0.0,0.0,0.0,0.0,0.0,0.0,0.0,0.0,0.0,0.0,0.0,0.0,0.0,0.0,0.0,0.0,0.0,0.0,0.0,0.0,0.0,0.0,0.0,0.0,0.0,0.0,0.0,0.0,0.0,0.0,0.0,0.0,0.0,0.0,0.0,0.0,0.0,0.0,0.0,0.0,0.0,0.0,0.0,0.0,0.0,0.0,0.0,0.0,0.0,0.0,0.0,0.0,0.0,0.0,0.0,0.0,0.0,0.0,0.0,0.0,0.0,0.0,0.0,0.0,0.0,0.0,0.0,0.0,0.0,0.0,0.0,0.0,0.0,0.0,0.0,0.0,0.0,0.0,0.0,0.0,0.0,0.0,0.0,0.0,0.0,0.0,0.0,0.0,0.0,0.0,0.0,0.0,0.0,0.0,0.0,0.0,0.0,0.0,0.0,0.0,0.0,0.0,0.0,0.0,0.0,0.0,0.0,0.0,0.0,0.0,0.0,0.0,0.0,0.0,0.0,0.0,0.0,0.0,0.0,0.0,0.0,0.0,0.0,0.0,0.0,0.0,0.0,0.0,0.0,0.0,0.0,0.0,0.0,0.0,0.0,0.0,0.0,0.0,0.0,0.0,0.0,0.0,0.0,0.0,0.0,0.0,0.0,0.0,0.0,0.0,0.0,0.0,0.0,0.0,0.0,0.0,0.0,0.0,0.0,0.0,0.0,0.0,0.0,0.0,0.0,0.0,0.0,0.0,0.0,0.0,0.0,0.0,0.0,0.0,0.0,0.0,0.0,0.0,0.0,0.0,0.0,0.0,0.0,0.0,0.0,0.0,0.0,0.0,0.0,0.0,0.0,0.0,0.0,0.0,0.0,0.0,0.0,0.0,0.0,0.0,0.0,0.0,0.0,0.0,0.0,0.0,0.0,0.0,0.0,0.0,0.0,0.0,0.0,0.0,0.0,0.0,0.0,0.0,0.0,0.0,0.0,0.0,0.0,0.0,0.0,0.0,0.0,0.0,0.0,0.0,0.0,0.0,0.0,0.0,0.0,0.0,0.0,0.0,0.0,0.0,0.0,0.0,0.0,0.0,0.0,0.0,0.0,0.0,0.0,0.0,0.0,0.0,0.0,0.0,0.0,0.0,0.0,0.0,0.0,0.0,0.0,0.0,0.0,0.0,0.0,0.0,0.0,0.0,0.0,0.0,0.0,0.0,0.0,0.0,0.0,0.0,0.0,0.0,0.0,0.0,0.0,0.0,0.0,0.0,0.0,0.0,0.0,0.0,0.0,0.0,0.0,0.0,0.0,0.0,0.0,0.0,0.0,0.0,0.0,0.0,0.0,0.0,0.0,0.0,0.0,0.0,0.0,0.0,0.0,0.0,0.0,0.0,0.0,0.0,0.0,0.0,0.0,0.0,0.0,0.0,0.0,0.0,0.0,0.0,0.0,0.0,0.0,0.0,0.0,0.0,0.0,0.0,0.0,0.0,0.0,0.0,0.0,0.0,0.0,0.0,0.0,0.0,0.0,0.0,0.0,0.0,0.0,0.0,0.0,0.0,0.0,0.0,0.0,0.0,0.0,0.0,0.0,0.0,0.0,0.0,0.0,0.0,0.0,0.0,0.0,0.0,0.0,0.0,0.0,0.0,0.0,0.0,0.0,0.0,0.0,0.0,0.0,0.0,0.0,0.0,0.0,0.0,0.0,0.0,0.0,0.0,0.0,0.0,0.0,0.0,0.0,0.0,0.0,0.0,0.0,0.0,0.0,0.0,0.0,0.0,0.0,0.0,0.0,0.0,0.0,0.0,0.0,0.0,0.0,0.0,0.0,0.0,0.0,0.0,0.0,0.0,0.0,0.0,0.0,0.0,0.0,0.0,0.0,0.0,0.0,0.0,0.0,0.0,0.0,0.0,0.0,0.0,0.0,0.0,0.0,0.0,0.0,0.0,0.0,0.0,0.0,0.0,0.0,0.0,0.0,0.0,0.0,0.0,0.0,0.0,0.0,0.0,0.0,0.0,0.0,0.0,0.0,0.0,0.0,0.0,0.0,0.0,0.0,0.0,0.0,0.0,0.0,0.0,0.0,0.0,0.0,0.0,0.0,0.0,0.0,0.0,0.0,0.0,0.0,0.0,0.0,0.0,0.0,0.0,0.0,0.0,0.0,0.0,0.0,0.0,0.0,0.0,0.0,0.0,0.0,0.0,0.0,0.0,0.0,0.0,0.0,0.0,0.0,0.0,0.0,0.0,0.0,0.0,0.0,0.0,0.0,0.0,0.0,0.0,0.0,0.0,0.0,0.0,0.0,0.0,0.0,0.0,0.0,0.0,0.0,0.0,0.0,0.0,0.0,0.0,0.0,0.0,0.0,0.0,0.0,0.0,0.0,0.0,0.0,0.0,0.0,0.0,0.0,0.0,0.0,0.0,0.0,0.0,0.0,0.0,0.0,0.0,0.0,0.0,0.0,0.0,0.0,0.0,0.0,0.0,0.0,0.0,0.0,0.0,0.0,0.0,0.0,0.0,0.0,0.0,0.0,0.0,0.0,0.0,0.0,0.0,0.0,0.0,0.0,0.0,0.0,0.0,0.0,0.0,0.0,0.0,0.0,0.0,0.0,0.0,0.0,0.0,0.0,0.0,0.0,0.0,0.0,0.0,0.0,0.0,0.0,0.0,0.0,0.0,0.0,0.0,0.0,0.0,0.0,0.0,0.0,0.0,0.0,0.0,0.0,0.0,0.0,0.0,0.0,0.0,0.0,0.0,0.0,0.0,0.0,0.0,0.0,0.0,0.0,0.0,0.0,0.0,0.0,0.0,0.0,0.0,0.0,0.0,0.0,0.0,0.0,0.0,0.0,0.0,0.0,0.0,0.0,0.0,0.0,0.0,0.0,0.0,0.0,0.0,0.0,0.0,0.0,0.0,0.0,0.0,0.0,0.0,0.0,0.0,0.0,0.0,0.0,0.0,0.0,0.0,0.0,0.0,0.0,0.0,0.0,0.0,0.0,0.0,0.0,0.0,0.0,0.0,0.0,0.0,0.0,0.0,0.0,0.0,0.0,0.0,0.0,0.0,0.0,0.0,0.0,0.0,0.0,0.0,0.0,0.0,0.0,0.0,0.0,0.0,0.0,0.0,0.0,0.0,0.0,0.0,0.0,0.0,0.0,0.0,0.0,0.0,0.0,0.0,0.0,0.0,0.0,0.0,0.0,0.0,0.0,0.0,0.0,0.0,0.0,0.0,0.0,0.0,0.0,0.0,0.0,0.0,0.0,0.0,0.0,0.0,0.0,0.0,0.0,0.0,0.0,0.0,0.0,0.0,0.0,0.0,0.0,0.0,0.0,0.0,0.0,0.0,0.0,0.0,0.0,0.0,0.0,0.0,0.0,0.0,0.0,0.0,0.0,0.0,0.0,0.0,0.0,0.0,0.0,0.0,0.0,0.0,0.0,0.0,0.0,0.0,0.0,0.0,0.0,0.0,0.0,0.0,0.0,0.0,0.0,0.0,0.0,0.0,0.0,0.0,0.0,0.0,0.0,0.0,0.0,0.0,0.0,0.0,0.0,0.0,0.0,0.0,0.0,0.0,0.0,0.0,0.0,0.0,0.0,0.0,0.0,0.0,0.0,0.0,0.0,0.0,0.0,0.0,0.0,0.0,0.0,0.0,0.0,0.0,0.0,0.0,0.0,0.0,0.0,0.0,0.0,0.0,0.0,0.0,0.0,0.0,0.0,0.0,0.0,0.0,0.0,0.0,0.0,0.0,0.0,0.0,0.0,0.0,0.0,0.0,0.0,0.0,0.0,0.0,0.0,0.0,0.0,0.0,0.0,0.0,0.0,0.0,0.0,0.0,0.0,0.0,0.0,0.0,0.0,0.0,0.0,0.0,0.0,0.0,0.0,0.0,0.0,0.0,0.0,0.0,0.0,0.0,0.0,0.0,0.0,0.0,0.0,0.0,0.0,0.0,0.0,0.0,0.0,0.0,0.0,0.0,0.0,0.0,0.0,0.0,0.0,0.0,0.0,0.0,0.0,0.0,0.0,0.0,0.0,0.0,0.0,0.0,0.0,0.0,0.0,0.0,0.0,0.0,0.0,0.0,0.0,0.0,0.0,0.0,0.0,0.0,2.5071,0.0,0.0,0.0,0.0,0.0,0.0,0.0,0.0,0.0,0.0,0.0,0.0,0.0,0.0,0.0,0.0,0.0,0.0,0.0,0.0,0.0,0.0,0.0,0.0,0.0,0.0,0.0,0.0,0.0,0.0,0.0,0.0,0.0,0.0,0.0,0.0,0.0,0.0,0.0,0.0,0.0,0.0,0.0,0.0,0.0,0.0,0.0,0.0,0.0,0.0,0.0,0.0,0.0,0.0,0.0,0.0,0.0,0.0,0.0,0.0,0.0,0.0,0.0,0.0,0.0,0.0,0.0,0.0,0.0,0.0,0.0,0.0,0.0,0.0,0.0,0.0,0.0,0.0,0.0,0.0,0.0,0.0,0.0,0.0,0.0,0.0,0.0,0.0,0.0,0.0,0.0,0.0,0.0,0.0,0.0,0.0,0.0,0.0,0.0,0.0,0.0,0.0,0.0,0.0,0.0,0.0,0.0,0.0,0.0,0.0,2.6325,2.6642,2.6641,2.6192,2.5367,0.0,0.0,0.0,0.0,0.0,0.0,0.0,0.0,0.0,0.0,0.0,0.0,0.0,0.0,0.0,0.0,0.0,0.0,0.0,0.0,0.0,0.0,0.0,0.0,0.0,0.0,0.0,0.0,0.0,0.0,0.0,0.0,0.0,0.0,0.0,0.0,0.0,0.0,0.0,0.0,0.0,0.0,0.0,0.0,0.0,0.0,0.0,0.0,0.0,0.0,0.0,0.0,0.0,0.0,0.0,0.0,0.0,0.0,0.0,0.0,0.0,0.0,0.0,0.0,0.0,0.0,0.0,0.0,0.0,0.0,0.0,0.0,0.0,0.0,0.0,0.0,0.0,0.0,0.0,0.0,0.0,0.0,0.0,0.0,0.0,0.0,0.0,0.0,0.0,0.0,0.0,0.0,0.0,0.0,0.0,0.0,0.0,0.0,0.0,0.0,0.0,0.0,0.0,0.0,0.0,0.0,0.0,0.0,0.0,0.0,0.0,0.0,2.7064,2.6761,2.5764,0.0,0.0,0.0,0.0,0.0,0.0,0.0,0.0,0.0,0.0,0.0,0.0,0.0,0.0,0.0,0.0,0.0,0.0,0.0,0.0,0.0,0.0,0.0,0.0,0.0,0.0,0.0,0.0,0.0,0.0,0.0,0.0,0.0,0.0,0.0,0.0,0.0,0.0,0.0,0.0,0.0,0.0,0.0,0.0,0.0,0.0,0.0,0.0,0.0,0.0,0.0,0.0,0.0,0.0,0.0,0.0,0.0,0.0,0.0,0.0,0.0,0.0,0.0,0.0,0.0,0.0,0.0,0.0,0.0,0.0,0.0,0.0,0.0,0.0,0.0,0.0,0.0,0.0,0.0,0.0,0.0,0.0,0.0,0.0,0.0,0.0,0.0,0.0,0.0,0.0,0.0,0.0,0.0,0.0,0.0,0.0,0.0,0.0,0.0,0.0,0.0,0.0,0.0,0.0,0.0,0.0,0.0,0.0,0.0,0.0,2.5872,2.6602,2.6952,0.0,2.6071,0.0,0.0,0.0,0.0,0.0,0.0,0.0,0.0,0.0,0.0,0.0,0.0,0.0,0.0,0.0,0.0,0.0,0.0,0.0,0.0,0.0,0.0,0.0,0.0,0.0,0.0,0.0,0.0,0.0,0.0,0.0,0.0,0.0,0.0,0.0,0.0,0.0,0.0,0.0,0.0,0.0,0.0,0.0,0.0,0.0,0.0,0.0,0.0,0.0,0.0,0.0,0.0,0.0,0.0,0.0,0.0,0.0,0.0,0.0,0.0,0.0,0.0,0.0,0.0,0.0,0.0,0.0,0.0,0.0,0.0,0.0,0.0,0.0,0.0,0.0,0.0,0.0,0.0,0.0,0.0,0.0,0.0,0.0,0.0,0.0,0.0,0.0,0.0,0.0,0.0,0.0,0.0,0.0,0.0,0.0,0.0,0.0,0.0,0.0,0.0,0.0,0.0,0.0,0.0,0.0,0.0,0.0,0.0,0.0,0.0,2.5749,2.68,2.6543,2.6387,0.0,0.0,0.0,0.0,0.0,0.0,0.0,0.0,0.0,0.0,0.0,0.0,0.0,0.0,0.0,0.0,0.0,0.0,0.0,0.0,0.0,0.0,0.0,0.0,0.0,0.0,0.0,0.0,0.0,0.0,0.0,0.0,0.0,0.0,0.0,0.0,0.0,0.0,0.0,0.0,0.0,0.0,0.0,0.0,0.0,0.0,0.0,0.0,0.0,0.0,0.0,0.0,0.0,0.0,0.0,0.0,0.0,0.0,0.0,0.0,0.0,0.0,0.0,0.0,0.0,0.0,0.0,0.0,0.0,0.0,0.0,0.0,0.0,0.0,0.0,0.0,0.0,0.0,0.0,0.0,0.0,0.0,0.0,0.0,0.0,0.0,0.0,0.0,0.0,0.0,0.0,0.0,0.0,0.0,0.0,0.0,0.0,0.0,0.0,0.0,0.0,0.0,0.0,0.0,0.0,0.0,0.0,0.0,0.0,0.0,2.4955,2.5687,2.6773,2.6231,2.5968,2.6031,0.0,0.0,0.0,0.0,0.0,0.0,0.0,0.0,0.0,0.0,0.0,0.0,0.0,0.0,0.0,0.0,0.0,0.0,0.0,0.0,0.0,0.0,0.0,0.0,0.0,0.0,0.0,0.0,0.0,0.0,0.0,0.0,0.0,0.0,0.0,0.0,0.0,0.0,0.0,0.0,0.0,0.0,0.0,0.0,0.0,0.0,0.0,0.0,0.0,0.0,0.0,0.0,0.0,0.0,0.0,0.0,0.0,0.0,0.0,0.0,0.0,0.0,0.0,0.0,0.0,0.0,0.0,0.0,0.0,0.0,0.0,0.0,0.0,0.0,0.0,0.0,0.0,0.0,0.0,0.0,0.0,0.0,0.0,0.0,0.0,0.0,0.0,0.0,0.0,0.0,0.0,0.0,0.0,0.0,0.0,0.0,0.0,0.0,0.0,0.0,0.0,0.0,0.0,0.0,0.0,0.0,0.0,0.0,0.0,2.4817,2.5651,2.6553,2.6163,2.5504,0.0,0.0,0.0,0.0,0.0,0.0,0.0,0.0,0.0,0.0,0.0,0.0,0.0,0.0,0.0,0.0,0.0,0.0,0.0,0.0,0.0,0.0,0.0,0.0,0.0,0.0,0.0,0.0,0.0,0.0,0.0,0.0,0.0,0.0,0.0,0.0,0.0,0.0,0.0,0.0,0.0,0.0,0.0,0.0,0.0,0.0,0.0,0.0,0.0,0.0,0.0,0.0,0.0,0.0,0.0,0.0,0.0,0.0,0.0,0.0,0.0,0.0,0.0,0.0,0.0,0.0,0.0,0.0,0.0,0.0,0.0,0.0,0.0,0.0,0.0,0.0,0.0,0.0,0.0,0.0,0.0,0.0,0.0,0.0,0.0,0.0,0.0,0.0,0.0,0.0,0.0,0.0,0.0,0.0,0.0,0.0,0.0,0.0,0.0,0.0,0.0,0.0,0.0,0.0,0.0,0.0,0.0,0.0,0.0,2.3973,2.4603,2.536,2.6139,2.5378,2.4705,0.0,0.0,0.0,0.0,0.0,0.0,0.0,0.0,0.0,0.0,0.0,0.0,0.0,0.0,0.0,0.0,0.0,0.0,0.0,0.0,0.0,0.0,0.0,0.0,0.0,0.0,0.0,0.0,0.0,0.0,0.0,0.0,0.0,0.0,0.0,0.0,0.0,0.0,0.0,0.0,0.0,0.0,0.0,0.0,0.0,0.0,0.0,0.0,0.0,0.0,0.0,0.0,0.0,0.0,0.0,0.0,0.0,0.0,0.0,0.0,0.0,0.0,0.0,0.0,0.0,0.0,0.0,0.0,0.0,0.0,0.0,0.0,0.0,0.0,0.0,0.0,0.0,0.0,0.0,0.0,0.0,0.0,0.0,0.0,0.0,0.0,0.0,0.0,0.0,0.0,0.0,0.0,0.0,0.0,0.0,0.0,0.0,0.0,0.0,0.0,0.0,0.0,0.0,0.0,0.0,0.0,0.0,0.0,0.0,2.424,0.0,2.512,0.0,2.5106,2.4298,0.0,0.0,0.0,0.0,0.0,0.0,0.0,0.0,0.0,0.0,0.0,0.0,0.0,0.0,0.0,0.0,0.0,0.0,0.0,0.0,0.0,0.0,0.0,0.0,0.0,0.0,0.0,0.0,0.0,0.0,0.0,0.0,0.0,0.0,0.0,0.0,0.0,0.0,0.0,0.0,0.0,0.0,0.0,0.0,0.0,0.0,0.0,0.0,0.0,0.0,0.0,0.0,0.0,0.0,0.0,0.0,0.0,0.0,0.0,0.0,0.0,0.0,0.0,0.0,0.0,0.0,0.0,0.0,0.0,0.0,0.0,0.0,0.0,0.0,0.0,0.0,0.0,0.0,0.0,0.0,0.0,0.0,0.0,0.0,0.0,0.0,0.0,0.0,0.0,0.0,0.0,0.0,0.0,0.0,0.0,0.0,0.0,0.0,0.0,0.0,0.0,0.0,0.0,0.0,0.0,0.0,0.0,0.0,2.3876,2.4925,2.4922,2.5041,2.5217,2.5373,2.4458,0.0,0.0,0.0,0.0,0.0,0.0,0.0,0.0,0.0,0.0,0.0,0.0,0.0,0.0,0.0,0.0,0.0,0.0,0.0,0.0,0.0,0.0,0.0,0.0,0.0,0.0,0.0,0.0,0.0,0.0,0.0,0.0,0.0,0.0,0.0,0.0,0.0,0.0,0.0,0.0,0.0,0.0,0.0,0.0,0.0,0.0,0.0,0.0,0.0,0.0,0.0,0.0,0.0,0.0,0.0,0.0,0.0,0.0,0.0,0.0,0.0,0.0,0.0,0.0,0.0,0.0,0.0,0.0,0.0,0.0,0.0,0.0,0.0,0.0,0.0,0.0,0.0,0.0,0.0,0.0,0.0,0.0,0.0,0.0,0.0,0.0,0.0,0.0,0.0,0.0,0.0,0.0,0.0,0.0,0.0,0.0,0.0,0.0,0.0,0.0,0.0,0.0,0.0,0.0,0.0,0.0,0.0,0.0,0.0,2.5105,2.5146,2.5465,2.5965,2.5283,2.45,0.0,0.0,0.0,0.0,0.0,0.0,0.0,0.0,0.0,0.0,0.0,0.0,0.0,0.0,0.0,0.0,0.0,0.0,0.0,0.0,0.0,0.0,0.0,0.0,0.0,0.0,0.0,0.0,0.0,0.0,0.0,0.0,0.0,0.0,0.0,0.0,0.0,0.0,0.0,0.0,0.0,0.0,0.0,0.0,0.0,0.0,0.0,0.0,0.0,0.0,0.0,0.0,0.0,0.0,0.0,0.0,0.0,0.0,0.0,0.0,0.0,0.0,0.0,0.0,0.0,0.0,0.0,0.0,0.0,0.0,0.0,0.0,0.0,0.0,0.0,0.0,0.0,0.0,0.0,0.0,0.0,0.0,0.0,0.0,0.0,0.0,0.0,0.0,0.0,0.0,0.0,0.0,0.0,0.0,0.0,0.0,0.0,0.0,0.0,0.0,0.0,0.0,0.0,0.0,0.0,0.0,0.0,0.0,0.0,2.6049,2.6052,2.6273,2.6826,2.6195,2.5375,2.4441,0.0,0.0,0.0,0.0,0.0,0.0,0.0,0.0,0.0,0.0,0.0,0.0,0.0,0.0,0.0,0.0,0.0,0.0,0.0,0.0,0.0,0.0,0.0,0.0,0.0,0.0,0.0,0.0,0.0,0.0,0.0,0.0,0.0,0.0,0.0,0.0,0.0,0.0,0.0,0.0,0.0,0.0,0.0,0.0,0.0,0.0,0.0,0.0,0.0,0.0,0.0,0.0,0.0,0.0,0.0,0.0,0.0,0.0,0.0,0.0,0.0,0.0,0.0,0.0,0.0,0.0,0.0,0.0,0.0,0.0,0.0,0.0,0.0,0.0,0.0,0.0,0.0,0.0,0.0,0.0,0.0,0.0,0.0,0.0,0.0,0.0,0.0,0.0,0.0,0.0,0.0,0.0,0.0,0.0,0.0,0.0,0.0,0.0,0.0,0.0,0.0,0.0,0.0,0.0,0.0,0.0,0.0,0.0,2.7638,2.7486,2.7503,2.7705,2.784,2.6921,0.0,0.0,0.0,0.0,0.0,0.0,0.0,0.0,0.0,0.0,0.0,0.0,0.0,0.0,0.0,0.0,0.0,0.0,0.0,0.0,0.0,0.0,0.0,0.0,0.0,0.0,0.0,0.0,0.0,0.0,0.0,0.0,0.0,0.0,0.0,0.0,0.0,0.0,0.0,0.0,0.0,0.0,0.0,0.0,0.0,0.0,0.0,0.0,0.0,0.0,0.0,0.0,0.0,0.0,0.0,0.0,0.0,0.0,0.0,0.0,0.0,0.0,0.0,0.0,0.0,0.0,0.0,0.0,0.0,0.0,0.0,0.0,0.0,0.0,0.0,0.0,0.0,0.0,0.0,0.0,0.0,0.0,0.0,0.0,0.0,0.0,0.0,0.0,0.0,0.0,0.0,0.0,0.0,0.0,0.0,0.0,0.0,0.0,0.0,0.0,0.0,0.0,0.0,0.0,0.0,0.0,0.0,0.0,0.0,2.8344,2.9191,2.9514,2.9202,2.8456,2.7706,0.0,0.0,0.0,0.0,0.0,0.0,0.0,0.0,0.0,0.0,0.0,0.0,0.0,0.0,0.0,0.0,0.0,0.0,0.0,0.0,0.0,0.0,0.0,0.0,0.0,0.0,0.0,0.0,0.0,0.0,0.0,0.0,0.0,0.0,0.0,0.0,0.0,0.0,0.0,0.0,0.0,0.0,0.0,0.0,0.0,0.0,0.0,0.0,0.0,0.0,0.0,0.0,0.0,0.0,0.0,0.0,0.0,0.0,0.0,0.0,0.0,0.0,0.0,0.0,0.0,0.0,0.0,0.0,0.0,0.0,0.0,0.0,0.0,0.0,0.0,0.0,0.0,0.0,0.0,0.0,0.0,0.0,0.0,0.0,0.0,0.0,0.0,0.0,0.0,0.0,0.0,0.0,0.0,0.0,0.0,0.0,0.0,0.0,0.0,0.0,0.0,0.0,0.0,0.0,0.0,0.0,0.0,0.0,2.8464,2.9378,3.0388,3.0783,3.0536,2.9553,2.8762,0.0,0.0,0.0,0.0,0.0,0.0,0.0,0.0,0.0,0.0,0.0,0.0,0.0,0.0,0.0,0.0,0.0,0.0,0.0,0.0,0.0,0.0,0.0,0.0,0.0,0.0,0.0,0.0,0.0,0.0,0.0,0.0,0.0,0.0,0.0,0.0,0.0,0.0,0.0,0.0,0.0,0.0,0.0,0.0,0.0,0.0,0.0,0.0,0.0,0.0,0.0,0.0,0.0,0.0,0.0,0.0,0.0,0.0,0.0,0.0,0.0,0.0,0.0,0.0,0.0,0.0,0.0,0.0,0.0,0.0,0.0,0.0,0.0,0.0,0.0,0.0,0.0,0.0,0.0,0.0,0.0,0.0,0.0,0.0,0.0,0.0,0.0,0.0,0.0,0.0,0.0,0.0,0.0,0.0,0.0,0.0,0.0,0.0,0.0,0.0,0.0,0.0,0.0,0.0,0.0,0.0,0.0,0.0,2.9355,3.0485,3.1152,3.1532,3.1559,3.0762,2.9861,0.0,0.0,0.0,0.0,0.0,0.0,0.0,0.0,0.0,0.0,0.0,0.0,0.0,0.0,0.0,0.0,0.0,0.0,0.0,0.0,0.0,0.0,0.0,0.0,0.0,0.0,0.0,0.0,0.0,0.0,0.0,0.0,0.0,0.0,0.0,0.0,0.0,0.0,0.0,0.0,0.0,0.0,0.0,0.0,0.0,0.0,0.0,0.0,0.0,0.0,0.0,0.0,0.0,0.0,0.0,0.0,0.0,0.0,0.0,0.0,0.0,0.0,0.0,0.0,0.0,0.0,0.0,0.0,0.0,0.0,0.0,0.0,0.0,0.0,0.0,0.0,0.0,0.0,0.0,0.0,0.0,0.0,0.0,0.0,0.0,0.0,0.0,0.0,0.0,0.0,0.0,0.0,0.0,0.0,0.0,0.0,0.0,0.0,0.0,0.0,0.0,0.0,0.0,0.0,0.0,0.0,0.0,0.0,3.0223,3.0492,3.1152,3.1718,3.2181,3.0959,3.0032,0.0,0.0,0.0,0.0,0.0,0.0,0.0,0.0,0.0,0.0,0.0,0.0,0.0,0.0,0.0,0.0,0.0,0.0,0.0,0.0,0.0,0.0,0.0,0.0,0.0,0.0,0.0,0.0,0.0,0.0,0.0,0.0,0.0,0.0,0.0,0.0,0.0,0.0,0.0,0.0,0.0,0.0,0.0,0.0,0.0,0.0,0.0,0.0,3.2618,0.0,0.0,0.0,0.0,0.0,0.0,0.0,0.0,0.0,0.0,0.0,0.0,0.0,0.0,0.0,0.0,0.0,0.0,0.0,0.0,0.0,0.0,0.0,0.0,0.0,0.0,0.0,0.0,0.0,0.0,0.0,0.0,0.0,0.0,0.0,0.0,0.0,0.0,0.0,0.0,0.0,0.0,0.0,0.0,0.0,0.0,0.0,0.0,0.0,0.0,0.0,0.0,0.0,0.0,0.0,0.0,0.0,0.0,0.0,3.0635,3.0979,3.1301,3.1669,3.1936,3.1057,3.0556,0.0,0.0,0.0,0.0,0.0,0.0,0.0,0.0,0.0,0.0,0.0,0.0,0.0,0.0,0.0,0.0,0.0,0.0,0.0,0.0,0.0,0.0,0.0,0.0,0.0,0.0,0.0,0.0,0.0,0.0,0.0,0.0,0.0,0.0,0.0,0.0,0.0,0.0,0.0,0.0,0.0,0.0,0.0,0.0,0.0,0.0,0.0,0.0,0.0,0.0,0.0,0.0,0.0,0.0,0.0,0.0,0.0,0.0,0.0,0.0,0.0,0.0,0.0,0.0,0.0,0.0,0.0,0.0,0.0,0.0,0.0,0.0,0.0,0.0,0.0,0.0,0.0,0.0,0.0,0.0,0.0,0.0,0.0,0.0,0.0,0.0,0.0,0.0,0.0,0.0,0.0,0.0,0.0,0.0,0.0,0.0,0.0,0.0,0.0,0.0,0.0,0.0,0.0,0.0,0.0,0.0,0.0,3.0283,3.0927,3.1473,3.1511,3.1547,3.1617,3.1222,3.1098,3.1298,0.0,0.0,0.0,0.0,0.0,0.0,0.0,0.0,0.0,0.0,0.0,0.0,0.0,0.0,0.0,0.0,0.0,0.0,0.0,0.0,0.0,0.0,0.0,0.0,0.0,0.0,0.0,0.0,0.0,0.0,0.0,0.0,0.0,0.0,0.0,0.0,0.0,0.0,2.9791,3.0886,0.0,0.0,0.0,0.0,0.0,0.0,0.0,0.0,3.4338,0.0,0.0,0.0,0.0,0.0,0.0,0.0,0.0,0.0,0.0,0.0,0.0,0.0,0.0,0.0,0.0,0.0,0.0,0.0,0.0,0.0,0.0,0.0,0.0,0.0,0.0,0.0,0.0,0.0,0.0,0.0,0.0,0.0,0.0,0.0,0.0,0.0,0.0,0.0,0.0,0.0,0.0,0.0,0.0,0.0,0.0,0.0,0.0,0.0,0.0,0.0,0.0,0.0,0.0,0.0,0.0,2.9578,3.0754,3.1384,3.1511,3.1511,3.1725,3.2209,3.1732,3.1229,3.0642,0.0,0.0,0.0,0.0,0.0,0.0,0.0,0.0,0.0,0.0,0.0,0.0,0.0,0.0,0.0,0.0,0.0,0.0,0.0,0.0,0.0,0.0,0.0,0.0,0.0,0.0,0.0,0.0,0.0,0.0,0.0,0.0,0.0,0.0,0.0,0.0,0.0,0.0,0.0,3.1858,3.2119,0.0,0.0,0.0,0.0,0.0,0.0,0.0,0.0,3.5479,0.0,0.0,0.0,0.0,0.0,0.0,0.0,0.0,0.0,0.0,0.0,0.0,0.0,0.0,0.0,0.0,0.0,0.0,0.0,0.0,0.0,0.0,0.0,0.0,0.0,0.0,0.0,0.0,0.0,0.0,0.0,0.0,0.0,0.0,0.0,0.0,0.0,0.0,0.0,0.0,0.0,0.0,0.0,0.0,0.0,0.0,0.0,0.0,0.0,0.0,0.0,0.0,0.0,0.0,0.0,2.9585,3.0837,3.1511,3.1511,3.1511,3.1632,3.1924,3.1491,3.0857,0.0,0.0,0.0,0.0,0.0,0.0,0.0,0.0,0.0,0.0,0.0,0.0,0.0,0.0,0.0,0.0,0.0,0.0,0.0,0.0,0.0,0.0,0.0,0.0,0.0,0.0,0.0,0.0,0.0,0.0,0.0,0.0,0.0,0.0,0.0,0.0,0.0,0.0,0.0,0.0,3.241,3.2637,3.2536,0.0,0.0,0.0,0.0,0.0,0.0,3.4984,3.5489,0.0,0.0,0.0,0.0,0.0,0.0,0.0,0.0,0.0,0.0,0.0,0.0,0.0,0.0,0.0,0.0,0.0,0.0,0.0,0.0,0.0,0.0,0.0,0.0,0.0,0.0,0.0,0.0,0.0,0.0,0.0,0.0,0.0,0.0,0.0,0.0,0.0,0.0,0.0,0.0,0.0,0.0,0.0,0.0,0.0,0.0,0.0,0.0,0.0,0.0,0.0,0.0,0.0,0.0,0.0,2.9608,3.0987,3.1616,3.1511,3.1511,3.1511,3.1488,3.1011,3.0333,0.0,0.0,0.0,0.0,0.0,0.0,0.0,0.0,0.0,0.0,0.0,0.0,0.0,0.0,0.0,0.0,0.0,0.0,0.0,0.0,0.0,0.0,0.0,0.0,0.0,0.0,0.0,0.0,0.0,0.0,0.0,0.0,0.0,0.0,0.0,0.0,0.0,0.0,0.0,0.0,0.0,3.3009,3.3547,3.3817,0.0,0.0,0.0,0.0,3.4673,3.5378,0.0,0.0,0.0,0.0,0.0,0.0,0.0,0.0,0.0,0.0,0.0,0.0,0.0,0.0,0.0,0.0,0.0,0.0,0.0,0.0,0.0,0.0,0.0,0.0,0.0,0.0,0.0,0.0,0.0,0.0,0.0,0.0,0.0,0.0,0.0,0.0,0.0,0.0,0.0,0.0,0.0,0.0,0.0,0.0,0.0,0.0,0.0,0.0,0.0,0.0,0.0,0.0,0.0,0.0,0.0,0.0,2.9645,3.142,3.2079,3.1533,3.1511,3.1511,3.1481,3.0657,2.9769,0.0,0.0,0.0,0.0,0.0,0.0,0.0,0.0,0.0,0.0,0.0,0.0,0.0,0.0,0.0,0.0,0.0,0.0,0.0,0.0,0.0,0.0,0.0,0.0,0.0,0.0,0.0,0.0,0.0,0.0,0.0,0.0,0.0,0.0,0.0,0.0,0.0,0.0,0.0,0.0,0.0,3.3223,3.3841,3.3962,3.4013,0.0,0.0,3.5161,3.5345,3.6379,0.0,0.0,0.0,0.0,0.0,0.0,0.0,0.0,0.0,0.0,0.0,0.0,0.0,0.0,0.0,0.0,0.0,0.0,0.0,0.0,0.0,0.0,0.0,0.0,0.0,0.0,0.0,0.0,0.0,0.0,0.0,0.0,0.0,0.0,0.0,0.0,0.0,0.0,0.0,0.0,0.0,0.0,0.0,0.0,0.0,0.0,0.0,0.0,0.0,0.0,0.0,0.0,0.0,0.0,0.0,2.8936,2.9645,3.1509,3.2183,3.1533,3.1511,3.1511,3.1481,3.0661,2.9716,0.0,0.0,0.0,0.0,0.0,0.0,0.0,0.0,0.0,0.0,0.0,0.0,0.0,0.0,0.0,0.0,0.0,0.0,0.0,0.0,0.0,0.0,0.0,0.0,0.0,0.0,0.0,0.0,0.0,0.0,0.0,0.0,0.0,0.0,0.0,0.0,0.0,0.0,0.0,0.0,0.0,0.0,3.4509,3.5027,0.0,0.0,0.0,3.6073,3.652,0.0,0.0,0.0,0.0,0.0,0.0,0.0,0.0,0.0,0.0,0.0,0.0,0.0,0.0,0.0,0.0,0.0,0.0,0.0,0.0,0.0,0.0,0.0,0.0,0.0,0.0,0.0,0.0,0.0,0.0,0.0,0.0,0.0,0.0,0.0,0.0,0.0,0.0,0.0,0.0,0.0,0.0,0.0,0.0,0.0,0.0,0.0,0.0,0.0,0.0,0.0,0.0,0.0,0.0,0.0,0.0,0.0,2.9847,3.1742,3.2422,3.1787,3.1593,3.1511,3.1488,3.0661,0.0,0.0,0.0,0.0,0.0,0.0,0.0,0.0,0.0,0.0,0.0,0.0,0.0,0.0,0.0,0.0,0.0,0.0,0.0,0.0,0.0,0.0,0.0,0.0,0.0,0.0,0.0,2.2627,0.0,0.0,0.0,0.0,0.0,0.0,0.0,0.0,0.0,0.0,0.0,0.0,0.0,0.0,3.5342,3.5511,3.6203,3.6674,0.0,0.0,3.7032,3.7135,3.7225,3.6985,0.0,0.0,0.0,0.0,0.0,0.0,0.0,0.0,0.0,0.0,0.0,0.0,0.0,0.0,0.0,0.0,0.0,0.0,0.0,0.0,0.0,0.0,0.0,0.0,0.0,0.0,0.0,0.0,0.0,0.0,0.0,0.0,0.0,0.0,0.0,0.0,0.0,0.0,0.0,0.0,0.0,0.0,0.0,0.0,0.0,0.0,0.0,0.0,0.0,0.0,0.0,0.0,0.0,0.0,0.0,3.0492,3.24,3.3088,3.2452,3.1809,3.1511,3.1481,3.0491,2.9563,0.0,0.0,0.0,0.0,0.0,0.0,0.0,0.0,0.0,0.0,0.0,0.0,0.0,0.0,0.0,0.0,0.0,0.0,0.0,0.0,0.0,0.0,0.0,0.0,0.0,0.0,0.0,0.0,0.0,0.0,0.0,0.0,0.0,0.0,0.0,0.0,0.0,0.0,0.0,0.0,0.0,3.5913,3.7063,3.7298,3.7336,0.0,0.0,3.7892,3.6755,3.8045,3.8383,3.599,0.0,0.0,0.0,0.0,0.0,0.0,0.0,0.0,0.0,0.0,0.0,0.0,0.0,0.0,0.0,0.0,0.0,0.0,0.0,0.0,0.0,0.0,0.0,0.0,0.0,0.0,0.0,0.0,0.0,0.0,0.0,0.0,0.0,0.0,0.0,0.0,0.0,0.0,0.0,0.0,0.0,0.0,0.0,0.0,0.0,0.0,0.0,0.0,0.0,0.0,0.0,0.0,0.0,3.0492,3.1122,3.2699,3.3185,3.2512,3.1847,3.1511,3.1511,3.1226,3.0505,0.0,0.0,0.0,0.0,0.0,0.0,0.0,0.0,0.0,0.0,0.0,0.0,0.0,0.0,0.0,0.0,0.0,0.0,0.0,0.0,0.0,0.0,0.0,0.0,0.0,0.0,0.0,0.0,2.7519,2.8517,2.9309,0.0,0.0,0.0,0.0,0.0,0.0,0.0,0.0,0.0,0.0,3.7934,3.8012,3.8353,0.0,0.0,3.8512,3.8362,3.8302,3.8571,3.8461,3.7434,3.7272,0.0,0.0,0.0,0.0,0.0,0.0,0.0,0.0,0.0,0.0,0.0,0.0,0.0,0.0,0.0,0.0,0.0,0.0,0.0,0.0,0.0,0.0,0.0,0.0,0.0,0.0,0.0,0.0,0.0,0.0,0.0,0.0,0.0,0.0,0.0,0.0,0.0,0.0,0.0,0.0,0.0,0.0,0.0,0.0,0.0,0.0,0.0,0.0,0.0,0.0,0.0,0.0,3.0927,3.1772,3.2908,3.3267,3.2781,3.1936,3.1511,3.1502,3.1638,3.1149,0.0,0.0,0.0,0.0,0.0,0.0,0.0,0.0,0.0,0.0,0.0,0.0,0.0,0.0,0.0,0.0,0.0,0.0,0.0,0.0,0.0,0.0,0.0,0.0,0.0,0.0,0.0,0.0,2.8793,2.9677,3.0971,0.0,0.0,0.0,0.0,0.0,0.0,0.0,0.0,0.0,0.0,3.9619,3.9329,3.9709,3.9999,3.9999,3.9589,3.9329,3.9391,3.9179,3.8862,3.8381,0.0,0.0,0.0,0.0,0.0,0.0,0.0,0.0,0.0,0.0,0.0,0.0,0.0,0.0,0.0,0.0,0.0,0.0,0.0,0.0,0.0,0.0,0.0,0.0,0.0,0.0,0.0,0.0,0.0,0.0,0.0,0.0,0.0,0.0,0.0,0.0,0.0,0.0,0.0,0.0,0.0,0.0,0.0,0.0,0.0,0.0,0.0,0.0,0.0,0.0,0.0,0.0,0.0,3.118,3.2452,3.3185,3.3484,3.3432,3.2176,3.1503,3.1495,3.146,3.125,3.088,0.0,0.0,0.0,0.0,0.0,0.0,0.0,0.0,0.0,0.0,0.0,0.0,0.0,0.0,0.0,0.0,0.0,0.0,0.0,0.0,0.0,0.0,0.0,0.0,0.0,0.0,2.9488,3.0103,3.1001,0.0,0.0,0.0,0.0,0.0,0.0,0.0,0.0,0.0,0.0,3.9939,4.0645,4.1224,4.1343,4.1343,4.1343,4.1313,4.0855,3.9631,3.9939,3.9854,0.0,0.0,0.0,0.0,0.0,0.0,0.0,0.0,0.0,0.0,0.0,0.0,0.0,0.0,0.0,0.0,0.0,0.0,0.0,0.0,0.0,0.0,0.0,0.0,0.0,0.0,0.0,2.7888,2.7057,0.0,0.0,0.0,0.0,0.0,0.0,0.0,0.0,0.0,0.0,0.0,3.1366,3.1397,0.0,0.0,0.0,0.0,0.0,0.0,0.0,0.0,0.0,0.0,0.0,0.0,3.228,3.3155,3.3829,3.3949,3.3484,3.2639,3.1922,3.1511,3.1886,3.1701,3.0923,0.0,0.0,0.0,0.0,0.0,0.0,0.0,0.0,0.0,0.0,0.0,0.0,0.0,0.0,0.0,0.0,0.0,0.0,0.0,0.0,0.0,0.0,0.0,0.0,0.0,3.0126,0.0,0.0,0.0,0.0,0.0,0.0,0.0,0.0,0.0,0.0,0.0,3.9062,3.9939,4.1035,4.1792,4.2051,4.2071,4.2071,0.0,0.0,0.0,0.0,0.0,0.0,0.0,0.0,0.0,0.0,0.0,0.0,0.0,0.0,4.2277,4.1018,4.0786,4.0796,4.0786,0.0,0.0,0.0,0.0,0.0,0.0,0.0,0.0,0.0,0.0,0.0,0.0,0.0,0.0,0.0,0.0,2.9372,0.0,0.0,0.0,0.0,0.0,0.0,0.0,0.0,3.256,3.3322,3.4175,3.4168,3.4175,0.0,3.3929,3.2835,0.0,0.0,0.0,0.0,0.0,0.0,0.0,0.0,3.3178,3.3851,3.4518,3.4428,3.3522,3.2856,3.2176,3.1548,3.2093,3.2055,3.1357,3.1607,3.0698,0.0,0.0,0.0,0.0,0.0,0.0,0.0,0.0,0.0,0.0,0.0,0.0,0.0,0.0,0.0,0.0,0.0,0.0,0.0,0.0,0.0,0.0,0.0,3.1712,0.0,0.0,0.0,0.0,0.0,0.0,0.0,0.0,0.0,3.8542,3.94,4.0417,4.1285,4.2162,4.28,4.302,0.0,0.0,0.0,0.0,0.0,0.0,0.0,4.2473,4.2654,4.2711,4.2951,4.3688,4.4224,4.4858,4.5675,0.0,0.0,4.3728,4.3409,4.3409,4.3438,4.3718,4.4077,4.4298,4.4676,4.5169,0.0,0.0,0.0,0.0,0.0,0.0,0.0,0.0,3.2543,3.1828,0.0,3.125,0.0,0.0,0.0,0.0,0.0,0.0,0.0,0.0,3.6484,3.7492,3.7492,3.7461,3.7523,3.7492,3.6854,3.6546,3.6315,3.3622,0.0,0.0,0.0,0.0,0.0,0.0,3.3889,3.4526,3.519,3.4891,3.3582,3.2878,3.2228,3.1561,3.2135,3.2339,3.2207,3.3278,3.2933,3.0806,3.0935,0.0,0.0,0.0,0.0,0.0,0.0,0.0,0.0,0.0,0.0,0.0,0.0,0.0,0.0,0.0,0.0,0.0,0.0,0.0,0.0,3.3118,0.0,0.0,0.0,0.0,0.0,0.0,0.0,0.0,0.0,0.0,4.0666,4.1124,4.1962,4.319,0.0,0.0,0.0,0.0,4.4546,4.5155,4.5274,4.5035,4.4396,4.4337,4.4295,4.413,0.0,0.0,4.5844,4.644,4.6858,4.6882,4.7393,4.7468,4.6226,4.5946,4.5877,4.5906,4.5935,4.6185,4.6685,4.6818,4.7074,3.5922,0.0,0.0,0.0,0.0,3.5322,3.5591,3.6022,3.5522,3.4852,3.4021,3.3727,0.0,0.0,0.0,0.0,0.0,0.0,3.553,3.6638,3.7246,3.7761,3.8231,3.8223,3.8223,3.8247,3.8505,3.8395,3.7916,3.7452,3.6051,3.3811,0.0,0.0,0.0,0.0,3.5003,3.5242,3.5857,3.5565,3.4226,3.3552,3.2892,3.2135,3.2673,3.2973,3.3049,3.4132,3.4227,3.3075,3.2862,0.0,0.0,0.0,0.0,0.0,0.0,0.0,0.0,0.0,0.0,0.0,0.0,0.0,0.0,0.0,0.0,0.0,0.0,0.0,3.3043,3.3365,3.3873,0.0,0.0,0.0,0.0,0.0,0.0,0.0,0.0,0.0,4.3838,4.3629,4.3778,0.0,0.0,4.4796,4.5005,4.5005,4.5095,4.5255,0.0,0.0,0.0,4.5414,4.5808,4.6032,4.6966,4.7692,4.7747,4.8056,4.8389,4.8646,4.8705,4.8687,4.8596,4.7863,4.7312,4.7282,4.7579,4.7944,4.8124,4.8525,4.8897,3.8407,3.71,3.7215,3.7277,3.7277,3.7315,3.7523,3.7853,3.7461,3.6915,3.6299,3.6145,3.5322,3.4052,3.4298,0.0,0.0,0.0,3.7269,3.8292,3.8553,3.8901,3.9286,3.956,3.9544,3.9316,3.97,3.9692,3.93,3.9281,3.8392,3.6629,0.0,0.0,3.5647,3.605,3.6259,3.6259,3.6417,3.5865,3.4526,3.3851,3.3164,3.2493,3.3008,3.3371,3.3448,3.4849,3.5397,3.4881,3.4831,3.3877,0.0,0.0,0.0,0.0,0.0,0.0,0.0,0.0,0.0,0.0,0.0,2.9371,2.9996,0.0,0.0,0.0,3.1786,3.2893,3.4861,3.5288,0.0,0.0,0.0,0.0,0.0,0.0,0.0,4.2551,4.4037,4.5224,4.5623,4.5593,4.5523,4.5683,4.5484,4.5394,4.5663,0.0,4.5802,4.6052,4.6093,4.6082,4.6112,4.6431,4.6834,4.7221,4.8428,4.9168,4.8955,4.9254,4.9591,4.9669,4.9579,4.9529,4.9684,4.9054,4.8548,4.856,4.8839,4.9076,4.9076,4.942,4.9722,4.0144,3.9537,3.893,3.8653,3.8653,3.8653,3.8645,3.8653,3.8592,3.8231,3.7707,3.8253,3.7823,3.6699,3.7369,0.0,0.0,3.8376,3.8992,3.9594,4.0196,4.0483,4.0517,4.111,4.1108,4.0474,4.0534,4.0565,4.0443,3.9808,3.9331,3.9069,3.8339,3.7803,3.7494,3.7486,3.7486,3.7494,3.6874,3.5903,3.4533,3.3928,3.3344,3.2773,3.3352,3.3741,3.378,3.547,3.6391,3.6214,3.6508,3.5775,3.377,0.0,0.0,0.0,0.0,0.0,0.0,0.0,0.0,0.0,0.0,0.0,0.0,0.0,0.0,0.0,3.3957,0.0,3.7447,3.8251,0.0,0.0,0.0,4.1882,4.2491,4.3728,4.4546,4.4546,0.0,0.0,0.0,0.0,4.7108,4.648,4.5832,4.5693,4.6311,4.639,4.661,4.716,4.7279,4.7268,4.7179,4.7369,4.7681,4.8075,4.9152,4.9896,4.9716,5.0082,5.0388,5.0166,5.0135,5.0038,4.9742,4.9635,4.9722,4.9635,4.9664,4.9693,4.9664,4.9693,4.9722,4.0413,4.0237,4.0083,4.003,4.0013,4.0021,4.0021,3.996,3.9476,3.9177,3.9023,3.8645,3.8315,3.8061,3.8707,3.9014,3.9054,3.9722,4.0114,4.0276,4.0425,4.05,4.0522,4.0663,4.0663,4.0557,4.1024,4.099,4.0526,4.0826,4.0623,4.0039,4.0146,3.9517,3.823,3.8161,3.8161,3.8153,3.7533,3.6306,3.4601,3.4743,3.4793,3.464,3.5191,3.5514,3.5661,3.6508,3.6802,3.6383,3.6367,3.6045,3.5283,3.3771,0.0,0.0,0.0,0.0,0.0,0.0,0.0,0.0,0.0,3.2709,3.4061,0.0,3.5143,0.0,3.6037,3.7524,3.949,4.0296,0.0,0.0,4.319,4.3688,4.3838,4.5484,4.6591,4.6591,4.7769,4.8409,4.7878,4.7967,4.7788,4.7149,4.6909,4.689,4.7029,4.707,4.7119,4.7268,4.7298,4.7298,4.7369,4.8188,4.8929,4.9353,5.0231,5.0773,5.0538,5.0763,5.0899,5.0525,5.0417,5.0219,4.9778,4.9722,4.9722,4.9722,4.9722,4.9722,4.9722,4.9722,4.9722,4.0505,4.0505,4.0505,4.0505,4.0505,4.0505,4.0505,4.0483,4.0114,3.9929,3.9937,3.9537,3.9375,3.9414,3.9775,3.9937,3.999,4.0329,4.0505,4.0531,4.0826,4.0792,4.0509,4.0817,4.0955,4.1001,4.1369,4.1507,4.145,4.1817,4.1708,4.1214,4.1455,4.0876,3.9481,3.9044,3.8841,3.8841,3.7875,3.6755,3.5462,3.5669,3.5584,3.5068,3.5697,3.6135,3.6251,3.6861,3.7196,3.7153,3.7109,3.6887,3.6479,3.5484,3.4541,0.0,0.0,0.0,0.0,0.0,0.0,0.0,0.0,0.0,0.0,0.0,3.7951,0.0,3.9011,0.0,4.2372,4.291,4.3788,4.5354,4.5862,4.6213,4.6482,4.7489,4.8199,4.8188,4.8858,4.9048,4.8397,4.8319,4.8068,4.7388,4.7298,4.7298,4.7298,4.7298,4.7298,4.7298,4.7298,4.7298,4.7298,4.8438,4.9363,4.9656,5.0508,5.1159,5.1011,5.1112,5.1076,5.0722,5.0638,5.0483,4.9972,4.9863,4.9839,4.9776,4.9954,5.0013,4.978,4.9938,5.0158,4.0768,4.076,4.076,4.079,4.076,4.079,4.0667,4.0505,4.0505,4.0505,4.0505,4.0505,4.0544,4.0636,4.0636,4.0676,4.0768,4.076,4.076,4.0803,4.1366,4.1338,4.0794,4.1389,4.1659,4.1718,4.1709,4.2039,4.2593,4.2593,4.252,4.2343,4.2288,4.1781,4.0876,4.0057,3.9541,3.9272,3.8114,3.7225,3.6643,3.6613,3.6113,3.5149,3.5815,3.6222,3.6294,3.6973,3.7543,3.8028,3.8161,3.8015,3.7614,3.7054,3.6619,0.0,3.6263,0.0,0.0,0.0,0.0,0.0,0.0,0.0,0.0,4.0346,4.1155,4.2852,4.2542,4.3177,4.5475,4.5764,4.6512,4.8199,4.8427,4.8648,4.9228,4.9366,4.9426,4.9426,4.9486,4.9307,4.8697,4.8547,4.8297,4.7788,4.7668,4.7698,4.7578,4.7459,4.7298,4.7298,4.7388,4.7519,4.7608,4.8577,4.9456,4.9565,5.041,5.1187,5.1206,5.1206,5.1123,5.0881,5.0799,5.0662,5.0283,5.0233,5.0177,5.0091,5.0465,5.0593,5.01,5.0378,5.0797,4.2193,4.2193,4.2202,4.2184,4.2193,4.2223,4.1529,4.0505,4.0505,4.0505,4.0505,4.0505,4.0838,4.1362,4.1392,4.1669,4.2193,4.2223,4.2193,4.2223,4.2336,4.2327,4.2211,4.2327,4.2389,4.2408,4.2408,4.247,4.2593,4.2593,4.2574,4.2538,4.2236,4.1951,4.1737,0.0,0.0,0.0,3.8332,3.7883,3.7255,3.7225,3.7113,3.6901,3.7215,0.0,3.6819,3.7573,3.7957,3.788,3.8357,0.0,0.0,0.0,0.0,0.0,0.0,0.0,0.0,0.0,0.0,0.0,4.5594,4.4588,4.2497,4.3537,4.4905,4.6083,4.6433,4.6875,4.7646,4.8229,4.8678,4.9037,4.9108,4.9168,4.9318,4.9733,5.0039,5.0039,5.0488,5.0589,4.9908,4.986,4.9602,4.8947,4.8917,4.8929,4.8887,4.7997,4.7358,4.7339,4.7799,4.8087,4.8087,4.9183,4.9991,5.0129,5.0649,5.1158,5.1217,5.1217,5.1135,5.0899,5.0822,5.0822,5.0816,5.0839,5.0895,5.1199,5.134,5.1236,5.0651,5.1004,5.1427,4.2593,0.0,4.2593,4.2593,0.0,4.2593,4.2184,4.1546,4.1537,4.1537,4.1564,4.1897,4.208,4.2127,4.2465,4.2607,4.2593,4.2593,4.2593,4.2593,4.2593,4.2593,4.2593,4.2593,4.2777,4.3103,4.3094,4.3257,4.3565,4.3596,4.3587,4.3596,4.336,4.302,4.247,4.1791,4.0745,3.9409,3.905,3.8571,3.7913,3.7875,3.7798,3.7552,0.0,0.0,0.0,0.0,0.0,0.0,0.0,0.0,0.0,0.0,0.0,4.2815,4.274,4.3553,4.5727,4.6212,4.6668,4.7347,4.7797,4.7352,4.5728,4.6619,4.7786,4.903,4.883,4.8967,4.9931,4.9884,4.9883,5.0193,5.0253,5.0253,5.0283,5.0499,5.0686,5.0715,5.0996,5.0936,5.0297,5.0207,4.9949,4.9396,4.9288,4.9318,4.9258,4.8738,4.8308,4.8308,4.8528,4.8779,4.8846,4.9542,5.0196,5.0255,5.0757,5.1158,5.1217,5.1217,5.1218,5.1381,5.1143,5.0964,5.1515,5.1348,5.1145,5.1532,5.1862,5.2004,5.1697,5.1888,5.2091,4.2971,4.2971,4.2931,4.2971,4.294,4.2931,4.2931,4.2931,0.0,0.0,0.0,4.3246,4.3229,4.2819,4.3403,4.3385,4.2989,4.2971,4.2971,4.294,4.294,4.2971,4.2971,4.2971,4.3248,4.3769,4.3778,4.4046,4.456,4.4591,4.4591,4.4591,4.4553,4.4058,4.313,4.2103,4.1313,4.0765,4.0098,3.9499,3.8939,3.8939,3.8672,3.8189,3.8305,3.8483,3.8728,3.9561,4.038,4.1247,4.2049,4.2826,4.3513,4.3971,4.4572,4.5493,4.6375,4.7355,4.8404,4.8985,4.9221,4.9007,4.9403,4.9551,4.9377,4.9444,5.0172,5.1789,5.064,5.0418,5.1849,5.1046,5.0596,5.1146,5.1217,5.1187,5.1187,5.1217,5.1176,5.1217,5.1187,5.0996,5.0476,5.0405,5.0219,4.9774,4.9756,4.9696,4.9737,4.9498,4.9168,4.9168,4.9307,4.9445,4.9535,4.9991,5.0357,5.0446,5.0966,5.1367,5.1355,5.1367,5.1636,5.2264,5.1613,5.1546,5.2265,5.195,5.1525,5.1842,5.2368,5.2759,5.2759,5.2759,5.2759,4.4314,4.4314,4.4314,4.4314,4.4304,4.4314,4.4344,4.4212,4.3094,4.2593,4.2611,4.2719,4.3028,4.3461,4.358,4.388,4.4314,4.4314,4.4314,0.0,4.4314,4.4304,4.4314,4.4314,4.4375,4.4437,4.4468,4.4498,4.46,4.46,4.4591,4.4572,4.4419,4.4082,4.3563,4.2727,4.2201,4.2101,4.1463,4.1064,4.0984,4.0993,4.0655,4.0054,4.0139,4.0365,4.0698,4.1524,4.2544,4.3712,4.4432,4.4897,4.5027,4.5665,4.6476,4.7461,4.7735,4.8934,5.1417,5.1203,5.1683,5.3445,5.3654,5.34,5.2761,5.1945,5.2292,5.4014,5.2671,5.1985,5.2404,5.1622,5.1056,5.1187,5.1217,5.1217,5.1217,5.1217,5.1217,5.1217,5.1217,5.1187,5.1098,5.1056,5.1056,5.0948,5.096,5.1109,5.1301,5.0354,4.9408,4.9366,4.9763,5.0039,5.014,5.0637,5.0955,5.1056,5.1576,5.2007,5.2067,5.2067,5.2306,5.2947,5.2245,5.2168,5.3015,5.2943,5.2738,5.2975,5.3239,5.3326,5.3284,5.3355,5.3384,4.4591,4.4591,4.4591,4.4591,4.4591,4.4591,4.4591,4.4529,4.3935,4.3688,4.3726,4.41,4.4228,4.4154,4.4554,4.4694,4.4591,4.4591,4.4591,4.4591,4.4591,4.4591,4.4591,4.4591,4.4806,4.5114,4.4776,4.4785,4.5074,4.4785,4.4543,4.4419,4.4133,4.3881,4.3655,4.3168,4.306,4.3399,4.2082,4.1413,4.1413,4.1413,4.1254,4.0954,4.1092,4.1444,4.2011,4.2956,4.4144,4.5499,4.6296,4.7056,4.7847,4.8222,4.8996,5.0231,5.0334,5.1262,5.3416,5.32,5.3433,5.4439,5.4444,5.4675,5.5232,5.3316,5.288,5.4566,5.2915,5.1965,5.2645,5.1819,5.1217,5.1217,5.1217,5.1217,5.1217,5.1217,5.1217,5.1217,5.1217,5.1337,5.1696,5.1768,5.1917,5.2187,5.2276,5.2396,5.2707,5.2019,5.1264,5.0983,5.1109,5.1098,5.0847,5.0966,5.1325,5.1666,5.1977,5.2336,5.2618,5.2737,5.3025,5.3509,5.2874,5.2713,5.3626,5.3222,5.3072,5.3379,5.3487,5.3487,5.3516,5.3778,5.3894,4.4591,4.4591,4.4591,4.4591,4.4591,4.4591,4.4591,4.4591,4.4591,4.4591,4.4676,4.5216,4.5132,4.4685,4.5216,4.5142,4.4657,4.4591,4.4591,4.4591,4.4591,4.4591,4.4591,4.4591,4.4868,4.5268,4.4837,4.4868,4.5268,4.4837,4.4545,4.4324,4.3968,4.3763,4.3754,4.3678,4.3868,4.4268,4.3108,4.2398,4.2281,4.2512,4.2585,4.2395,4.2779,4.3219,4.3803,4.4616,4.5766,4.7247,4.7998,4.8964,5.0236,5.0515,5.1191,5.2401,5.2706,5.334,5.445,5.4852,5.5,5.498,5.5059,5.5656,5.6592,5.4434,5.3534,5.4813,5.2969,5.183,5.2743,5.1938,5.1277,5.1397,5.1427,5.1546,5.1636,5.1636,5.1648,5.1648,5.1648,5.1876,5.2276,5.2426,5.263,5.3019,5.3318,5.3426,5.3426,5.3516,5.3366,5.2845,5.2516,5.2127,5.1576,5.1457,5.1678,5.2157,5.2336,5.2737,5.3216,5.3426,5.3695,5.4142,5.3458,5.3187,5.3941,5.3526,5.3114,5.34,5.3487,5.3545,5.3778,5.4474,5.4706,4.4591,4.4591,4.4591,4.4591,4.4591,4.4591,4.4591,4.4591,4.4591,4.4591,4.4619,4.4676,4.4685,4.46,4.4695,4.4676,4.4591,4.4591,4.4591,4.4591,4.4591,4.4591,4.4622,4.4622,4.4631,4.4776,4.4714,4.4776,4.492,4.4714,4.4603,4.4515,4.4181,4.3958,4.4,4.4347,4.4569,4.47,4.5253,4.5374,4.5018,4.5875,4.6057,4.5362,4.6209,4.6822,4.6715,4.7001,4.7812,4.9401,4.9646,5.0111,5.1016,5.1725,5.2469,5.334,5.4025,5.444,5.4549,5.5791,5.6551,5.6459,5.707,5.7427,5.7451,5.5566,5.5122,5.5902,5.3622,5.2287,5.3535,5.2264,5.145,5.1947,5.2037,5.2348,5.2797,5.3019,5.3007,5.3019,5.2869,5.3037,5.3067,5.3156,5.3198,5.3408,5.3845,5.4102,5.4162,5.4491,5.4623,5.4042,5.3533,5.2887,5.2306,5.2127,5.2217,5.2306,5.2737,5.3336,5.3862,5.4149,5.4311,5.462,5.4086,5.3626,5.3906,5.3805,5.3485,5.359,5.3691,5.3735,5.4345,5.5287,5.5722,4.4591,4.4591,4.4591,4.4591,4.4591,4.4591,4.4591,4.4591,4.4591,4.4591,4.4591,4.4591,4.4591,4.4591,4.4591,4.4591,4.4591,4.4591,4.4591,4.4591,4.4591,4.4797,4.5176,4.5207,4.5576,4.6265,4.5967,4.5998,4.6153,4.5481,4.5023,4.4933,4.4356,4.3997,4.4018,4.4192,4.4476,4.488,4.5243,4.5486,4.5646,4.5726,4.5628,4.5331,4.5441,4.6189,4.7334,4.7578,4.8561,5.0485,5.0665,5.1035,5.181,5.2604,5.3543,5.4761,5.6316,5.7195,5.7109,5.8146,5.8554,5.8073,5.7854,5.752,5.6793,5.4988,5.4316,5.4942,5.2978,5.1688,5.223,5.1635,5.1487,5.2067,5.2187,5.2486,5.3109,5.3198,5.3198,5.3198,5.3198,5.3396,5.3743,5.4132,5.4354,5.4384,5.4653,5.476,5.4832,5.5042,5.5059,5.4862,5.4533,5.3935,5.3067,5.2767,5.2947,5.3294,5.3581,5.403,5.4538,5.4627,5.4708,5.5111,5.434,5.389,5.4202,5.4231,5.4084,5.4113,5.4503,5.4822,5.549,5.6055,5.6316,4.4877,4.4868,4.4858,4.5001,4.5145,4.5145,4.5135,4.5145,4.5145,4.5053,4.4868,4.4868,4.4745,4.4591,4.4591,4.4591,4.4622,4.496,4.5145,4.5197,4.5505,4.5967,4.6388,4.6429,4.6942,4.764,4.7178,4.7004,4.7128,4.62,4.5622,4.5594,4.503,4.4809,4.5001,4.5152,4.5455,4.5819,4.6032,4.6346,4.658,4.6194,4.5977,4.6009,4.6344,4.7166,4.8509,4.8905,4.9807,5.1381,5.1514,5.1953,5.2909,5.3687,5.4853,5.6511,5.8278,5.919,5.8992,5.9434,5.9377,5.858,5.7928,5.7024,5.5746,5.437,5.3579,5.3393,5.2261,5.1569,5.1843,5.1621,5.1828,5.2606,5.2755,5.3025,5.3665,5.3755,5.3785,5.3767,5.3875,5.3905,5.4413,5.4862,5.5102,5.5132,5.5162,5.5222,5.5222,5.5192,5.5192,5.5222,5.5192,5.47,5.3713,5.3473,5.3743,5.3952,5.4149,5.4359,5.5042,5.4959,5.4824,5.4964,5.4372,5.4091,5.413,5.4272,5.4648,5.4851,5.5242,5.5751,5.6142,5.649,5.681,4.5566,4.5566,4.5536,4.5915,4.649,4.6449,4.648,4.6388,4.6459,4.6121,4.5597,4.5566,4.5197,4.4714,4.4745,4.4631,4.4766,4.5936,4.649,4.6582,4.7711,4.8378,4.846,4.8471,4.8471,4.8543,4.804,4.7343,4.662,4.6375,4.6438,4.68,4.6584,4.676,4.7295,4.78,4.8155,4.7795,4.841,4.8782,4.846,4.8368,4.8345,4.8491,5.0507,5.1095,5.1017,5.1654,5.2091,5.2249,5.2325,5.2976,5.4338,5.5234,5.6637,5.8607,5.9607,5.9713,5.9079,5.9013,5.8523,5.7559,5.7427,5.6534,5.4809,5.426,5.3488,5.196,5.2116,5.2399,5.3122,5.2584,5.2677,5.376,5.403,5.4311,5.4952,5.4982,5.5102,5.5012,5.4922,5.4922,5.5102,5.5192,5.5251,5.5209,5.5222,5.5222,5.5222,5.5222,5.5222,5.5222,5.5162,5.497,5.4299,5.4149,5.4179,5.4329,5.4478,5.4448,5.485,5.5184,5.5044,5.4871,5.4571,5.4303,5.412,5.4333,5.4919,5.5358,5.5939,5.6432,5.6607,5.6955,5.7173,4.6244,4.6244,4.6244,4.6398,4.6573,4.6603,4.6603,4.6603,4.6603,4.648,4.6275,4.6244,4.609,4.5884,4.5874,4.5628,4.5413,4.7065,4.7681,4.7404,4.8194,4.884,4.9292,4.9281,4.9312,4.9323,4.9497,4.9188,4.848,4.7988,4.7824,4.7956,4.7935,4.8005,4.8249,4.8463,4.8515,4.8457,4.8745,4.8787,4.8686,4.9056,4.9357,4.94,4.9298,4.9629,5.0348,5.068,5.1268,5.2244,5.365,5.4727,5.5437,5.7365,5.9056,6.0351,6.1163,6.135,6.0885,6.0536,5.9608,5.8035,5.7533,5.6433,5.4522,5.371,5.3214,5.2708,5.23,5.2755,5.3525,5.3278,5.3204,5.3982,5.4209,5.4491,5.5089,5.5551,5.5683,5.5311,5.5222,5.5222,5.5371,5.5593,5.5653,5.5341,5.5551,5.5581,5.5311,5.5222,5.5222,5.5222,5.5192,5.5119,5.494,5.485,5.485,5.485,5.491,5.491,5.5162,5.504,5.4917,5.5091,5.484,5.4864,5.4802,5.5228,5.5734,5.6287,5.6839,5.6796,5.697,5.7144,5.7274,4.6911,4.6911,4.6911,4.7065,4.724,4.725,4.724,4.725,4.725,4.7127,4.6973,4.6921,4.6819,4.6726,4.7065,4.689,4.6459,4.7886,4.8348,4.804,4.8871,4.9558,4.9938,5.0031,5.0,5.0031,5.0246,4.9999,4.9279,4.8746,4.8602,4.8702,4.8927,4.9161,4.9345,4.957,4.9653,4.9502,4.9462,4.934,4.9118,4.9667,5.021,5.034,4.9294,4.9248,5.065,5.1396,5.2272,5.347,5.5106,5.6375,5.7264,5.9259,6.0825,6.1569,6.2086,6.2292,6.1993,6.15,6.0408,5.8605,5.7812,5.6563,5.4423,5.3748,5.3472,5.3182,5.3097,5.3294,5.388,5.3994,5.4054,5.4431,5.4521,5.4688,5.5162,5.5581,5.57,5.5641,5.579,5.585,5.585,5.6209,5.6239,5.585,5.6102,5.5953,5.5611,5.5311,5.5222,5.5222,5.5222,5.5192,5.5192,5.5269,5.5192,5.5149,5.5239,5.5281,5.5273,5.5066,5.504,5.5212,5.5365,5.5502,5.5787,5.6179,5.6648,5.7187,5.7216,5.7129,5.7216,5.7274,5.7303,4.7609,4.7609,4.7619,4.7917,4.8378,4.8409,4.8532,4.844,4.8471,4.8101,4.764,4.7578,4.7311,4.7034,4.7886,4.8132,4.7763,4.8286,4.8625,4.8717,4.9928,5.0543,5.0605,5.0574,5.0647,5.0667,5.0072,4.9382,4.8783,4.8742,4.8881,4.9174,4.9857,5.0418,5.0996,5.1451,5.1629,5.1278,5.1161,5.0778,4.9979,5.0475,5.1117,5.1685,5.1161,5.1291,5.2293,5.4229,5.5158,5.5494,5.6414,5.7872,5.9708,6.0791,6.1579,6.2144,6.2337,6.2175,6.1957,6.1298,6.0248,5.8839,5.8119,5.6848,5.4954,5.4475,5.4173,5.3687,5.3785,5.4149,5.4299,5.47,5.5029,5.5179,5.5102,5.5132,5.5192,5.5222,5.5491,5.6149,5.6641,5.7034,5.7064,5.7064,5.7017,5.6838,5.6658,5.6372,5.6192,5.5743,5.5311,5.5251,5.5251,5.5222,5.5431,5.5641,5.5521,5.5431,5.5521,5.5581,5.5543,5.5415,5.546,5.565,5.5883,5.6027,5.6306,5.6663,5.678,5.7158,5.7216,5.7303,5.7303,5.7303,5.7303,4.8286,4.8286,4.8286,4.8399,4.8594,4.8583,4.8583,4.8583,4.8583,4.846,4.8317,4.8286,4.8163,4.8071,4.843,4.8471,4.8317,4.8522,4.8871,4.9466,5.0277,5.0697,5.0728,5.0697,5.0954,5.1231,5.0697,5.048,5.0611,5.0589,5.073,5.0982,5.1512,5.1941,5.2144,5.2381,5.2395,5.2287,5.2237,5.2066,5.1794,5.1959,5.2032,5.1925,5.3113,5.3838,5.3739,5.4388,5.4963,5.5524,5.7768,5.9877,6.1274,6.1443,6.167,6.2153,6.1267,6.1096,6.1575,6.0636,5.9377,5.8064,5.7688,5.6592,5.4767,5.454,5.4604,5.4455,5.4401,5.4329,5.482,5.5059,5.5251,5.5222,5.5222,5.5222,5.5311,5.5611,5.6389,5.7231,5.7274,5.7124,5.7214,5.7453,5.762,5.7304,5.7304,5.732,5.6855,5.6299,5.5923,5.5893,5.5593,5.5341,5.5521,5.582,5.588,5.585,5.591,5.585,5.5812,5.5897,5.5952,5.6053,5.6293,5.6532,5.6835,5.7013,5.71,5.7158,5.7274,5.7303,5.7303,5.7303,5.7303,4.8583,4.8583,4.8583,4.8583,4.8583,4.8583,4.8552,4.848,4.848,4.8438,4.8375,4.8448,4.851,4.849,4.8552,4.8778,4.8963,4.9004,4.9528,5.0246,5.0246,5.0585,5.1036,5.1344,5.161,5.1917,5.1652,5.1652,5.2052,5.2082,5.2071,5.2164,5.2748,5.3076,5.3106,5.3322,5.3364,5.3148,5.3045,5.2933,5.2838,5.3035,5.3275,5.3626,5.4959,5.5907,5.6266,5.6086,5.6252,5.7195,5.9105,6.0766,6.2129,6.145,6.1098,6.1428,6.1176,6.0874,6.0949,6.0234,5.9337,5.8253,5.769,5.6854,5.5408,5.503,5.503,5.539,5.5251,5.5222,5.5777,5.591,5.5897,5.5897,5.5461,5.5371,5.5551,5.6149,5.6915,5.7709,5.7949,5.7842,5.7962,5.8112,5.8338,5.7992,5.7979,5.8025,5.7453,5.6928,5.6628,5.6359,5.6209,5.594,5.57,5.591,5.6226,5.6299,5.6329,5.6209,5.6077,5.6309,5.645,5.6439,5.6616,5.6713,5.6955,5.7158,5.7274,5.7303,5.7303,5.7303,5.7303,5.7303,5.7303,4.8614,4.8594,4.8573,4.8563,4.8552,4.8552,4.852,4.8435,4.8537,4.8514,4.8357,4.8698,4.8618,4.8516,4.8744,4.9124,4.9608,4.977,5.0333,5.0896,5.0661,5.0672,5.1702,5.2348,5.2645,5.2718,5.2745,5.2776,5.2865,5.2801,5.2765,5.2862,5.3365,5.373,5.3768,5.4345,5.4276,5.3814,5.3753,5.3445,5.2998,5.3642,5.4633,5.5867,5.6269,5.7205,5.8362,5.8315,5.877,5.9832,5.9964,6.0745,6.1728,6.0872,6.0524,6.1032,6.1537,6.102,6.0323,5.9838,5.9598,5.9009,5.785,5.6904,5.6452,5.5869,5.5686,5.6175,5.6192,5.6402,5.6838,5.6944,5.6944,5.6915,5.6119,5.582,5.6282,5.6838,5.7483,5.8128,5.8697,5.9069,5.8919,5.8979,5.8979,5.889,5.8517,5.8278,5.8068,5.7603,5.6974,5.6795,5.6795,5.6539,5.6269,5.6449,5.6705,5.6705,5.6838,5.6885,5.6717,5.6902,5.6888,5.6911,5.6856,5.6952,5.7071,5.7216,5.7303,5.7303,5.7303,5.7303,5.7303,5.7303,5.7303,4.9086,4.8604,4.8428,4.8406,4.8365,4.8396,4.867,4.9098,4.9768,4.9783,4.9798,5.0267,4.9985,4.9539,4.9511,4.9685,5.0033,5.0418,5.0723,5.1149,5.1382,5.1698,5.2435,5.3106,5.3464,5.3514,5.3776,5.3867,5.3886,5.3769,5.3664,5.3617,5.4046,5.4185,5.4215,5.4582,5.4602,5.4449,5.4429,5.4356,5.426,5.4409,5.4688,5.5147,5.633,5.6963,5.7323,5.8058,5.8974,5.9877,6.0291,6.0664,6.1332,6.124,6.135,6.1743,6.1033,6.0575,6.042,5.9386,5.8558,5.8198,5.7766,5.734,5.7014,5.6749,5.6688,5.6868,5.6868,5.6915,5.7094,5.7154,5.7154,5.7064,5.6838,5.6825,5.7363,5.7739,5.8098,5.8726,5.8979,5.9069,5.9099,5.9099,5.9099,5.9069,5.8949,5.8756,5.8577,5.8278,5.7663,5.7513,5.7423,5.7124,5.6958,5.7094,5.7184,5.7124,5.735,5.7729,5.766,5.7733,5.7512,5.7309,5.7138,5.7143,5.7187,5.7303,5.7303,5.7303,5.7303,5.7303,5.7303,5.7303,5.7303,4.9633,4.9138,4.902,4.8967,4.8967,4.8967,4.9309,4.9813,5.0064,5.0272,5.0318,5.0434,5.0451,5.0207,5.0285,5.0663,5.1167,5.1562,5.1918,5.2329,5.2779,5.3058,5.3399,5.3943,5.443,5.4842,5.5037,5.5245,5.5335,5.5192,5.5101,5.5192,5.5275,5.5299,5.5246,5.5418,5.5336,5.505,5.5048,5.5106,5.5118,5.5519,5.5669,5.585,5.687,5.7344,5.7169,5.7839,5.8711,5.9519,5.982,6.0266,6.1528,6.1383,6.1504,6.1786,6.1043,6.0646,5.9864,5.883,5.8251,5.7986,5.7712,5.7331,5.7144,5.7094,5.7124,5.747,5.75,5.7649,5.7902,5.7932,5.7932,5.7992,5.7932,5.7979,5.8115,5.8055,5.8427,5.889,5.9099,5.9099,5.9099,5.9099,5.9099,5.9099,5.9099,5.9039,5.9009,5.8697,5.8367,5.8128,5.8098,5.7932,5.7752,5.7872,5.7992,5.7932,5.7852,5.8274,5.817,5.8135,5.7798,5.747,5.7388,5.7303,5.7303,5.7303,5.7303,5.7303,5.7303,5.7303,5.7303,5.7303,5.7303,5.0174,4.9893,4.9871,4.986,4.98,4.9849,5.0014,5.0412,5.0238,5.0193,5.0365,5.0076,5.048,5.0675,5.08,5.1531,5.253,5.2453,5.2984,5.3285,5.3543,5.3523,5.3509,5.4331,5.4975,5.5572,5.603,5.6048,5.5944,5.6206,5.6493,5.6273,5.645,5.6554,5.6249,5.6511,5.6272,5.5672,5.5664,5.5724,5.5788,5.6147,5.6232,5.6328,5.6969,5.7484,5.7517,5.7856,5.8356,5.9422,5.8978,6.0229,6.2145,6.1372,6.1077,6.1039,6.1323,6.0753,5.9222,5.875,5.8473,5.8314,5.7678,5.7287,5.7423,5.7556,5.7723,5.8158,5.8205,5.8427,5.88,5.9009,5.8949,5.886,5.8979,5.8756,5.8354,5.8205,5.8444,5.8966,5.9099,5.9099,5.9099,5.9099,5.9099,5.9099,5.9099,5.9099,5.9099,5.8949,5.868,5.8397,5.8517,5.88,5.8667,5.8637,5.877,5.88,5.8589,5.8633,5.8235,5.8081,5.7776,5.7556,5.7374,5.7303,5.7303,5.7303,5.7303,5.7303,5.7303,5.7303,5.7303,5.7303,5.7303,5.0476,4.9882,4.9758,4.968,4.9669,4.9669,5.0038,5.0649,5.1224,5.1272,5.1387,5.1711,5.1516,5.1101,5.1141,5.1351,5.1807,5.2197,5.2462,5.2444,5.2059,5.2244,5.2749,5.3818,5.4463,5.4623,5.431,5.4558,5.4995,5.5268,5.5377,5.5857,5.6152,5.6427,5.6403,5.6438,5.6712,5.6431,5.6291,5.6096,5.5882,5.5654,5.5606,5.5693,5.6142,5.6187,5.6232,5.6946,5.7898,5.8812,5.9892,6.0898,6.1729,6.2114,6.2094,6.183,6.1234,6.0546,5.9555,5.8719,5.8215,5.8267,5.8187,5.8128,5.865,5.862,5.871,5.889,5.8919,5.8919,5.9069,5.9099,5.9099,5.9099,5.9099,5.9039,5.8906,5.886,5.8949,5.9039,5.9099,5.9099,5.9099,5.9099,5.9099,5.9099,5.9099,5.9099,5.9099,5.9099,5.8949,5.868,5.88,5.8979,5.8949,5.889,5.8979,5.9018,5.8882,5.8719,5.8349,5.7946,5.7654,5.7472,5.7345,5.7303,5.7303,5.7303,5.7303,5.7303,5.7303,5.7303,5.7303,5.7303,5.7448,5.0963,5.0525,5.0381,5.0365,5.0354,5.0354,5.0725,5.1259,5.1496,5.1725,5.1842,5.198,5.1826,5.1678,5.1666,5.1798,5.2067,5.2127,5.2187,5.2115,5.1706,5.1556,5.1749,5.2666,5.33,5.3811,5.3999,5.423,5.4514,5.4522,5.4734,5.4983,5.5238,5.5323,5.5469,5.5578,5.5517,5.5603,5.5577,5.5412,5.5176,5.4944,5.4794,5.494,5.5241,5.5502,5.6647,5.7427,5.8503,5.9617,6.0752,6.1597,6.1928,6.2271,6.2245,6.1707,6.1208,6.0267,5.9466,5.8947,5.8604,5.8607,5.883,5.8966,5.9219,5.9338,5.9368,5.9189,5.9099,5.9099,5.9099,5.9099,5.9099,5.9099,5.9099,5.9099,5.9099,5.9099,5.9099,5.9099,5.9099,5.9099,5.9099,5.9099,5.9099,5.9099,5.9099,5.9099,5.9099,5.9099,5.9099,5.8979,5.9039,5.9099,5.9099,5.9069,5.9039,5.895,5.8732,5.8555,5.825,5.7863,5.7486,5.7388,5.7303,5.7303,5.7303,5.7303,5.7332,5.7332,5.7332,5.7332,5.7419,5.7652,5.7797,5.1386,5.1217,5.1217,5.1217,5.1217,5.1187,5.1439,5.1828,5.1457,5.1504,5.1887,5.1427,5.154,5.1876,5.1935,5.2366,5.2516,5.2306,5.1905,5.1851,5.1621,5.1418,5.1443,5.1773,5.2381,5.3587,5.3478,5.3757,5.4011,5.422,5.407,5.4208,5.4167,5.4388,5.4431,5.4249,5.4339,5.4649,5.4514,5.439,5.4193,5.4216,5.4328,5.4915,5.5494,5.6231,5.7563,5.8468,5.9359,6.0674,6.1316,6.1929,6.2286,6.2082,6.1646,6.0905,6.0761,6.0305,5.9898,5.9542,5.9474,5.9428,5.9741,5.9771,5.9561,5.9518,5.9472,5.9279,5.9099,5.9099,5.9099,5.9099,5.9099,5.9099,5.9099,5.9099,5.9099,5.9099,5.9099,5.9099,5.9099,5.9099,5.9099,5.9099,5.9099,5.9099,5.9099,5.9099,5.9099,5.9129,5.9159,5.9099,5.9099,5.9099,5.9099,5.9099,5.9099,5.8991,5.8705,5.8516,5.8293,5.8015,5.7696,5.7388,5.7303,5.7303,5.7303,5.7303,5.7332,5.7332,5.7419,5.7477,5.771,5.8,5.8189,5.1253,5.1217,5.1217,5.1217,5.1217,5.1217,5.1265,5.1325,5.1277,5.1277,5.1367,5.1265,5.1265,5.1397,5.1367,5.1498,5.1636,5.1546,5.1457,5.1457,5.1329,5.1253,5.1288,5.1439,5.1806,5.1813,5.2013,5.2279,5.2705,5.2813,5.3196,5.3633,5.3777,5.391,5.4007,5.4024,5.3946,5.4135,5.3995,5.391,5.3947,5.3966,5.4393,5.5455,5.6438,5.7432,5.8144,5.9208,6.0001,6.0348,6.09,6.138,6.1708,6.135,6.1211,6.123,6.0731,6.0371,6.0487,6.0641,6.0731,6.0671,6.0386,6.01,5.9817,5.9548,5.9412,5.9232,5.9099,5.9099,5.9099,5.9099,5.9099,5.9099,5.9099,5.9099,5.9099,5.9099,5.9099,5.9099,5.9099,5.9099,5.9099,5.9099,5.9099,5.9099,5.9099,5.9099,5.9099,5.9159,5.9232,5.9159,5.9099,5.9099,5.9099,5.9099,5.9099,5.9058,5.8871,5.8657,5.8449,5.8238,5.7989,5.7849,5.7536,5.7303,5.7303,5.7332,5.7565,5.7768,5.7739,5.7681,5.8203,5.8653,5.8784,5.1517,5.1217,5.1217,5.1217,5.1217,5.1217,5.1217,5.1217,5.1217,5.1217,5.1217,5.1217,5.1217,5.1217,5.1217,5.1217,5.1217,5.1217,5.1217,5.1217,5.1217,5.1217,5.1217,5.1358,5.1363,5.1381,5.1318,5.149,5.2043,5.2108,5.2337,5.2416,5.259,5.2856,5.3356,5.3349,5.3639,5.3851,5.3941,5.3929,5.4219,5.4363,5.5378,5.6327,5.7297,5.8271,5.9327,5.9209,6.0141,6.0938,6.1008,6.1169,6.1331,6.13,6.1052,6.126,6.0913,6.0745,6.103,6.109,6.091,6.0595,6.0549,6.0236,5.9847,5.9548,5.9428,5.9189,5.9099,5.9099,5.9099,5.9129,5.9099,5.9099,5.9159,5.9189,5.9159,5.9159,5.9219,5.9279,5.9219,5.9219,5.9099,5.9099,5.9099,5.9099,5.9129,5.9159,5.9189,5.9428,5.9608,5.9638,5.9608,5.9518,5.9488,5.9428,5.9428,5.9357,5.9191,5.8977,5.8762,5.8642,5.8613,5.858,5.8145,5.7623,5.7361,5.739,5.7768,5.8145,5.8116,5.8261,5.8871,5.9292,5.9422,5.1995,5.1385,5.1397,5.1325,5.1206,5.1217,5.1217,5.1217,5.1217,5.1217,5.1217,5.1217,5.1217,5.1217,5.1217,5.1217,5.1217,5.1217,5.1217,5.1217,5.1217,5.1217,5.1217,5.1217,5.1241,5.1264,5.1241,5.1416,5.1711,5.185,5.1785,5.1986,5.1647,5.2025,5.2972,5.305,5.341,5.3849,5.4128,5.417,5.4813,5.5649,5.6517,5.7017,5.7372,5.8412,5.9881,5.961,6.0241,6.1213,6.1485,6.1261,6.1571,6.1456,6.1297,6.1283,6.1194,6.118,6.1269,6.112,6.091,6.0595,6.0715,6.0236,5.9847,5.9771,5.9861,5.9428,5.9338,5.9249,5.9189,5.9262,5.9322,5.9428,5.9608,5.9727,5.9787,5.9847,5.9953,5.9847,5.9548,5.9368,5.9308,5.9398,5.9458,5.9308,5.9308,5.9518,5.9638,6.0116,6.0296,6.0296,6.0236,6.0057,5.9997,5.9923,5.9953,6.0013,5.9834,5.9658,5.937,5.9135,5.9144,5.9132,5.8639,5.8145,5.7797,5.7768,5.8406,5.8755,5.861,5.8929,5.9771,5.9974,5.9974,5.2707,5.2097,5.2067,5.1756,5.1277,5.1247,5.1217,5.1217,5.1217,5.1217,5.1217,5.1217,5.1217,5.1217,5.1217,5.1217,5.1217,5.1217,5.1217,5.1217,5.1217,5.1247,5.1277,5.1217,5.1517,5.1666,5.1546,5.1229,5.1718,5.2114,5.2067,5.2115,5.2636,5.3109,5.3378,5.356,5.351,5.4144,5.4296,5.4818,5.5781,5.6286,5.6698,5.698,5.7285,5.8114,5.9658,5.964,6.0283,6.1624,6.2196,6.2191,6.2126,6.2039,6.1986,6.1822,6.1553,6.1373,6.1642,6.1389,6.1,6.0685,6.0535,6.019,6.001,6.0027,6.0146,6.0027,5.9967,5.9787,5.9548,5.9727,5.9891,6.034,6.0745,6.0924,6.0924,6.0745,6.0821,6.0671,6.0462,5.9907,5.9578,5.9727,5.9817,5.9638,5.9548,5.9817,6.0146,6.0655,6.097,6.0984,6.0924,6.0775,6.0462,6.0402,6.0432,6.0551,6.0317,6.0166,6.0021,5.9782,5.9625,5.951,5.9103,5.9045,5.9016,5.9132,5.9393,5.9364,5.9277,5.9916,6.0787,6.0787,6.054,5.3725,5.2767,5.2767,5.2378,5.1786,5.1768,5.1546,5.1247,5.1217,5.1217,5.1217,5.1217,5.1217,5.1217,5.1217,5.1217,5.1217,5.1247,5.1217,5.1247,5.1277,5.1427,5.1816,5.2187,5.2456,5.2803,5.3252,5.3653,5.3324,5.2546,5.2187,5.2456,5.3294,5.3982,5.4348,5.4858,5.5378,5.5769,5.5897,5.6149,5.6594,5.6796,5.6912,5.7107,5.7094,5.8218,5.953,5.9575,6.0616,6.2045,6.2672,6.2236,6.2143,6.2076,6.1972,6.1463,6.0894,6.0864,6.1343,6.121,6.0924,6.0595,6.028,6.01,6.016,6.0475,6.0671,6.0671,6.0655,6.0505,6.0342,6.0505,6.0595,6.1014,6.1852,6.1642,6.1658,6.1822,6.1762,6.1569,6.1359,6.0924,6.0535,6.0655,6.0715,6.0386,6.0386,6.0595,6.0894,6.1283,6.1523,6.1672,6.1583,6.1493,6.112,6.088,6.0867,6.0872,6.0463,6.0399,6.0569,6.0471,6.0282,6.0354,6.0352,6.0293,6.0293,5.9945,5.9684,5.98,5.9974,6.0642,6.1222,6.1193,6.1019,5.4593,5.3695,5.3516,5.2977,5.2217,5.2187,5.1828,5.1247,5.1217,5.1217,5.1217,5.1217,5.1217,5.1277,5.1397,5.1546,5.1487,5.1594,5.1546,5.1517,5.1636,5.1917,5.2306,5.2887,5.3653,5.4239,5.4521,5.4832,5.4593,5.4114,5.3486,5.3276,5.4581,5.5179,5.5721,5.617,5.6633,5.6778,5.6885,5.6944,5.7047,5.6868,5.6941,5.6987,5.7228,5.8053,5.9996,5.9901,6.0882,6.2332,6.2505,6.2071,6.1822,6.1507,6.1253,6.0864,6.04,6.04,6.0625,6.0581,6.0402,6.0266,6.04,6.0609,6.1088,6.1343,6.1748,6.1928,6.1972,6.1852,6.1672,6.1762,6.2002,6.2331,6.281,6.2376,6.2167,6.2705,6.281,6.2391,6.2271,6.2241,6.1972,6.1868,6.1658,6.121,6.121,6.1389,6.1672,6.2002,6.2121,6.2285,6.2285,6.2195,6.2002,6.1688,6.1554,6.131,6.0926,6.0745,6.0998,6.1014,6.0851,6.1008,6.1179,6.1048,6.0729,6.0293,5.9945,6.0467,6.0932,6.1106,6.1425,6.1483,6.1629,5.5162,5.5012,5.4401,5.3401,5.2276,5.2229,5.1846,5.1397,5.1307,5.1307,5.1295,5.1277,5.1367,5.1397,5.1858,5.2127,5.2157,5.2755,5.2606,5.2528,5.2707,5.2797,5.3174,5.3803,5.4389,5.464,5.5448,5.5671,5.5431,5.588,5.57,5.6,5.6137,5.6658,5.6821,5.6813,5.7006,5.7064,5.7004,5.6987,5.6855,5.6688,5.6598,5.6898,5.6808,5.7472,5.9937,6.0052,6.0545,6.222,6.2069,6.1642,6.1224,6.0819,6.0475,6.034,6.022,6.028,6.0505,6.0236,5.9787,6.013,6.0835,6.1642,6.2255,6.2734,6.3183,6.3528,6.3438,6.3318,6.3258,6.3393,6.3438,6.3677,6.3947,6.3977,6.3872,6.4171,6.4111,6.3422,6.3093,6.2959,6.2824,6.26,6.2301,6.1882,6.1912,6.2091,6.2405,6.2674,6.2808,6.2898,6.2928,6.2928,6.2958,6.2704,6.2362,6.2116,6.183,6.1615,6.1571,6.1452,6.1125,6.1153,6.1193,6.1193,6.1222,6.099,6.099,6.1483,6.1832,6.1948,6.2166,6.237,6.2544,5.5222,5.5162,5.491,5.4281,5.3401,5.3431,5.3054,5.2486,5.2426,5.2145,5.1846,5.2217,5.2187,5.2097,5.2456,5.2827,5.2827,5.3037,5.3246,5.3473,5.3683,5.4114,5.464,5.5359,5.6184,5.6543,5.7184,5.7616,5.7723,5.7287,5.7304,5.7393,5.7124,5.6778,5.6748,5.6928,5.7064,5.6974,5.6778,5.6568,5.6479,5.6432,5.6492,5.7017,5.7962,5.856,5.9964,6.0505,6.0984,6.1343,6.1463,6.106,6.0611,6.0176,6.01,6.01,6.013,6.0549,6.1088,6.0745,6.0505,6.0924,6.1972,6.2989,6.3393,6.3767,6.4231,6.453,6.465,6.4515,6.4411,6.4441,6.459,6.4859,6.5024,6.5129,6.5069,6.5039,6.477,6.3767,6.3588,6.3558,6.3363,6.3183,6.2854,6.2555,6.2674,6.2794,6.2988,6.3138,6.3168,6.3168,6.3168,6.3197,6.3227,6.3139,6.308,6.2804,6.2556,6.2175,6.1776,6.1449,6.1195,6.1208,6.128,6.1396,6.1542,6.1687,6.1919,6.2209,6.2441,6.266,6.2892,6.3183,6.3328,5.5222,5.5222,5.5222,5.482,5.4239,5.4209,5.3832,5.3276,5.3169,5.2977,5.2516,5.2977,5.2977,5.2797,5.3186,5.3486,5.3665,5.3977,5.4251,5.4581,5.4999,5.5491,5.6239,5.6885,5.741,5.8188,5.8457,5.8607,5.8441,5.8068,5.7573,5.7214,5.7094,5.6658,5.6718,5.6658,5.6928,5.6915,5.6748,5.6628,5.6748,5.6838,5.7137,5.7663,5.8338,5.9039,5.9847,6.0416,6.0611,6.0775,6.0715,6.0446,6.0057,5.9817,5.9921,6.01,6.0416,6.1014,6.1852,6.2241,6.1957,6.2331,6.3304,6.3947,6.4276,6.48,6.5248,6.5637,6.5637,6.5488,6.5368,6.5308,6.5099,6.5129,6.5129,6.5188,6.4814,6.4665,6.4455,6.4006,6.4096,6.4231,6.4141,6.3917,6.3422,6.3063,6.2884,6.2958,6.3018,6.3168,6.3273,6.3273,6.3257,6.3303,6.3333,6.3228,6.3081,6.2717,6.2468,6.2145,6.1791,6.1448,6.1252,6.1222,6.1367,6.1629,6.1977,6.2354,6.2542,6.2745,6.3109,6.3589,6.3486,6.3748,6.3909,5.5222,5.5222,5.5222,5.482,5.4299,5.4221,5.3892,5.3468,5.3378,5.3288,5.3228,5.3348,5.3306,5.3366,5.3862,5.4221,5.4521,5.5281,5.57,5.5658,5.6137,5.6509,5.6898,5.7453,5.7949,5.8068,5.8128,5.8128,5.8098,5.7453,5.6898,5.6611,5.6492,5.6521,5.6941,5.6492,5.6539,5.7004,5.7004,5.7304,5.7573,5.7723,5.8128,5.8547,5.8667,5.9249,5.9907,6.0356,6.0475,6.034,6.031,6.001,5.9548,5.9428,5.9711,6.028,6.0835,6.1732,6.2944,6.3558,6.3827,6.3827,6.459,6.5129,6.5652,6.5981,6.5996,6.6146,6.6355,6.6251,6.6131,6.5817,6.5428,6.5248,6.5203,6.5114,6.477,6.4814,6.4755,6.456,6.477,6.4964,6.4904,6.4695,6.4066,6.3588,6.3243,6.3138,6.3227,6.3347,6.3512,6.3767,6.3812,6.3662,6.3662,6.3333,6.3082,6.2717,6.2351,6.2072,6.182,6.1579,6.1414,6.1324,6.1716,6.2238,6.2703,6.3094,6.3384,6.3703,6.4241,6.4605,6.44,6.4284,6.4444,5.5222,5.5222,5.5222,5.5072,5.488,5.4862,5.4713,5.4563,5.4503,5.4264,5.4024,5.4294,5.4234,5.4204,5.4563,5.5072,5.5491,5.5209,5.5598,5.7111,5.7214,5.7646,5.7902,5.7919,5.8098,5.7979,5.7769,5.7453,5.7423,5.6808,5.6492,5.6235,5.6175,5.6299,5.6389,5.6282,5.6492,5.6974,5.7094,5.7214,5.7513,5.7949,5.8487,5.9129,5.9219,5.9548,6.007,6.0386,6.0446,6.022,6.019,6.004,5.9787,5.9771,6.0266,6.1088,6.1792,6.2586,6.4111,6.5129,6.5473,6.5368,6.5577,6.6086,6.6101,6.6011,6.6161,6.6146,6.5996,6.5697,6.5338,6.5278,6.5069,6.5084,6.5054,6.5024,6.4949,6.5308,6.5428,6.5188,6.5233,6.4949,6.48,6.5099,6.4695,6.4186,6.3797,6.3662,6.3662,6.3812,6.3977,6.4411,6.453,6.4276,6.4006,6.3602,6.3246,6.2924,6.2454,6.1983,6.179,6.1856,6.1836,6.1905,6.2383,6.2906,6.3399,6.3877,6.4342,6.4793,6.4938,6.5141,6.5067,6.4951,6.4996,5.5222,5.5222,5.5222,5.5222,5.5222,5.5222,5.5222,5.5222,5.5192,5.494,5.47,5.4999,5.497,5.4832,5.5251,5.5683,5.6162,5.609,5.6393,5.7935,5.7679,5.7962,5.8248,5.8308,5.7949,5.7679,5.7184,5.6808,5.6748,5.6149,5.5863,5.5863,5.6115,5.6372,5.6479,5.6628,5.6868,5.7423,5.7752,5.8112,5.8381,5.871,5.9056,5.9398,5.9608,5.9831,6.013,6.0429,6.0715,6.0489,6.0459,6.0446,6.0459,6.0595,6.1014,6.1792,6.2945,6.3782,6.5188,6.6191,6.6281,6.5951,6.661,6.658,6.6191,6.6011,6.5787,6.5607,6.5174,6.4919,6.474,6.474,6.474,6.471,6.477,6.474,6.5054,6.5428,6.5667,6.5488,6.5547,6.5173,6.4904,6.5144,6.5263,6.4814,6.4366,6.4216,6.4066,6.4066,6.4231,6.468,6.4859,6.447,6.4126,6.3767,6.3426,6.3131,6.2706,6.2248,6.2553,6.2751,6.2596,6.2529,6.3022,6.3558,6.4154,6.4648,6.4793,6.4909,6.4983,6.5228,6.5531,6.5444,6.5228,5.5222,5.5222,5.5222,5.5222,5.5222,5.5222,5.5222,5.5222,5.5222,5.5179,5.5192,5.5162,5.5132,5.5281,5.582,5.6102,5.6222,5.6615,5.7201,5.7769,5.7709,5.8008,5.7979,5.7889,5.7483,5.6987,5.6509,5.6162,5.6102,5.5893,5.5551,5.5611,5.6269,5.6718,5.7047,5.7347,5.7633,5.8141,5.8501,5.886,5.9159,5.9591,5.9578,5.9668,5.9608,5.9771,6.007,6.0429,6.0775,6.0924,6.112,6.112,6.112,6.112,6.1553,6.245,6.3977,6.5159,6.5787,6.661,6.6759,6.646,6.6715,6.655,6.6161,6.5772,6.5323,6.5039,6.468,6.4411,6.4216,6.4186,6.4186,6.4246,6.4306,6.4545,6.4934,6.5263,6.5547,6.5697,6.5981,6.5892,6.5742,6.5862,6.5682,6.5233,6.474,6.4441,6.4276,6.4036,6.4261,6.4725,6.4785,6.453,6.4201,6.3887,6.3665,6.3385,6.3165,6.2852,6.3244,6.3484,6.325,6.3239,6.3703,6.4167,6.459,6.4838,6.4954,6.5012,6.5012,6.5228,6.5531,6.5286,6.507,5.5222,5.5222,5.5222,5.5222,5.5222,5.5222,5.5222,5.5222,5.5222,5.5222,5.5222,5.5222,5.5222,5.5251,5.5388,5.582,5.6119,5.6419,5.6838,5.7184,5.7423,5.7393,5.7274,5.7034,5.6688,5.6329,5.5923,5.5623,5.5671,5.5581,5.5923,5.6072,5.6885,5.747,5.7842,5.8261,5.8517,5.8726,5.9009,5.9219,5.9398,5.9502,5.9488,5.9488,5.9727,5.9921,6.025,6.1058,6.1493,6.1732,6.1822,6.1822,6.1822,6.1852,6.2211,6.3528,6.5084,6.64,6.6221,6.661,6.6759,6.637,6.6251,6.6236,6.5817,6.5233,6.4635,6.4366,6.4216,6.3977,6.4066,6.4156,6.4366,6.4635,6.4725,6.4964,6.5338,6.5637,6.5906,6.6071,6.634,6.64,6.6311,6.6146,6.5951,6.5533,6.5173,6.4829,6.447,6.4231,6.4291,6.4785,6.4904,6.471,6.4381,6.4066,6.3845,6.3639,6.355,6.3515,6.3742,6.3876,6.377,6.392,6.4225,6.4561,6.4896,6.5012,6.5012,6.5012,6.5041,6.5257,6.5402,6.517,6.5099,5.5222,5.5222,5.5222,5.5222,5.5222,5.5222,5.5222,5.5222,5.5222,5.5222,5.5222,5.5222,5.5341,5.5671,5.591,5.6239,5.6581,5.6658,5.6898,5.7017,5.6868,5.6778,5.6568,5.6359,5.609,5.576,5.5551,5.5431,5.5641,5.6179,5.6551,5.6628,5.7636,5.7995,5.8248,5.8607,5.8979,5.9069,5.9099,5.9099,5.9099,5.9129,5.9219,5.9532,5.998,6.028,6.0835,6.1836,6.2135,6.2435,6.248,6.2495,6.2495,6.2525,6.3079,6.4216,6.4814,6.5742,6.5877,6.5966,6.5936,6.5667,6.5383,6.5173,6.4994,6.4515,6.4066,6.3707,6.3662,6.3662,6.3947,6.4291,6.48,6.5308,6.5428,6.5518,6.5847,6.6176,6.634,6.646,6.658,6.6685,6.6625,6.646,6.634,6.6161,6.5862,6.5458,6.4949,6.4455,6.453,6.4859,6.4964,6.4934,6.462,6.4441,6.4457,6.4398,6.4364,6.434,6.4387,6.4356,6.4362,6.4502,6.4706,6.4925,6.5012,6.5012,6.5012,6.5012,6.5012,6.5141,6.5228,6.5141,6.5141,5.5222,5.5222,5.5222,5.5222,5.5222,5.5222,5.5222,5.5222,5.5222,5.5222,5.5222,5.5222,5.5551,5.6,5.6299,5.6526,5.6688,5.6718,5.6598,5.6958,5.6551,5.6312,5.6119,5.606,5.573,5.5371,5.5281,5.5461,5.6162,5.6658,5.6987,5.7184,5.7919,5.8308,5.8457,5.8816,5.9099,5.9099,5.9099,5.9099,5.9099,5.9189,5.9398,5.9951,6.031,6.0685,6.1672,6.2255,6.2465,6.2854,6.3078,6.3048,6.3153,6.3183,6.3917,6.4381,6.471,6.5069,6.5458,6.5518,6.5188,6.4829,6.4381,6.4336,6.4246,6.3977,6.3602,6.3512,6.3482,6.3917,6.4261,6.5054,6.5697,6.6086,6.6281,6.634,6.646,6.667,6.667,6.6759,6.6789,6.6849,6.6849,6.67,6.667,6.67,6.637,6.5877,6.5488,6.4874,6.4829,6.5009,6.4994,6.5084,6.5114,6.5024,6.5218,6.5232,6.506,6.5078,6.5034,6.4998,6.497,6.4954,6.4896,6.4954,6.5012,6.5012,6.5012,6.5012,6.5012,6.5012,6.5012,6.5041,6.507,5.5222,5.5222,5.5222,5.5222,5.5222,5.5222,5.5222,5.5222,5.5222,5.5222,5.5222,5.5251,5.5593,5.6162,5.594,5.609,5.6432,5.6521,5.6132,5.609,5.5953,5.5863,5.5564,5.5551,5.5359,5.5281,5.5311,5.5671,5.6312,5.6868,5.744,5.7876,5.8457,5.877,5.877,5.9099,5.9099,5.9099,5.9099,5.9099,5.9099,5.9189,5.9398,6.007,6.0549,6.1194,6.2032,6.2614,6.2824,6.3063,6.3108,6.3347,6.3752,6.3782,6.4186,6.477,6.474,6.4829,6.4949,6.4949,6.465,6.4336,6.4066,6.4036,6.3887,6.3542,6.3393,6.3393,6.3677,6.4246,6.4829,6.5742,6.649,6.6789,6.7044,6.7044,6.7014,6.6999,6.6999,6.6999,6.6999,6.6999,6.6999,6.6999,6.6999,6.6729,6.6295,6.5936,6.5817,6.5398,6.5218,6.5293,6.5054,6.5114,6.5353,6.5517,6.5651,6.5498,6.5264,6.5415,6.5605,6.5288,6.5012,6.5012,6.4983,6.5012,6.5012,6.5012,6.5012,6.5012,6.5012,6.5012,6.5012,6.5012,6.5012,5.5222,5.5222,5.5222,5.5222,5.5222,5.5222,5.5222,5.5222,5.5222,5.5222,5.5222,5.5251,5.5581,5.6132,5.5803,5.5743,5.6162,5.6205,5.5863,5.5581,5.5491,5.5461,5.5311,5.5222,5.5222,5.5251,5.588,5.6359,5.6688,5.7586,5.8338,5.8547,5.8979,5.9099,5.9099,5.9099,5.9099,5.9099,5.9129,5.9129,5.9189,5.9412,5.9651,6.028,6.0998,6.1642,6.2091,6.2704,6.3018,6.3227,6.3377,6.3602,6.3901,6.3947,6.4321,6.456,6.453,6.4261,6.4381,6.4321,6.4096,6.3767,6.3602,6.3542,6.3887,6.3632,6.3797,6.3917,6.4725,6.5308,6.5547,6.6281,6.664,6.6939,6.7029,6.7044,6.6999,6.6999,6.6999,6.6999,6.6999,6.6999,6.6999,6.6999,6.6999,6.6969,6.6475,6.6385,6.6236,6.6026,6.5847,6.5697,6.5547,6.5712,6.6176,6.6114,6.5976,6.5774,6.5421,6.5373,6.5335,6.5174,6.5012,6.5012,6.5012,6.5012,6.5012,6.5012,6.5012,6.5012,6.5012,6.5012,6.5012,6.5012,6.5012,5.5222,5.5222,5.5222,5.5222,5.5222,5.5222,5.5222,5.5222,5.5222,5.5222,5.5222,5.5222,5.5611,5.6,5.6072,5.6132,5.6102,5.5953,5.5581,5.5341,5.5251,5.5281,5.5281,5.5222,5.5311,5.5671,5.6282,5.6808,5.7274,5.8068,5.8637,5.9009,5.9099,5.9099,5.9099,5.9129,5.9129,5.9249,5.9279,5.9219,5.9428,5.9801,6.007,6.0639,6.1343,6.2032,6.2375,6.2674,6.3078,6.3227,6.3482,6.3871,6.3947,6.4006,6.4171,6.4351,6.3871,6.3722,6.3707,6.3542,6.3347,6.3168,6.3108,6.3317,6.3692,6.3977,6.4126,6.4695,6.5533,6.5892,6.6116,6.658,6.6909,6.6999,6.7029,6.7029,6.6999,6.6999,6.6999,6.6999,6.6999,6.6999,6.6999,6.6999,6.6999,6.6999,6.6999,6.6999,6.6909,6.667,6.6445,6.637,6.6251,6.655,6.6773,6.6544,6.621,6.5853,6.5525,6.5324,6.5139,6.506,6.5012,6.5012,6.5012,6.5012,6.5012,6.5012,6.5012,6.5012,6.5012,6.5012,6.5012,6.5012,6.5012,5.5222,5.5222,5.5222,5.5222,5.5222,5.5222,5.5222,5.5222,5.5222,5.5222,5.5222,5.5251,5.5581,5.6162,5.5581,5.5581,5.5953,5.5713,5.5461,5.5222,5.5222,5.5222,5.5251,5.5341,5.5581,5.6,5.6492,5.6958,5.762,5.8158,5.8607,5.9069,5.9099,5.9099,5.9099,5.9159,5.9308,5.9488,5.9458,5.9368,5.9831,6.016,6.0429,6.0984,6.1672,6.2331,6.2794,6.3018,6.3078,6.3168,6.3333,6.3917,6.4126,6.4006,6.3947,6.4036,6.3512,6.3317,6.3257,6.3197,6.3108,6.3108,6.3168,6.3377,6.3812,6.4291,6.459,6.5159,6.5697,6.5697,6.5996,6.6939,6.7433,6.7119,6.6999,6.6999,6.6999,6.6999,6.6999,6.6999,6.6999,6.6999,6.6999,6.6999,6.6999,6.6999,6.6999,6.6999,6.6999,6.6999,6.6999,6.6909,6.6805,6.6695,6.6631,6.6508,6.6232,6.5902,6.5585,6.5285,6.5124,6.5044,6.5012,6.5012,6.5012,6.5012,6.5012,6.5012,6.5012,6.5012,6.5012,6.5012,6.5012,6.5012,6.5012]}]]